[[{"header":{"parameterUnit":"m.s-1","parameterCategory":1,"la1":31.0,"la2":29.5877,"lo1":-88.7671,"lo2":-86.6584,"dy":0.0162,"dx":0.0185,"nx":115,"ny":88,"refTime":"2025-11-07T12:00:00:Z","depth":0,"parameterNumber":2,"parameterNumberName":"U-component_of_WINDS"},"data":[0.0,0.0,0.0,0.0,0.0,0.0,0.0,0.0,0.0,0.0,0.0,0.0,0.0,0.0,0.0,0.0,0.0,0.0,0.0,0.0,0.0,0.0,0.0,0.0,0.0,0.0,0.0,0.0,0.0,0.0,0.0,0.0,0.0,0.0,0.0,0.0,0.0,0.0,0.0,0.0,0.0,0.0,0.0,0.0,0.0,0.0,0.0,0.0,0.0,0.0,0.0,0.0,0.0,0.0,0.0,0.0,0.0,0.0,0.0,0.0,0.0,0.0,0.0,0.0,0.0,0.0,0.0,0.0,0.0,0.0,0.0,0.0,0.0,0.0,0.0,0.0,0.0,0.0,0.0,0.0,0.0,0.0,0.0,0.0,0.0,0.0,0.0,0.0,0.0,0.0,0.0,0.0,0.0,0.0,0.0,0.0,0.0,0.0,0.0,0.0,0.0,0.0,0.0,0.0,0.0,0.0,0.0,0.0,0.0,0.0,0.0,0.0,0.0,0.0,0.0,0.0,0.0,0.0,0.0,0.0,0.0,0.0,0.0,0.0,0.0,0.0,0.0,0.0,0.0,0.0,0.0,0.0,0.0,0.0,0.0,0.0,0.0,0.0,0.0,0.0,0.0,0.0,0.0,0.0,0.0,0.0,0.0,0.0,0.0,0.0,0.0,0.0,0.0,0.0,0.0,0.0,0.0,0.0,0.0,0.0,0.0,0.0,0.0,0.0,0.0,0.0,0.0,0.0,0.0,0.0,0.0,0.0,0.0,0.0,0.0,0.0,0.0,0.0,0.0,0.0,0.0,0.0,0.0,0.0,0.0,0.0,0.0,0.0,0.0,0.0,0.0,0.0,0.0,0.0,0.0,0.0,0.0,0.0,0.0,0.0,0.0,0.0,0.0,0.0,0.0,0.0,0.0,0.0,0.0,0.0,0.0,0.0,0.0,0.0,0.0,0.0,0.0,0.0,0.0,0.0,0.0,0.0,0.0,0.0,0.0,0.0,0.0,0.0,0.0,0.0,0.0,0.0,0.0,0.0,0.0,0.0,0.0,0.0,0.0,0.0,0.0,0.0,0.0,0.0,0.0,0.0,0.0,0.0,0.0,0.0,0.0,0.0,0.0,0.0,0.0,0.0,0.0,0.0,0.0,0.0,0.0,0.0,0.0,0.0,0.0,0.0,0.0,0.0,0.0,0.0,0.0,0.0,0.0,0.0,0.0,0.0,0.0,0.0,0.0,0.0,0.0,0.0,0.0,0.0,0.0,0.0,0.0,0.0,0.0,0.0,0.0,0.0,0.0,0.0,0.0,0.0,0.0,0.0,0.0,0.0,0.0,0.0,0.0,0.0,0.0,0.0,0.0,0.0,0.0,0.0,0.0,0.0,0.0,0.0,0.0,0.0,0.0,0.0,0.0,0.0,0.0,0.0,0.0,0.0,0.0,0.0,0.0,0.0,0.0,0.0,0.0,0.0,0.0,0.0,0.0,0.0,0.0,0.0,0.0,0.0,0.0,0.0,0.0,0.0,0.0,0.0,0.0,0.0,0.0,0.0,0.0,0.0,0.0,0.0,0.0,0.0,0.0,0.0,0.0,0.0,0.0,0.0,0.0,0.0,0.0,0.0,0.0,0.0,0.0,0.0,0.0,0.0,0.0,0.0,0.0,0.0,0.0,0.0,0.0,0.0,0.0,0.0,0.0,0.0,0.0,0.0,0.0,0.0,0.0,0.0,0.0,0.0,0.0,0.0,0.0,0.0,0.0,0.0,0.0,0.0,0.0,0.0,0.0,0.0,0.0,0.0,0.0,0.0,0.0,0.0,0.0,0.0,0.0,0.0,0.0,0.0,0.0,0.0,0.0,0.0,0.0,0.0,0.0,0.0,0.0,0.0,0.0,0.0,0.0,0.0,0.0,0.0,0.0,0.0,0.0,0.0,0.0,0.0,0.0,0.0,0.0,0.0,0.0,0.0,0.0,0.0,0.0,0.0,0.0,0.0,0.0,0.0,0.0,0.0,0.0,0.0,0.0,0.0,0.0,0.0,0.0,0.0,0.0,0.0,0.0,0.0,0.0,0.0,0.0,0.0,0.0,0.0,0.0,0.0,0.0,0.0,0.0,0.0,0.0,0.0,0.0,0.0,0.0,0.0,0.0,0.0,0.0,0.0,0.0,0.0,0.0,0.0,0.0,0.0,0.0,0.0,0.0,0.0,0.0,0.0,0.0,0.0,0.0,0.0,0.0,0.0,0.0,0.0,0.0,0.0,0.0,0.0,0.0,0.0,0.0,0.0,0.0,0.0,0.0,0.0,0.0,0.0,0.0,0.0,0.0,0.0,0.0,0.0,0.0,0.0,0.0,0.0,0.0,0.0,0.0,0.0,0.0,0.0,0.0,0.0,0.0,0.0,0.0,0.0,0.0,0.0,0.0,0.0,0.0,0.0,0.0,0.0,0.0,0.0,0.0,0.0,0.0,0.0,0.0,0.0,0.0,0.0,0.0,0.0,0.0,0.0,0.0,0.0,0.0,0.0,0.0,0.0,0.0,0.0,0.0,0.0,0.0,0.0,0.0,0.0,0.0,0.0,0.0,0.0,0.0,0.0,0.0,0.0,0.0,0.0,0.0,0.0,0.0,0.0,0.0,0.0,0.0,0.0,0.0,0.0,0.0,0.0,0.0,0.0,0.0,0.0,0.0,0.0,0.0,0.0,0.0,0.0,0.0,0.0,0.0,0.0,0.0,0.0,0.0,0.0,0.0,0.0,0.0,0.0,0.0,0.0,0.0,0.0,0.0,0.0,0.0,0.0,0.0,0.0,0.0,0.0,0.0,0.0,0.0,0.0,0.0,0.0,0.0,0.0,0.0,0.0,0.0,0.0,0.0,0.0,0.0,0.0,0.0,0.0,0.0,0.0,0.0,0.0,0.0,0.0,0.0,0.0,0.0,0.0,0.0,0.0,0.0,0.0,0.0,0.0,0.0,0.0,0.0,0.0,0.0,0.0,0.0,0.0,0.0,0.0,0.0,0.0,0.0,0.0,0.0,0.0,0.0,0.0,0.0,0.0,0.0,0.0,0.0,0.0,0.0,0.0,0.0,0.0,0.0,0.0,0.0,0.0,0.0,0.0,0.0,0.0,0.0,0.0,0.0,0.0,0.0,0.0,0.0,0.0,0.0,0.0,0.0,0.0,0.0,0.0,0.0,0.0,0.0,0.0,0.0,0.0,0.0,0.0,0.0,0.0,0.0,0.0,0.0,0.0,0.0,0.0,0.0,0.0,0.0,0.0,0.0,0.0,0.0,0.0,0.0,0.0,0.0,0.0,0.0,0.0,0.0,0.0,0.0,0.0,0.0,0.0,0.0,0.0,0.0,0.0,0.0,0.0,0.0,0.0,0.0,0.0,0.0,0.0,0.0,0.0,0.0,0.0,0.0,0.0,0.0,0.0,0.0,0.0,0.0,0.0,0.0,0.0,0.0,0.0,0.0,0.0,0.0,0.0,0.0,0.0,0.0,0.0,0.0,0.0,0.0,0.0,0.0,0.0,0.0,0.0,0.0,0.0,0.0,0.0,0.0,0.0,0.0,0.0,0.0,0.0,0.0,0.0,0.0,0.0,0.0,0.0,0.0,0.0,0.0,0.0,0.0,0.0,0.0,0.0,0.0,0.0,0.0,0.0,0.0,0.0,0.0,0.0,0.0,0.0,0.0,0.0,0.0,0.0,0.0,0.0,0.0,0.0,0.0,0.0,0.0,0.0,0.0,0.0,0.0,0.0,0.0,0.0,0.0,0.0,0.0,0.0,0.0,0.0,0.0,0.0,0.0,0.0,0.0,0.0,0.0,0.0,0.0,0.0,0.0,0.0,0.0,0.0,0.0,0.0,0.0,0.0,0.0,0.0,0.0,0.0,0.0,0.0,0.0,0.0,0.0,0.0,0.0,0.0,0.0,0.0,0.0,0.0,0.0,0.0,0.0,0.0,0.0,0.0,0.0,0.0,0.0,0.0,0.0,0.0,0.0,0.0,0.0,0.0,0.0,0.0,0.0,0.0,0.0,0.0,0.0,0.0,0.0,0.0,0.0,0.0,0.0,0.0,0.0,0.0,0.0,0.0,0.0,0.0,0.0,0.0,0.0,0.0,0.0,0.0,0.0,0.0,0.0,0.0,0.0,0.0,0.0,0.0,0.0,0.0,0.0,0.0,0.0,0.0,0.0,0.0,0.0,0.0,0.0,0.0,0.0,0.0,0.0,0.0,0.0,0.0,0.0,0.0,-1.2076,0.0,0.0,0.0,-1.0936,0.0,0.0,0.0,0.0,0.0,0.0,0.0,0.0,0.0,0.0,0.0,0.0,0.0,0.0,0.0,0.0,0.0,0.0,0.0,0.0,0.0,0.0,0.0,0.0,0.0,0.0,0.0,0.0,0.0,0.0,0.0,0.0,0.0,0.0,0.0,0.0,0.0,0.0,0.0,0.0,0.0,0.0,0.0,0.0,0.0,0.0,0.0,0.0,0.0,0.0,0.0,0.0,0.0,0.0,0.0,0.0,0.0,0.0,0.0,0.0,0.0,0.0,0.0,0.0,0.0,0.0,0.0,0.0,0.0,0.0,0.0,0.0,0.0,0.0,0.0,0.0,0.0,0.0,0.0,0.0,0.0,0.0,0.0,0.0,0.0,0.0,0.0,0.0,0.0,0.0,0.0,0.0,0.0,0.0,0.0,0.0,0.0,0.0,0.0,0.0,0.0,0.0,0.0,0.0,0.0,0.0,0.0,0.0,0.0,0.0,-1.1755,-1.1746,-1.1223,-1.08,-1.0588,0.0,0.0,0.0,0.0,0.0,0.0,0.0,0.0,0.0,0.0,0.0,0.0,0.0,0.0,0.0,0.0,0.0,0.0,0.0,0.0,0.0,0.0,0.0,0.0,0.0,0.0,0.0,0.0,0.0,0.0,0.0,0.0,0.0,0.0,0.0,0.0,0.0,0.0,0.0,0.0,0.0,0.0,0.0,0.0,0.0,0.0,0.0,0.0,0.0,0.0,0.0,0.0,0.0,0.0,0.0,0.0,0.0,0.0,0.0,0.0,0.0,0.0,0.0,0.0,0.0,0.0,0.0,0.0,0.0,0.0,0.0,0.0,0.0,0.0,0.0,0.0,0.0,0.0,0.0,0.0,0.0,0.0,0.0,0.0,0.0,0.0,0.0,0.0,0.0,0.0,0.0,0.0,0.0,0.0,0.0,0.0,0.0,0.0,0.0,0.0,0.0,0.0,0.0,0.0,0.0,0.0,0.0,0.0,0.0,0.0,0.0,0.0,-1.1315,-1.0855,-1.0487,0.0,0.0,0.0,0.0,0.0,0.0,0.0,0.0,0.0,0.0,0.0,0.0,0.0,0.0,0.0,0.0,0.0,0.0,0.0,0.0,0.0,0.0,0.0,0.0,0.0,0.0,0.0,0.0,0.0,0.0,0.0,0.0,0.0,0.0,0.0,0.0,0.0,0.0,0.0,0.0,0.0,0.0,0.0,0.0,0.0,0.0,0.0,0.0,0.0,0.0,0.0,0.0,0.0,0.0,0.0,0.0,0.0,0.0,0.0,0.0,0.0,0.0,0.0,0.0,0.0,0.0,0.0,0.0,0.0,0.0,0.0,0.0,0.0,0.0,0.0,0.0,0.0,0.0,0.0,0.0,0.0,0.0,0.0,0.0,0.0,0.0,0.0,0.0,0.0,0.0,0.0,0.0,0.0,0.0,0.0,0.0,0.0,0.0,0.0,0.0,0.0,0.0,0.0,0.0,0.0,0.0,0.0,0.0,0.0,0.0,-1.1481,-1.2549,-1.1868,0.0,-1.091,0.0,0.0,0.0,0.0,0.0,0.0,0.0,0.0,0.0,0.0,0.0,0.0,0.0,0.0,0.0,0.0,0.0,0.0,0.0,0.0,0.0,0.0,0.0,0.0,0.0,0.0,0.0,0.0,0.0,0.0,0.0,0.0,0.0,0.0,0.0,0.0,0.0,0.0,0.0,0.0,0.0,0.0,0.0,0.0,0.0,0.0,0.0,0.0,0.0,0.0,0.0,0.0,0.0,0.0,0.0,0.0,0.0,0.0,0.0,0.0,0.0,0.0,0.0,0.0,0.0,0.0,0.0,0.0,0.0,0.0,0.0,0.0,0.0,0.0,0.0,0.0,0.0,0.0,0.0,0.0,0.0,0.0,0.0,0.0,0.0,0.0,0.0,0.0,0.0,0.0,0.0,0.0,0.0,0.0,0.0,0.0,0.0,0.0,0.0,0.0,0.0,0.0,0.0,0.0,0.0,0.0,0.0,0.0,0.0,0.0,-1.1509,-1.1957,-1.1416,-1.1085,0.0,0.0,0.0,0.0,0.0,0.0,0.0,0.0,0.0,0.0,0.0,0.0,0.0,0.0,0.0,0.0,0.0,0.0,0.0,0.0,0.0,0.0,0.0,0.0,0.0,0.0,0.0,0.0,0.0,0.0,0.0,0.0,0.0,0.0,0.0,0.0,0.0,0.0,0.0,0.0,0.0,0.0,0.0,0.0,0.0,0.0,0.0,0.0,0.0,0.0,0.0,0.0,0.0,0.0,0.0,0.0,0.0,0.0,0.0,0.0,0.0,0.0,0.0,0.0,0.0,0.0,0.0,0.0,0.0,0.0,0.0,0.0,0.0,0.0,0.0,0.0,0.0,0.0,0.0,0.0,0.0,0.0,0.0,0.0,0.0,0.0,0.0,0.0,0.0,0.0,0.0,0.0,0.0,0.0,0.0,0.0,0.0,0.0,0.0,0.0,0.0,0.0,0.0,0.0,0.0,0.0,0.0,0.0,0.0,0.0,-1.1269,-1.1463,-1.176,-1.1482,-1.1166,-1.0823,0.0,0.0,0.0,0.0,0.0,0.0,0.0,0.0,0.0,0.0,0.0,0.0,0.0,0.0,0.0,0.0,0.0,0.0,0.0,0.0,0.0,0.0,0.0,0.0,0.0,0.0,0.0,0.0,0.0,0.0,0.0,0.0,0.0,0.0,0.0,0.0,0.0,0.0,0.0,0.0,0.0,0.0,0.0,0.0,0.0,0.0,0.0,0.0,0.0,0.0,0.0,0.0,0.0,0.0,0.0,0.0,0.0,0.0,0.0,0.0,0.0,0.0,0.0,0.0,0.0,0.0,0.0,0.0,0.0,0.0,0.0,0.0,0.0,0.0,0.0,0.0,0.0,0.0,0.0,0.0,0.0,0.0,0.0,0.0,0.0,0.0,0.0,0.0,0.0,0.0,0.0,0.0,0.0,0.0,0.0,0.0,0.0,0.0,0.0,0.0,0.0,0.0,0.0,0.0,0.0,0.0,0.0,0.0,-1.2424,-1.1509,-1.1435,-1.2444,-1.2434,-1.1864,0.0,0.0,0.0,0.0,0.0,0.0,0.0,0.0,0.0,0.0,0.0,0.0,0.0,0.0,0.0,0.0,0.0,0.0,0.0,0.0,0.0,0.0,0.0,0.0,0.0,0.0,0.0,0.0,0.0,0.0,0.0,0.0,0.0,0.0,0.0,0.0,0.0,0.0,0.0,0.0,0.0,0.0,0.0,0.0,0.0,0.0,0.0,0.0,0.0,0.0,0.0,0.0,0.0,0.0,0.0,0.0,0.0,0.0,0.0,0.0,0.0,0.0,0.0,0.0,0.0,0.0,0.0,0.0,0.0,0.0,0.0,0.0,0.0,0.0,0.0,0.0,0.0,0.0,0.0,0.0,0.0,0.0,0.0,0.0,0.0,0.0,0.0,0.0,0.0,0.0,0.0,0.0,0.0,0.0,0.0,0.0,0.0,0.0,0.0,0.0,0.0,0.0,0.0,0.0,0.0,0.0,0.0,0.0,0.0,-1.0719,-1.0997,-1.2004,-1.3596,-1.2381,-1.1685,0.0,0.0,0.0,0.0,0.0,0.0,0.0,0.0,0.0,0.0,0.0,0.0,0.0,0.0,0.0,0.0,0.0,0.0,0.0,0.0,0.0,0.0,0.0,0.0,0.0,0.0,0.0,0.0,0.0,0.0,0.0,0.0,0.0,0.0,0.0,0.0,0.0,0.0,0.0,0.0,0.0,0.0,0.0,0.0,0.0,0.0,0.0,0.0,0.0,0.0,0.0,0.0,0.0,0.0,0.0,0.0,0.0,0.0,0.0,0.0,0.0,0.0,0.0,0.0,0.0,0.0,0.0,0.0,0.0,0.0,0.0,0.0,0.0,0.0,0.0,0.0,0.0,0.0,0.0,0.0,0.0,0.0,0.0,0.0,0.0,0.0,0.0,0.0,0.0,0.0,0.0,0.0,0.0,0.0,0.0,0.0,0.0,0.0,0.0,0.0,0.0,0.0,0.0,0.0,0.0,0.0,0.0,0.0,0.0,-1.0667,0.0,-1.3074,-1.4043,-1.2589,-1.1671,0.0,0.0,0.0,0.0,0.0,0.0,0.0,0.0,0.0,0.0,0.0,0.0,0.0,0.0,0.0,0.0,0.0,0.0,0.0,0.0,0.0,0.0,0.0,0.0,0.0,0.0,0.0,0.0,0.0,0.0,0.0,0.0,0.0,0.0,0.0,0.0,0.0,0.0,0.0,0.0,0.0,0.0,0.0,0.0,0.0,0.0,0.0,0.0,0.0,0.0,0.0,0.0,0.0,0.0,0.0,0.0,0.0,0.0,0.0,0.0,0.0,0.0,0.0,0.0,0.0,0.0,0.0,0.0,0.0,0.0,0.0,0.0,0.0,0.0,0.0,0.0,0.0,0.0,0.0,0.0,0.0,0.0,0.0,0.0,0.0,0.0,0.0,0.0,0.0,0.0,0.0,0.0,0.0,0.0,0.0,0.0,0.0,0.0,0.0,0.0,0.0,0.0,0.0,0.0,0.0,0.0,0.0,0.0,-1.0272,-1.2638,-1.4195,-1.4539,-1.3757,-1.318,-1.1902,0.0,0.0,0.0,0.0,0.0,0.0,0.0,0.0,0.0,0.0,0.0,0.0,0.0,0.0,0.0,0.0,0.0,0.0,0.0,0.0,0.0,0.0,0.0,0.0,0.0,0.0,0.0,0.0,0.0,0.0,0.0,0.0,0.0,0.0,0.0,0.0,0.0,0.0,0.0,0.0,0.0,0.0,0.0,0.0,0.0,0.0,0.0,0.0,0.0,0.0,0.0,0.0,0.0,0.0,0.0,0.0,0.0,0.0,0.0,0.0,0.0,0.0,0.0,0.0,0.0,0.0,0.0,0.0,0.0,0.0,0.0,0.0,0.0,0.0,0.0,0.0,0.0,0.0,0.0,0.0,0.0,0.0,0.0,0.0,0.0,0.0,0.0,0.0,0.0,0.0,0.0,0.0,0.0,0.0,0.0,0.0,0.0,0.0,0.0,0.0,0.0,0.0,0.0,0.0,0.0,0.0,0.0,0.0,0.0,-1.1804,-1.3093,-1.4227,-1.501,-1.3087,-1.2208,0.0,0.0,0.0,0.0,0.0,0.0,0.0,0.0,0.0,0.0,0.0,0.0,0.0,0.0,0.0,0.0,0.0,0.0,0.0,0.0,0.0,0.0,0.0,0.0,0.0,0.0,0.0,0.0,0.0,0.0,0.0,0.0,0.0,0.0,0.0,0.0,0.0,0.0,0.0,0.0,0.0,0.0,0.0,0.0,0.0,0.0,0.0,0.0,0.0,0.0,0.0,0.0,0.0,0.0,0.0,0.0,0.0,0.0,0.0,0.0,0.0,0.0,0.0,0.0,0.0,0.0,0.0,0.0,0.0,0.0,0.0,0.0,0.0,0.0,0.0,0.0,0.0,0.0,0.0,0.0,0.0,0.0,0.0,0.0,0.0,0.0,0.0,0.0,0.0,0.0,0.0,0.0,0.0,0.0,0.0,0.0,0.0,0.0,0.0,0.0,0.0,0.0,0.0,0.0,0.0,0.0,0.0,0.0,0.0,-1.2691,-1.4142,-1.5232,-1.5774,-1.3903,-1.2944,-1.3108,0.0,0.0,0.0,0.0,0.0,0.0,0.0,0.0,0.0,0.0,0.0,0.0,0.0,0.0,0.0,0.0,0.0,0.0,0.0,0.0,0.0,0.0,0.0,0.0,0.0,0.0,0.0,0.0,0.0,0.0,0.0,0.0,0.0,0.0,0.0,0.0,0.0,0.0,0.0,0.0,0.0,0.0,0.0,0.0,0.0,0.0,0.0,0.0,0.0,0.0,0.0,0.0,0.0,0.0,0.0,0.0,0.0,0.0,0.0,0.0,0.0,0.0,0.0,0.0,0.0,0.0,0.0,0.0,0.0,0.0,0.0,0.0,0.0,0.0,0.0,0.0,0.0,0.0,0.0,0.0,0.0,0.0,0.0,0.0,0.0,0.0,0.0,0.0,0.0,0.0,0.0,0.0,0.0,0.0,0.0,0.0,0.0,0.0,0.0,0.0,0.0,0.0,0.0,0.0,0.0,0.0,0.0,0.0,-1.4973,-1.7059,-1.7464,-1.6014,-1.5443,-1.4022,0.0,0.0,0.0,0.0,0.0,0.0,0.0,0.0,0.0,0.0,0.0,0.0,0.0,0.0,0.0,0.0,0.0,0.0,0.0,0.0,0.0,0.0,0.0,0.0,0.0,0.0,0.0,0.0,0.0,0.0,0.0,0.0,0.0,0.0,0.0,0.0,0.0,0.0,0.0,0.0,0.0,0.0,0.0,0.0,0.0,0.0,0.0,0.0,0.0,0.0,0.0,0.0,0.0,0.0,0.0,0.0,0.0,0.0,0.0,0.0,0.0,0.0,0.0,0.0,0.0,0.0,0.0,0.0,0.0,0.0,0.0,0.0,0.0,0.0,0.0,0.0,0.0,0.0,0.0,0.0,0.0,0.0,0.0,0.0,0.0,0.0,0.0,0.0,0.0,0.0,0.0,0.0,0.0,0.0,0.0,0.0,0.0,0.0,0.0,0.0,0.0,0.0,0.0,0.0,0.0,0.0,0.0,0.0,0.0,-1.7221,-1.9113,-1.9419,-1.7977,-1.6459,-1.5083,0.0,0.0,0.0,0.0,0.0,0.0,0.0,0.0,0.0,0.0,0.0,0.0,0.0,0.0,0.0,0.0,0.0,0.0,0.0,0.0,0.0,0.0,0.0,0.0,0.0,0.0,0.0,0.0,0.0,0.0,0.0,0.0,0.0,0.0,0.0,0.0,0.0,0.0,0.0,0.0,0.0,0.0,0.0,0.0,0.0,0.0,0.0,0.0,0.0,0.0,0.0,0.0,0.0,0.0,0.0,0.0,0.0,0.0,0.0,0.0,0.0,0.0,0.0,0.0,0.0,0.0,0.0,0.0,0.0,0.0,0.0,0.0,0.0,0.0,0.0,0.0,0.0,0.0,0.0,0.0,0.0,0.0,0.0,0.0,0.0,0.0,0.0,0.0,0.0,0.0,0.0,0.0,0.0,0.0,0.0,0.0,0.0,0.0,0.0,0.0,0.0,0.0,0.0,0.0,0.0,0.0,0.0,0.0,-1.6626,-1.8701,-2.0517,-2.097,-1.9932,-1.8447,-1.6732,0.0,0.0,0.0,0.0,0.0,0.0,0.0,0.0,0.0,0.0,0.0,0.0,0.0,0.0,0.0,0.0,0.0,0.0,0.0,0.0,0.0,0.0,0.0,0.0,0.0,0.0,0.0,0.0,0.0,0.0,0.0,0.0,0.0,0.0,0.0,0.0,0.0,0.0,0.0,0.0,0.0,0.0,0.0,0.0,0.0,0.0,0.0,0.0,0.0,0.0,0.0,0.0,0.0,0.0,0.0,0.0,0.0,0.0,0.0,0.0,0.0,0.0,0.0,0.0,0.0,0.0,0.0,0.0,0.0,0.0,0.0,0.0,0.0,0.0,0.0,0.0,0.0,0.0,0.0,0.0,0.0,0.0,0.0,0.0,0.0,0.0,0.0,0.0,0.0,0.0,0.0,0.0,0.0,0.0,0.0,0.0,0.0,0.0,0.0,0.0,0.0,0.0,0.0,0.0,0.0,0.0,0.0,0.0,-1.7185,-1.9515,-2.1426,-2.216,-2.1658,-2.0631,-1.8436,0.0,0.0,0.0,0.0,0.0,0.0,0.0,0.0,0.0,0.0,0.0,0.0,0.0,0.0,0.0,0.0,0.0,0.0,0.0,0.0,0.0,0.0,0.0,0.0,0.0,0.0,0.0,0.0,0.0,0.0,0.0,0.0,0.0,0.0,0.0,0.0,0.0,0.0,0.0,0.0,0.0,0.0,0.0,0.0,0.0,0.0,0.0,0.0,0.0,0.0,0.0,0.0,0.0,0.0,0.0,0.0,0.0,0.0,0.0,0.0,0.0,0.0,0.0,0.0,0.0,0.0,0.0,0.0,0.0,0.0,0.0,0.0,0.0,0.0,0.0,0.0,0.0,0.0,0.0,0.0,0.0,0.0,0.0,0.0,0.0,0.0,0.0,0.0,0.0,0.0,0.0,0.0,0.0,0.0,0.0,0.0,0.0,0.0,0.0,0.0,0.0,0.0,0.0,0.0,0.0,0.0,0.0,0.0,-1.8011,-1.9493,-2.1736,-2.2641,-2.2171,-2.0478,-1.8392,0.0,0.0,0.0,0.0,0.0,0.0,0.0,0.0,0.0,0.0,0.0,0.0,0.0,0.0,0.0,0.0,0.0,0.0,0.0,0.0,0.0,0.0,0.0,0.0,0.0,0.0,0.0,0.0,0.0,0.0,0.0,0.0,0.0,0.0,0.0,0.0,0.0,0.0,0.0,0.0,0.0,0.0,0.0,0.0,0.0,0.0,0.0,0.0,-0.8205,0.0,0.0,0.0,0.0,0.0,0.0,0.0,0.0,0.0,0.0,0.0,0.0,0.0,0.0,0.0,0.0,0.0,0.0,0.0,0.0,0.0,0.0,0.0,0.0,0.0,0.0,0.0,0.0,0.0,0.0,0.0,0.0,0.0,0.0,0.0,0.0,0.0,0.0,0.0,0.0,0.0,0.0,0.0,0.0,0.0,0.0,0.0,0.0,0.0,0.0,0.0,0.0,0.0,0.0,0.0,0.0,0.0,0.0,0.0,-1.835,-1.99,-2.1881,-2.2733,-2.2451,-2.0913,-1.9127,0.0,0.0,0.0,0.0,0.0,0.0,0.0,0.0,0.0,0.0,0.0,0.0,0.0,0.0,0.0,0.0,0.0,0.0,0.0,0.0,0.0,0.0,0.0,0.0,0.0,0.0,0.0,0.0,0.0,0.0,0.0,0.0,0.0,0.0,0.0,0.0,0.0,0.0,0.0,0.0,0.0,0.0,0.0,0.0,0.0,0.0,0.0,0.0,0.0,0.0,0.0,0.0,0.0,0.0,0.0,0.0,0.0,0.0,0.0,0.0,0.0,0.0,0.0,0.0,0.0,0.0,0.0,0.0,0.0,0.0,0.0,0.0,0.0,0.0,0.0,0.0,0.0,0.0,0.0,0.0,0.0,0.0,0.0,0.0,0.0,0.0,0.0,0.0,0.0,0.0,0.0,0.0,0.0,0.0,0.0,0.0,0.0,0.0,0.0,0.0,0.0,0.0,0.0,0.0,0.0,0.0,0.0,-1.6271,-1.8315,-2.0188,-2.1838,-2.2703,-2.2756,-2.1609,-1.9933,-1.7809,0.0,0.0,0.0,0.0,0.0,0.0,0.0,0.0,0.0,0.0,0.0,0.0,0.0,0.0,0.0,0.0,0.0,0.0,0.0,0.0,0.0,0.0,0.0,0.0,0.0,0.0,0.0,0.0,0.0,0.0,0.0,0.0,0.0,0.0,0.0,0.0,0.0,0.0,-0.7487,-0.8406,0.0,0.0,0.0,0.0,0.0,0.0,0.0,0.0,-0.7366,0.0,0.0,0.0,0.0,0.0,0.0,0.0,0.0,0.0,0.0,0.0,0.0,0.0,0.0,0.0,0.0,0.0,0.0,0.0,0.0,0.0,0.0,0.0,0.0,0.0,0.0,0.0,0.0,0.0,0.0,0.0,0.0,0.0,0.0,0.0,0.0,0.0,0.0,0.0,0.0,0.0,0.0,0.0,0.0,0.0,0.0,0.0,0.0,0.0,0.0,0.0,0.0,0.0,0.0,0.0,0.0,-1.4069,-1.6021,-1.7877,-1.9533,-2.1603,-2.2777,-2.2905,-2.1854,-2.0299,-1.8269,0.0,0.0,0.0,0.0,0.0,0.0,0.0,0.0,0.0,0.0,0.0,0.0,0.0,0.0,0.0,0.0,0.0,0.0,0.0,0.0,0.0,0.0,0.0,0.0,0.0,0.0,0.0,0.0,0.0,0.0,0.0,0.0,0.0,0.0,0.0,0.0,0.0,0.0,0.0,-0.966,-1.0142,0.0,0.0,0.0,0.0,0.0,0.0,0.0,0.0,-0.7311,0.0,0.0,0.0,0.0,0.0,0.0,0.0,0.0,0.0,0.0,0.0,0.0,0.0,0.0,0.0,0.0,0.0,0.0,0.0,0.0,0.0,0.0,0.0,0.0,0.0,0.0,0.0,0.0,0.0,0.0,0.0,0.0,0.0,0.0,0.0,0.0,0.0,0.0,0.0,0.0,0.0,0.0,0.0,0.0,0.0,0.0,0.0,0.0,0.0,0.0,0.0,0.0,0.0,0.0,0.0,-1.3803,-1.6347,-1.8216,-1.939,-2.1349,-2.2285,-2.2167,-2.1032,-1.9585,0.0,0.0,0.0,0.0,0.0,0.0,0.0,0.0,0.0,0.0,0.0,0.0,0.0,0.0,0.0,0.0,0.0,0.0,0.0,0.0,0.0,0.0,0.0,0.0,0.0,0.0,0.0,0.0,0.0,0.0,0.0,0.0,0.0,0.0,0.0,0.0,0.0,0.0,0.0,0.0,-1.0035,-1.0332,-0.9941,0.0,0.0,0.0,0.0,0.0,0.0,-0.7905,-0.7867,0.0,0.0,0.0,0.0,0.0,0.0,0.0,0.0,0.0,0.0,0.0,0.0,0.0,0.0,0.0,0.0,0.0,0.0,0.0,0.0,0.0,0.0,0.0,0.0,0.0,0.0,0.0,0.0,0.0,0.0,0.0,0.0,0.0,0.0,0.0,0.0,0.0,0.0,0.0,0.0,0.0,0.0,0.0,0.0,0.0,0.0,0.0,0.0,0.0,0.0,0.0,0.0,0.0,0.0,0.0,-1.3627,-1.6298,-1.8293,-1.9367,-2.1001,-2.172,-2.1471,-2.0366,-1.8913,0.0,0.0,0.0,0.0,0.0,0.0,0.0,0.0,0.0,0.0,0.0,0.0,0.0,0.0,0.0,0.0,0.0,0.0,0.0,0.0,0.0,0.0,0.0,0.0,0.0,0.0,0.0,0.0,0.0,0.0,0.0,0.0,0.0,0.0,0.0,0.0,0.0,0.0,0.0,0.0,0.0,-1.0617,-1.0059,-1.0161,0.0,0.0,0.0,0.0,-0.9292,-0.935,0.0,0.0,0.0,0.0,0.0,0.0,0.0,0.0,0.0,0.0,0.0,0.0,0.0,0.0,0.0,0.0,0.0,0.0,0.0,0.0,0.0,0.0,0.0,0.0,0.0,0.0,0.0,0.0,0.0,0.0,0.0,0.0,0.0,0.0,0.0,0.0,0.0,0.0,0.0,0.0,0.0,0.0,0.0,0.0,0.0,0.0,0.0,0.0,0.0,0.0,0.0,0.0,0.0,0.0,0.0,0.0,-1.3587,-1.5307,-1.7295,-1.9427,-2.045,-2.1181,-2.1617,-2.0603,-1.9175,0.0,0.0,0.0,0.0,0.0,0.0,0.0,0.0,0.0,0.0,0.0,0.0,0.0,0.0,0.0,0.0,0.0,0.0,0.0,0.0,0.0,0.0,0.0,0.0,0.0,0.0,0.0,0.0,0.0,0.0,0.0,0.0,0.0,0.0,0.0,0.0,0.0,0.0,0.0,0.0,0.0,-1.1487,-1.0602,-1.0571,-1.0652,0.0,0.0,-1.0654,-1.1212,-1.1459,0.0,0.0,0.0,0.0,0.0,0.0,0.0,0.0,0.0,0.0,0.0,0.0,0.0,0.0,0.0,0.0,0.0,0.0,0.0,0.0,0.0,0.0,0.0,0.0,0.0,0.0,0.0,0.0,0.0,0.0,0.0,0.0,0.0,0.0,0.0,0.0,0.0,0.0,0.0,0.0,0.0,0.0,0.0,0.0,0.0,0.0,0.0,0.0,0.0,0.0,0.0,0.0,0.0,0.0,0.0,-1.1892,-1.3619,-1.5513,-1.7446,-1.9376,-2.0216,-2.0747,-2.0958,-1.9787,-1.8249,0.0,0.0,0.0,0.0,0.0,0.0,0.0,0.0,0.0,0.0,0.0,0.0,0.0,0.0,0.0,0.0,0.0,0.0,0.0,0.0,0.0,0.0,0.0,0.0,0.0,0.0,0.0,0.0,0.0,0.0,0.0,0.0,0.0,0.0,0.0,0.0,0.0,0.0,0.0,0.0,0.0,0.0,-1.1465,-1.1567,0.0,0.0,0.0,-1.1696,-1.2527,0.0,0.0,0.0,0.0,0.0,0.0,0.0,0.0,0.0,0.0,0.0,0.0,0.0,0.0,0.0,0.0,0.0,0.0,0.0,0.0,0.0,0.0,0.0,0.0,0.0,0.0,0.0,0.0,0.0,0.0,0.0,0.0,0.0,0.0,0.0,0.0,0.0,0.0,0.0,0.0,0.0,0.0,0.0,0.0,0.0,0.0,0.0,0.0,0.0,0.0,0.0,0.0,0.0,0.0,0.0,0.0,0.0,-1.3576,-1.5624,-1.7406,-1.8912,-1.9737,-2.0203,-2.0073,-1.9065,0.0,0.0,0.0,0.0,0.0,0.0,0.0,0.0,0.0,0.0,0.0,0.0,0.0,0.0,0.0,0.0,0.0,0.0,0.0,0.0,0.0,0.0,0.0,0.0,0.0,0.0,0.0,-0.5019,0.0,0.0,0.0,0.0,0.0,0.0,0.0,0.0,0.0,0.0,0.0,0.0,0.0,0.0,-1.2021,-1.1817,-1.2158,-1.2303,0.0,0.0,-1.2123,-1.2998,-1.2593,-1.1796,0.0,0.0,0.0,0.0,0.0,0.0,0.0,0.0,0.0,0.0,0.0,0.0,0.0,0.0,0.0,0.0,0.0,0.0,0.0,0.0,0.0,0.0,0.0,0.0,0.0,0.0,0.0,0.0,0.0,0.0,0.0,0.0,0.0,0.0,0.0,0.0,0.0,0.0,0.0,0.0,0.0,0.0,0.0,0.0,0.0,0.0,0.0,0.0,0.0,0.0,0.0,0.0,0.0,0.0,-1.221,-1.3568,-1.504,-1.6554,-1.8043,-1.8939,-1.9352,-1.9277,-1.9168,-1.7978,0.0,0.0,0.0,0.0,0.0,0.0,0.0,0.0,0.0,0.0,0.0,0.0,0.0,0.0,0.0,0.0,0.0,0.0,0.0,0.0,0.0,0.0,0.0,0.0,0.0,0.0,0.0,0.0,0.0,0.0,0.0,0.0,0.0,0.0,0.0,0.0,0.0,0.0,0.0,0.0,0.0,-1.2137,-1.1383,-1.1786,-1.2039,0.0,-1.1403,-1.142,-1.1996,-1.2413,-1.1879,-0.9777,0.0,0.0,0.0,0.0,0.0,0.0,0.0,0.0,0.0,0.0,0.0,0.0,0.0,0.0,0.0,0.0,0.0,0.0,0.0,0.0,0.0,0.0,0.0,0.0,0.0,0.0,0.0,0.0,0.0,0.0,0.0,0.0,0.0,0.0,0.0,0.0,0.0,0.0,0.0,0.0,0.0,0.0,0.0,0.0,0.0,0.0,0.0,0.0,0.0,0.0,0.0,0.0,0.0,-1.2409,-1.3576,-1.5181,-1.6626,-1.7971,-1.8318,-1.8608,-1.8854,-1.8318,-1.7025,0.0,0.0,0.0,0.0,0.0,0.0,0.0,0.0,0.0,0.0,0.0,0.0,0.0,0.0,0.0,0.0,0.0,0.0,0.0,0.0,0.0,0.0,0.0,0.0,0.0,0.0,0.0,0.0,-0.7409,-0.7782,-0.787,0.0,0.0,0.0,0.0,0.0,0.0,0.0,0.0,0.0,0.0,-1.2499,-1.281,-1.251,0.0,0.0,-1.1916,-1.1863,-1.2386,-1.192,-1.1198,-1.0083,-0.9319,0.0,0.0,0.0,0.0,0.0,0.0,0.0,0.0,0.0,0.0,0.0,0.0,0.0,0.0,0.0,0.0,0.0,0.0,0.0,0.0,0.0,0.0,0.0,0.0,0.0,0.0,0.0,0.0,0.0,0.0,0.0,0.0,0.0,0.0,0.0,0.0,0.0,0.0,0.0,0.0,0.0,0.0,0.0,0.0,0.0,0.0,0.0,0.0,0.0,0.0,0.0,0.0,-1.2458,-1.3263,-1.5217,-1.6685,-1.7594,-1.7836,-1.8065,-1.8225,-1.7678,-1.6442,0.0,0.0,0.0,0.0,0.0,0.0,0.0,0.0,0.0,0.0,0.0,0.0,0.0,0.0,0.0,0.0,0.0,0.0,0.0,0.0,0.0,0.0,0.0,0.0,0.0,0.0,0.0,0.0,-0.8222,-0.8325,-0.8052,0.0,0.0,0.0,0.0,0.0,0.0,0.0,0.0,0.0,0.0,-1.3253,-1.3529,-1.3016,-1.2377,-1.195,-1.1505,-1.1461,-1.1792,-1.118,-1.0351,-0.9811,0.0,0.0,0.0,0.0,0.0,0.0,0.0,0.0,0.0,0.0,0.0,0.0,0.0,0.0,0.0,0.0,0.0,0.0,0.0,0.0,0.0,0.0,0.0,0.0,0.0,0.0,0.0,-0.5392,0.0,0.0,-0.5744,0.0,0.0,0.0,0.0,0.0,0.0,0.0,0.0,0.0,0.0,0.0,0.0,0.0,0.0,0.0,0.0,0.0,0.0,0.0,0.0,0.0,0.0,-1.2258,-1.2639,-1.4976,-1.6389,-1.673,-1.7521,-1.7738,-1.7363,-1.7382,-1.6578,-1.4826,0.0,0.0,0.0,0.0,0.0,0.0,0.0,0.0,0.0,0.0,0.0,0.0,0.0,0.0,0.0,0.0,0.0,0.0,0.0,0.0,0.0,0.0,0.0,0.0,0.0,0.0,-0.8333,-0.8283,-0.7968,0.0,0.0,0.0,0.0,0.0,0.0,0.0,0.0,0.0,-1.284,-1.403,-1.4295,-1.2996,-1.2997,-1.248,-1.0721,-1.0014,-0.9814,-1.0106,-1.0091,-0.9657,0.0,0.0,0.0,0.0,0.0,0.0,0.0,0.0,0.0,0.0,0.0,0.0,0.0,0.0,0.0,0.0,0.0,0.0,0.0,0.0,0.0,0.0,0.0,0.0,0.0,0.0,0.0,-0.644,-0.6188,0.0,0.0,0.0,0.0,0.0,0.0,0.0,0.0,0.0,0.0,0.0,-1.0592,-1.0864,0.0,0.0,0.0,0.0,0.0,0.0,0.0,0.0,0.0,0.0,0.0,0.0,-1.2856,-1.3149,-1.5335,-1.655,-1.6682,-1.699,-1.7066,-1.6863,-1.6715,-1.5805,-1.4031,0.0,0.0,0.0,0.0,0.0,0.0,0.0,0.0,0.0,0.0,0.0,0.0,0.0,0.0,0.0,0.0,0.0,0.0,0.0,0.0,0.0,0.0,0.0,0.0,0.0,-0.829,0.0,0.0,0.0,0.0,0.0,0.0,0.0,0.0,0.0,0.0,-1.1619,-1.284,-1.4121,-1.462,-1.4764,-1.4417,-1.351,-1.2604,0.0,0.0,0.0,0.0,0.0,0.0,0.0,0.0,0.0,0.0,0.0,0.0,0.0,-0.9648,-0.945,-0.8051,-0.717,-0.6701,-0.6981,0.0,0.0,0.0,0.0,0.0,0.0,0.0,0.0,0.0,0.0,0.0,0.0,0.0,0.0,-0.821,-0.7989,-0.8254,0.0,0.0,0.0,0.0,0.0,0.0,0.0,0.0,-1.1081,-1.1703,-1.1956,-1.2216,-1.2258,0.0,-1.2479,-1.2137,0.0,0.0,0.0,0.0,0.0,0.0,0.0,0.0,-1.3533,-1.4068,-1.6038,-1.7107,-1.7211,-1.7004,-1.6921,-1.6913,-1.6333,-1.5372,-1.3997,-1.2949,-1.2139,0.0,0.0,0.0,0.0,0.0,0.0,0.0,0.0,0.0,0.0,0.0,0.0,0.0,0.0,0.0,0.0,0.0,0.0,0.0,0.0,0.0,0.0,0.0,-0.8941,0.0,0.0,0.0,0.0,0.0,0.0,0.0,0.0,0.0,-1.2087,-1.3111,-1.4282,-1.5452,-1.5606,-1.544,-1.4883,0.0,0.0,0.0,0.0,0.0,0.0,0.0,-0.9549,-0.9675,-0.9475,-0.9337,-0.9271,-0.9949,-1.0428,-1.0059,0.0,0.0,-0.8752,-0.8392,-0.8269,-0.794,-0.8607,-0.8937,-0.8388,-0.8507,-0.8718,0.0,0.0,0.0,0.0,0.0,0.0,0.0,0.0,-0.9283,-1.0022,0.0,-1.0203,0.0,0.0,0.0,0.0,-0.8555,-1.0544,0.0,0.0,-1.3103,-1.3755,-1.3507,-1.3272,-1.328,-1.3553,-1.4685,-1.4771,-1.3872,-1.1796,0.0,0.0,0.0,0.0,0.0,0.0,-1.425,-1.5367,-1.6913,-1.7874,-1.8088,-1.7571,-1.7294,-1.727,-1.6293,-1.5427,-1.4664,-1.4347,-1.368,-1.2663,-1.1622,0.0,0.0,0.0,0.0,0.0,0.0,0.0,0.0,0.0,0.0,0.0,0.0,0.0,0.0,0.0,0.0,0.0,0.0,0.0,0.0,-1.0436,0.0,0.0,0.0,0.0,0.0,0.0,0.0,0.0,0.0,-1.4055,-1.4092,-1.4874,-1.5804,-1.6711,0.0,0.0,0.0,0.0,-1.3269,-1.112,-1.0548,-1.0343,-1.0343,-1.037,-1.0283,-0.9935,0.0,0.0,-1.0007,-1.0676,-1.0981,-0.9953,-1.0267,-1.0655,-1.0556,-1.0118,-0.9762,-0.9448,-0.9745,-0.992,-0.932,-0.9449,-0.9685,-0.7004,0.0,0.0,0.0,0.0,-0.7519,-0.8458,-0.9548,-1.0863,-1.1402,-1.131,-1.1735,0.0,0.0,0.0,0.0,0.0,0.0,-1.1938,-1.2674,-1.3139,-1.3604,-1.4063,-1.3996,-1.3914,-1.3841,-1.4952,-1.5217,-1.4788,-1.4637,-1.3505,-1.1463,0.0,0.0,0.0,0.0,-1.551,-1.6351,-1.7296,-1.789,-1.8128,-1.7803,-1.7636,-1.7628,-1.7104,-1.6603,-1.615,-1.5554,-1.4855,-1.4069,-1.306,0.0,0.0,0.0,0.0,0.0,0.0,0.0,0.0,0.0,0.0,0.0,0.0,0.0,0.0,0.0,0.0,0.0,0.0,0.0,-0.9653,-0.9577,-0.9518,0.0,0.0,0.0,0.0,0.0,0.0,0.0,0.0,0.0,-1.6206,-1.6206,-1.6279,0.0,0.0,-1.7102,-1.6448,-1.528,-1.4296,-1.3918,-1.2396,0.0,-1.1378,-1.1138,-1.0984,-1.0947,-1.12,-1.1259,-1.0728,-1.1035,-1.1324,-1.0984,-1.1025,-1.1011,-1.1044,-1.0522,-1.0045,-0.9705,-1.0234,-1.0706,-1.0355,-1.0517,-1.0757,-0.8075,-0.756,-0.7204,-0.719,-0.7492,-0.8276,-0.9337,-1.06,-1.1945,-1.2601,-1.2806,-1.33,-1.2819,-1.1661,-1.1443,0.0,0.0,0.0,-1.2934,-1.3755,-1.3863,-1.4165,-1.4594,-1.4515,-1.4322,-1.4157,-1.5002,-1.5554,-1.5735,-1.6279,-1.5662,-1.395,0.0,-1.4077,-1.3914,-1.5324,-1.6451,-1.7141,-1.7834,-1.8287,-1.8387,-1.8152,-1.7914,-1.7771,-1.758,-1.7374,-1.7151,-1.673,-1.6182,-1.5491,-1.4609,-1.3418,0.0,0.0,0.0,0.0,0.0,0.0,0.0,0.0,0.0,0.0,0.0,-0.8309,-0.7249,0.0,0.0,0.0,-0.8962,-1.0162,-1.0416,-1.0657,0.0,0.0,0.0,0.0,0.0,0.0,0.0,-1.5577,-1.6231,-1.6843,-1.7559,-1.7384,-1.7252,-1.7582,-1.7677,-1.7522,-1.7124,0.0,-1.4689,-1.4546,-1.2936,-1.1817,-1.1813,-1.1587,-1.1424,-1.138,-1.1324,-1.1332,-1.1296,-1.1384,-1.1519,-1.1309,-1.1269,-1.122,-1.122,-1.0867,-1.0554,-1.0222,-1.0672,-1.1123,-1.1019,-1.1074,-1.122,-0.8937,-0.8869,-0.8048,-0.7784,-0.8007,-0.913,-1.038,-1.1548,-1.2576,-1.3574,-1.4582,-1.4576,-1.413,-1.326,-1.2759,0.0,-1.2958,-1.3676,-1.4274,-1.4781,-1.501,-1.5113,-1.5101,-1.4859,-1.4612,-1.4364,-1.5198,-1.5947,-1.6595,-1.7139,-1.7155,-1.6814,-1.5952,-1.557,-1.5793,-1.6492,-1.7191,-1.785,-1.8494,-1.8827,-1.8819,-1.851,-1.8184,-1.7866,-1.7795,-1.7763,-1.7763,-1.7715,-1.7397,-1.6754,-1.6087,-1.5235,-1.413,0.0,0.0,0.0,0.0,0.0,0.0,0.0,0.0,0.0,0.0,0.0,0.0,0.0,0.0,-0.7578,-1.061,0.0,-1.2397,-1.2983,0.0,0.0,0.0,-1.3821,-1.4275,-1.5606,-1.6608,-1.693,0.0,0.0,-1.8379,-1.8423,-1.8569,-1.8862,-1.8562,-1.8009,-1.712,-1.591,-1.4802,-1.394,-1.2698,-1.1879,-1.1959,-1.1894,-1.1697,-1.1338,-1.1322,-1.1481,-1.1617,-1.1693,-1.1586,-1.1244,-1.1252,-1.1277,-1.1269,-1.1261,-1.1265,-1.1121,-1.1236,-1.1364,-1.136,-1.1388,-1.1301,-0.8937,-0.8923,-0.871,-0.8642,-0.8776,-0.9869,-1.0654,-1.1014,-1.2084,-1.3056,-1.4045,-1.4051,-1.423,-1.463,-1.4497,-1.4588,-1.4835,-1.4823,-1.4998,-1.5294,-1.5173,-1.5113,-1.5107,-1.504,-1.498,-1.5002,-1.6071,-1.6732,-1.6917,-1.7938,-1.8391,-1.8327,-1.8081,-1.7469,-1.6555,-1.7445,-1.8136,-1.8581,-1.874,-1.8827,-1.8827,-1.8748,-1.8669,-1.8581,-1.8049,-1.7763,-1.7755,-1.7254,-1.6905,-1.673,-1.6317,-1.6029,-1.6033,-1.3493,0.0,0.0,0.0,0.0,0.0,0.0,0.0,0.0,0.0,-1.1233,-0.8953,0.0,-1.1071,0.0,-1.1732,-1.3761,-1.3149,-1.3512,0.0,0.0,-1.5072,-1.5584,-1.7099,-1.7391,-1.7596,-1.7918,-1.892,-1.9435,-1.9074,-1.9604,-1.9942,-1.9864,-1.8972,-1.8287,-1.821,-1.6606,-1.5341,-1.5106,-1.356,-1.2351,-1.2507,-1.2265,-1.1851,-1.1257,-1.1273,-1.129,-1.1331,-1.1458,-1.1552,-1.1439,-1.1553,-1.163,-1.1634,-1.1646,-1.1638,-1.1634,-1.1537,-1.1552,-1.1682,-1.1667,-1.1642,-0.9076,-0.9133,-0.9137,-0.9133,-0.9123,-0.965,-1.0241,-1.0781,-1.1869,-1.2939,-1.3793,-1.4328,-1.4844,-1.5451,-1.533,-1.536,-1.5481,-1.5348,-1.536,-1.5493,-1.5469,-1.539,-1.5288,-1.5282,-1.5221,-1.5101,-1.5844,-1.6361,-1.6735,-1.7741,-1.8366,-1.8504,-1.8871,-1.8597,-1.7731,-1.8247,-1.8629,-1.8827,-1.8827,-1.8827,-1.8827,-1.8827,-1.8748,-1.8589,-1.8216,-1.7858,-1.7556,-1.7175,-1.6833,-1.6516,-1.6317,-1.617,-1.6022,-1.4433,-1.3108,0.0,0.0,0.0,0.0,0.0,0.0,0.0,0.0,0.0,0.0,0.0,-1.2721,-1.1374,-1.4192,-1.5755,-1.4952,-1.5389,-1.6038,-1.6894,-1.7077,-1.7567,-1.8628,-1.8833,-1.8964,-1.9147,-1.9645,-1.9916,-1.974,-2.0141,-2.0376,-2.0237,-1.9078,-1.838,-1.8429,-1.7058,-1.5827,-1.543,-1.3925,-1.2762,-1.2909,-1.2425,-1.1949,-1.1566,-1.1346,-1.1366,-1.1451,-1.1549,-1.1622,-1.163,-1.1707,-1.1776,-1.1776,-1.1776,-1.1776,-1.1764,-1.1695,-1.1749,-1.1753,-1.1831,-1.1776,-0.938,-0.9378,-0.9381,-0.9381,-0.9361,-0.9106,-0.9539,-1.063,-1.1946,-1.3043,-1.4039,-1.5112,-1.5777,-1.5976,-1.5716,-1.5602,-1.5596,-1.5565,-1.5547,-1.5565,-1.5783,-1.5771,-1.5553,-1.5547,-1.5427,-1.5215,-1.5275,-1.565,-1.6238,-1.712,-1.776,-1.8178,-1.8946,-1.9178,-1.8978,-1.8923,-1.8875,-1.8827,-1.8827,-1.8827,-1.8827,-1.8827,-1.8661,-1.8319,-1.8216,-1.7866,-1.7247,-1.7215,-1.6929,-1.6317,-1.6357,-1.6118,-1.5483,-1.5022,-1.4347,0.0,-1.3275,0.0,0.0,0.0,0.0,0.0,0.0,0.0,0.0,-1.4556,-1.463,-1.4978,-1.6905,-1.7842,-1.7113,-1.7596,-1.8116,-1.8408,-1.9008,-1.9403,-1.9418,-1.9901,-2.0237,-2.0237,-2.0274,-2.0296,-2.0296,-2.0325,-2.0362,-2.006,-1.9237,-1.8399,-1.7981,-1.6999,-1.5927,-1.4875,-1.3883,-1.3098,-1.3025,-1.2689,-1.2177,-1.198,-1.1773,-1.1708,-1.1844,-1.1764,-1.1772,-1.1768,-1.1768,-1.1776,-1.1776,-1.1776,-1.1776,-1.1776,-1.1768,-1.176,-1.1764,-1.1764,-1.1776,-0.9596,-0.9381,-0.9381,-0.9381,-0.9378,-0.932,-0.9411,-0.9752,-1.1903,-1.3575,-1.4888,-1.6016,-1.6495,-1.6531,-1.6272,-1.6151,-1.6121,-1.591,-1.5819,-1.5819,-1.5867,-1.5867,-1.5819,-1.5813,-1.5795,-1.5728,-1.6147,-1.6343,-1.6536,-1.7109,-1.7754,-1.8483,-1.8679,-1.9046,-1.9654,0.0,0.0,0.0,-1.8827,-1.8827,-1.8827,-1.8827,-1.8661,-1.8303,-1.7763,0.0,-1.6865,-1.6841,-1.677,-1.6667,-1.7167,0.0,0.0,0.0,0.0,0.0,0.0,0.0,0.0,0.0,0.0,0.0,-1.5671,-1.4987,-1.4866,-1.5387,-1.592,-1.6515,-1.8095,-1.8797,-1.8058,-1.8567,-1.9023,-1.9103,-1.9667,-2.0055,-2.0055,-2.0172,-2.0237,-2.0245,-2.0464,-2.0633,-2.0647,-2.0852,-2.0544,-1.9704,-1.9273,-1.8346,-1.6355,-1.568,-1.5112,-1.4772,-1.3909,-1.3325,-1.3105,-1.299,-1.2825,-1.2547,-1.2307,-1.208,-1.2113,-1.1893,-1.1776,-1.1776,-1.1776,-1.1776,-1.1776,-1.1776,-1.1776,-1.1776,-1.1776,-1.1776,-1.1776,-1.1776,-1.1776,-0.9658,-0.9598,-0.9598,-0.9602,0.0,-0.9598,-0.9951,-1.065,-1.2321,-1.4065,-1.5896,-1.647,-1.67,-1.6694,-1.6567,-1.6495,-1.6483,-1.635,-1.629,-1.629,-1.629,-1.6217,-1.6085,-1.6085,-1.6012,-1.5885,-1.6169,-1.6206,-1.6311,-1.6995,-1.7354,-1.7615,-1.8017,-1.8338,-1.8678,-1.8911,-1.8972,-1.8827,-1.8827,-1.8827,-1.8827,-1.8827,-1.8661,-1.8311,-1.7962,0.0,0.0,0.0,0.0,0.0,0.0,0.0,0.0,0.0,0.0,-1.687,-1.681,-1.6632,-1.6492,-1.6877,-1.7285,-1.7766,-1.7544,-1.7011,-1.6286,-1.6996,-1.7669,-1.7888,-1.8973,-1.9471,-1.9021,-1.9479,-1.9747,-1.9769,-2.0186,-2.0472,-2.0486,-2.0625,-2.0713,-2.0728,-2.0859,-2.0962,-2.0962,-2.0509,-2.0026,-1.9325,-1.8156,-1.7097,-1.5908,-1.5375,-1.4993,-1.4417,-1.3922,-1.3542,-1.3437,-1.3255,-1.3213,-1.3102,-1.2608,-1.2238,-1.2238,-1.2005,-1.1776,-1.1776,-1.1776,-1.1776,-1.1776,-1.1776,-1.1776,-1.1776,-1.1776,-1.1776,-1.1776,-1.1776,-1.1776,-0.984,-0.9819,-0.9819,-0.9819,-0.9819,-0.9819,-1.0668,-1.2088,-1.3063,0.0,0.0,-1.6833,-1.6839,-1.6833,-1.6791,-1.6773,-1.6767,-1.6724,-1.67,-1.67,-1.67,-1.6579,-1.6356,-1.6356,-1.6247,-1.6036,-1.5982,-1.5958,-1.5952,-1.6649,-1.6931,-1.6821,-1.7421,-1.7782,-1.7689,-1.8364,-1.876,-1.8941,-1.8955,-1.8931,-1.8923,-1.8859,-1.8661,-1.8311,-1.824,-1.7914,-1.7302,-1.7342,-1.7231,-1.6945,-1.7032,-1.7366,-1.7914,-1.7962,-1.8247,-1.8875,-1.9201,-1.9107,-1.8754,-1.9163,-1.9215,-1.8574,-1.8607,-1.8477,-1.8015,-1.8792,-1.9149,-1.9023,-1.965,-1.9933,-1.9828,-2.0135,-2.0325,-2.0325,-2.0611,-2.0815,-2.0823,-2.1035,-2.1174,-2.1211,-2.0952,-2.0852,-2.0723,-1.9666,-1.8855,-1.8389,-1.6979,-1.5456,-1.5343,-1.5079,-1.4826,-1.4004,-1.3655,-1.3684,-1.3698,-1.3449,-1.3333,-1.3347,-1.2857,-1.2359,-1.2118,-1.2005,-1.1776,-1.1776,-1.1776,-1.1776,-1.1776,-1.1776,-1.1776,-1.1776,-1.1776,-1.1776,-1.1776,-1.1776,-1.1776,-0.9802,-0.9819,-0.9819,-0.9819,-0.9819,-0.9819,-1.114,-1.354,-1.4672,-1.6066,-1.737,-1.737,-1.7376,-1.7358,-1.7141,-1.7032,-1.702,-1.6803,-1.67,-1.67,-1.67,-1.6682,-1.6646,-1.6646,-1.6622,-1.6567,-1.6338,-1.6223,-1.6199,-1.6114,-1.6393,-1.6989,-1.7298,-1.777,-1.8824,-1.9004,-1.9315,-1.9717,-1.9439,-1.9296,-1.9288,-1.8986,-1.8661,-1.8303,-1.8025,-1.7676,-1.7302,-1.7564,-1.7676,-1.7644,-1.8208,-1.8573,-1.8669,-1.8692,-1.8867,-1.9256,-1.913,-1.919,-1.9735,-1.9468,-1.9351,-1.9552,-1.8846,-1.8759,-1.9469,-1.9626,-1.9817,-1.9996,-2.0301,-2.0382,-2.0194,-2.0464,-2.0655,-2.0676,-2.094,-2.113,-2.1001,-2.1052,-2.1089,-2.0974,-2.027,-1.9564,-1.9441,-1.8512,-1.7349,-1.6402,-1.5985,-1.524,-1.4441,-1.3928,-1.3928,-1.3688,-1.3688,-1.3688,-1.3693,-1.3693,-1.3444,-1.2946,-1.2715,-1.2479,-1.2234,-1.2005,-1.1776,-1.1776,-1.1776,-1.1776,-1.1776,-1.1776,-1.1776,-1.1776,-1.1776,-1.1776,-1.1776,-1.178,-1.1784,-1.0183,-1.0785,-1.0785,-1.0785,-1.0906,-1.1627,-1.2586,-1.3904,-1.5811,-1.6879,-1.7479,-1.7485,-1.7485,-1.7473,-1.7358,-1.7304,-1.7298,-1.7177,-1.7123,-1.7123,-1.7123,-1.705,-1.6923,-1.6917,-1.6839,-1.67,-1.6573,-1.6507,-1.6495,-1.6386,-1.6466,-1.6744,-1.6593,-1.6976,-1.7998,-1.8508,-1.9059,-1.9721,-1.9713,-1.9638,-1.963,-1.9479,-1.932,-1.9153,-1.8986,-1.8843,-1.8692,-1.8827,-1.8907,-1.8907,-1.9217,-1.9479,-1.9662,-1.9565,-1.9731,-2.0178,-2.0095,-2.0116,-2.0506,-2.0203,-2.0022,-1.9989,-1.9036,-1.8574,-1.9161,-1.9118,-1.9424,-2.0121,-2.0516,-2.0626,-2.0508,-2.0794,-2.0984,-2.0984,-2.113,-2.0852,-2.027,-2.0148,-1.991,-1.9203,-1.8616,-1.8267,-1.826,-1.7333,-1.6464,-1.5888,-1.5854,-1.5455,-1.425,-1.4518,-1.4646,-1.3832,-1.3688,-1.3688,-1.3688,-1.3564,-1.32,-1.2697,-1.259,-1.2354,-1.2238,-1.201,-1.178,-1.1776,-1.1776,-1.1776,-1.178,-1.1776,-1.1776,-1.1776,-1.1776,-1.1776,-1.178,-1.1841,-1.1882,-1.1039,-1.1752,-1.1989,-1.2109,-1.2234,-1.3545,-1.4138,-1.4381,-1.6526,-1.7485,-1.7485,-1.7485,-1.7485,-1.7485,-1.7485,-1.7485,-1.7485,-1.7485,-1.7479,-1.7485,-1.7485,-1.737,-1.7195,-1.7177,-1.7074,-1.6887,-1.6821,-1.6791,-1.6785,-1.673,-1.6592,-1.6374,-1.6175,-1.6497,-1.7342,-1.8133,-1.8941,-1.9747,-2.0015,-2.0067,-1.9987,-1.9908,-1.986,-1.986,-1.9852,-1.986,-1.986,-1.986,-1.986,-1.986,-1.986,-2.0027,-2.0361,-2.024,-2.0428,-2.0885,-2.1012,-2.1058,-2.1,-2.0917,-2.0676,-2.0457,-1.9056,-1.8513,-1.9158,-1.8552,-1.8637,-1.9681,-2.046,-2.0837,-2.0859,-2.1042,-2.1211,-2.1211,-2.1284,-2.0982,-2.002,-1.9596,-1.9161,-1.8214,-1.7505,-1.7161,-1.6947,-1.6244,-1.5502,-1.5538,-1.6044,-1.5779,-1.4783,-1.5258,-1.5328,-1.4348,-1.3755,-1.3693,-1.3693,-1.3625,-1.3273,-1.2768,-1.2587,-1.2512,-1.2277,-1.2024,-1.1902,-1.1918,-1.1866,-1.1882,-1.1886,-1.1861,-1.187,-1.1784,-1.1812,-1.1922,-1.1935,-1.2012,-1.2056,-1.2647,-1.1993,-1.3071,-1.3545,-1.3665,-1.4857,-1.5332,-1.5575,-1.6885,-1.7485,-1.7485,-1.7485,-1.7485,-1.7485,-1.7485,-1.7485,-1.7485,-1.7485,-1.7485,-1.7485,-1.7485,-1.7467,-1.7436,-1.7436,-1.743,-1.7364,-1.7165,-1.7056,-1.7044,-1.6821,-1.6694,-1.6664,-1.6634,-1.7043,-1.7786,-1.8421,-1.9149,-2.0007,-2.0599,-2.067,-2.0345,-2.0027,-1.986,-1.986,-1.9868,-1.986,-1.9924,-1.986,-1.9876,-1.986,-1.9908,-2.0051,-2.0384,-2.0233,-2.0553,-2.1265,-2.1482,-2.1348,-2.107,-2.1148,-2.1011,-2.0922,-1.8722,-1.8404,-2.0322,-1.8777,-1.7824,-1.8853,-2.0179,-2.1023,-2.1159,-2.1096,-2.1018,-2.0953,-2.1264,-2.165,-2.1195,-2.0564,-1.9986,-1.9866,-1.7492,-1.6339,-1.6167,-1.5226,-1.4649,-1.4928,-1.5711,-1.5992,-1.4997,-1.5431,-1.5758,-1.4552,-1.3958,-1.3736,-1.374,-1.3863,-1.3586,-1.2996,-1.3,-1.2807,-1.2441,-1.2332,-1.2251,-1.2142,-1.2101,-1.2065,-1.2134,-1.2138,-1.1941,-1.1888,-1.2065,-1.2243,-1.2255,-1.2264,-1.2259,-1.3375,-1.3071,-1.4257,-1.4857,-1.4976,-1.5451,-1.5569,-1.5693,-1.7003,-1.7485,-1.7485,-1.7485,-1.7485,-1.7485,-1.7485,-1.7485,-1.7485,-1.7485,-1.7485,-1.7485,-1.7485,-1.7485,-1.7485,-1.7485,-1.7485,-1.7479,-1.737,-1.7322,-1.728,-1.7056,-1.693,-1.6911,-1.6779,-1.6918,-1.7241,-1.7903,-1.8482,-1.881,-1.9226,-1.942,-1.9783,-2.0256,-2.0488,-2.0496,-2.0488,-2.0591,-2.0782,-2.0805,-2.0893,-2.1084,-2.0581,-2.033,-2.0468,-2.056,-2.0482,-2.0141,-2.0325,-2.0161,-1.9473,-1.9652,-1.9597,-1.9017,-1.7382,-1.6862,-1.7683,-1.6862,-1.6808,-1.7915,-1.9219,-2.0109,-1.9972,-2.0213,-2.013,-1.9694,-2.0192,-2.0506,-1.966,-1.8532,-1.7866,-1.7743,-1.628,-1.5052,-1.5072,-1.4794,-1.4915,-1.5645,-1.6435,-1.6292,-1.5926,-1.6208,-1.5877,-1.4838,-1.4241,-1.4081,-1.3925,-1.3862,-1.3678,-1.3448,-1.3117,-1.2796,-1.2691,-1.243,-1.2304,-1.2316,-1.2243,-1.2215,-1.2268,-1.2264,-1.2101,-1.2186,-1.232,-1.2598,-1.2566,-1.2458,-1.2495,-1.3937,-1.4386,-1.5569,-1.6172,-1.6166,-1.6166,-1.6172,-1.6172,-1.7126,-1.7521,-1.7587,-1.7587,-1.763,-1.7678,-1.7557,-1.7485,-1.7485,-1.7485,-1.7485,-1.7485,-1.7485,-1.7485,-1.7485,-1.7485,-1.7485,-1.7485,-1.7479,-1.7479,-1.7461,-1.7304,-1.708,-1.6934,-1.6773,-1.657,-1.6451,-1.7172,-1.7453,-1.7553,-1.7817,-1.8209,-1.8693,-1.9519,-2.0248,-2.0682,-2.0786,-2.1016,-2.1568,-2.1592,-2.1597,-2.1611,-2.0985,-2.0441,-2.0223,-2.0391,-1.9771,-1.8486,-1.9057,-1.9219,-1.8402,-1.8481,-1.8286,-1.7651,-1.6487,-1.5818,-1.6106,-1.6003,-1.6233,-1.7283,-1.8068,-1.8257,-1.7877,-1.8671,-1.8898,-1.8349,-1.9395,-1.9691,-1.8465,-1.7405,-1.6985,-1.6468,-1.5519,-1.4482,-1.4506,-1.4624,-1.5143,-1.6022,-1.6322,-1.6467,-1.6457,-1.6198,-1.5721,-1.4833,-1.4572,-1.4309,-1.4085,-1.3978,-1.3874,-1.3784,-1.3304,-1.2982,-1.2821,-1.2578,-1.2454,-1.2548,-1.2442,-1.2418,-1.2491,-1.2471,-1.241,-1.2442,-1.259,-1.2751,-1.2617,-1.2633,-1.269,-1.443,-1.5688,-1.6879,-1.7373,-1.7367,-1.7379,-1.7373,-1.7303,-1.7509,-1.7636,-1.7841,-1.7859,-1.7998,-1.8191,-1.7738,-1.7497,-1.7503,-1.7527,-1.7533,-1.7533,-1.7521,-1.7497,-1.7485,-1.7485,-1.7497,-1.7557,-1.7563,-1.7533,-1.7503,-1.7467,-1.7114,-1.6626,-1.6586,-1.625,-1.5853,-1.635,-1.6465,-1.6562,-1.6934,-1.734,-1.734,-1.7414,-1.85,-2.0164,-2.0599,-2.1009,-2.1826,-2.1934,-2.1634,-2.0783,-2.0696,-2.0245,-1.9477,-1.9264,-1.8272,-1.6494,-1.8083,-1.9041,-1.8345,-1.8046,-1.7923,-1.7756,-1.6496,-1.6354,-1.7131,-1.6546,-1.6355,-1.7219,-1.6646,-1.6054,-1.5355,-1.7049,-1.8123,-1.806,-1.9483,-1.9598,-1.8619,-1.8295,-1.8204,-1.7044,-1.5739,-1.4827,-1.4874,-1.4912,-1.5028,-1.5313,-1.5192,-1.5187,-1.5448,-1.5168,-1.5024,-1.4893,-1.4851,-1.4761,-1.4304,-1.4233,-1.4089,-1.3727,-1.3544,-1.3291,-1.2931,-1.2812,-1.2795,-1.2755,-1.2637,-1.2621,-1.2722,-1.2735,-1.2674,-1.2678,-1.2718,-1.2771,-1.2747,-1.28,-1.2828,-1.6431,-1.6885,-1.7367,-1.7575,-1.7726,-1.7732,-1.7829,-1.7998,-1.7998,-1.8052,-1.8131,-1.8137,-1.8197,-1.8281,-1.8094,-1.8004,-1.8004,-1.7998,-1.7998,-1.7998,-1.7998,-1.8004,-1.7998,-1.8004,-1.8004,-1.8004,-1.8004,-1.7907,-1.772,-1.7563,-1.7367,-1.7244,-1.7126,-1.6773,-1.6284,-1.6323,-1.6277,-1.592,-1.5704,-1.5776,-1.613,-1.5776,-1.646,-1.816,-1.9382,-2.0281,-2.0818,-2.1838,-2.2285,-2.218,-2.107,-2.0274,-1.9828,-1.8761,-1.778,-1.7002,-1.7805,-1.7946,-1.7005,-1.6903,-1.6542,-1.5761,-1.5289,-1.5082,-1.5525,-1.5302,-1.5112,-1.5363,-1.5408,-1.4896,-1.5091,-1.6187,-1.6822,-1.6461,-1.7429,-1.8238,-1.7502,-1.6931,-1.6473,-1.6726,-1.5829,-1.4931,-1.5062,-1.5699,-1.6208,-1.6208,-1.6213,-1.6084,-1.6089,-1.5578,-1.4936,-1.4936,-1.4931,-1.4884,-1.4632,-1.4627,-1.4433,-1.3908,-1.3556,-1.3456,-1.3227,-1.2968,-1.2812,-1.2808,-1.2735,-1.2731,-1.28,-1.28,-1.2771,-1.2783,-1.2836,-1.2836,-1.2832,-1.2836,-1.2836,-1.7545,-1.7503,-1.7575,-1.7708,-1.7871,-1.7974,-1.8118,-1.8294,-1.83,-1.8342,-1.8408,-1.842,-1.8463,-1.8535,-1.8547,-1.8547,-1.8517,-1.8378,-1.8294,-1.83,-1.83,-1.83,-1.83,-1.83,-1.83,-1.8294,-1.83,-1.8063,-1.7647,-1.7469,-1.7267,-1.7142,-1.7136,-1.6897,-1.6526,-1.6345,-1.6062,-1.547,-1.4986,-1.4866,-1.5001,-1.4696,-1.4962,-1.622,-1.778,-1.9178,-2.0139,-2.1279,-2.1953,-2.1836,-2.0845,-2.0074,-1.9342,-1.8307,-1.766,-1.7762,-1.7787,-1.715,-1.5948,-1.5834,-1.5576,-1.4533,-1.4416,-1.4435,-1.4496,-1.4511,-1.4454,-1.4557,-1.4594,-1.4799,-1.4995,-1.5693,-1.5802,-1.5163,-1.6213,-1.6721,-1.6338,-1.5954,-1.5959,-1.6084,-1.5443,-1.4931,-1.4931,-1.5699,-1.6078,-1.6338,-1.6338,-1.6338,-1.6213,-1.5574,-1.4936,-1.4936,-1.4936,-1.4931,-1.487,-1.4744,-1.4768,-1.4371,-1.3713,-1.3617,-1.3498,-1.3104,-1.2836,-1.2836,-1.2836,-1.2836,-1.2836,-1.2836,-1.2836,-1.2836,-1.2836,-1.2836,-1.2836,-1.2836,-1.2836,-1.7485,-1.7539,-1.7762,-1.7883,-1.798,-1.8191,-1.83,-1.8354,-1.8348,-1.8499,-1.868,-1.8686,-1.8801,-1.8994,-1.8982,-1.903,-1.8927,-1.8565,-1.8384,-1.8378,-1.8366,-1.8366,-1.8366,-1.8384,-1.8384,-1.8372,-1.8324,-1.7936,-1.7291,-1.7245,-1.6977,-1.6506,-1.6349,-1.6328,-1.6393,-1.6043,-1.5709,-1.5105,-1.4856,-1.4617,-1.4151,-1.4294,-1.4371,-1.4634,-1.5926,-1.7643,-1.9931,-2.0486,-2.0529,-2.0095,-2.0095,-1.9362,-1.805,-1.7745,-1.8004,-1.8227,-1.779,-1.6786,-1.5675,-1.5587,-1.5468,-1.4969,-1.4761,-1.4828,-1.4947,-1.4865,-1.4879,-1.4889,-1.4903,-1.4926,-1.4926,-1.5043,-1.5033,-1.5062,-1.6084,-1.6208,-1.5574,-1.6084,-1.6467,-1.5318,-1.4931,-1.4936,-1.4936,-1.5318,-1.5443,-1.5318,-1.5313,-1.5313,-1.5318,-1.5062,-1.4936,-1.4936,-1.4936,-1.4936,-1.4936,-1.4936,-1.4941,-1.4679,-1.4015,-1.363,-1.3498,-1.3104,-1.2968,-1.2836,-1.2836,-1.2836,-1.2836,-1.2836,-1.2836,-1.2836,-1.2836,-1.2836,-1.2836,-1.2836,-1.2836,-1.7587,-1.7756,-1.7835,-1.81,-1.842,-1.8529,-1.8656,-1.8831,-1.8831,-1.8879,-1.8945,-1.8951,-1.9,-1.9054,-1.9072,-1.9072,-1.906,-1.8897,-1.8831,-1.8819,-1.8819,-1.8813,-1.8819,-1.8825,-1.8831,-1.8801,-1.8644,-1.8185,-1.7525,-1.7264,-1.692,-1.6301,-1.6307,-1.6053,-1.5815,-1.5608,-1.5201,-1.4586,-1.4461,-1.4337,-1.4218,-1.4279,-1.4317,-1.4312,-1.4798,-1.6065,-1.8004,-1.9056,-1.9661,-1.9907,-1.9442,-1.8632,-1.7845,-1.7899,-1.8349,-1.8723,-1.8493,-1.7923,-1.7069,-1.6943,-1.6791,-1.6234,-1.5868,-1.5639,-1.5569,-1.5192,-1.4931,-1.4931,-1.4936,-1.4936,-1.4936,-1.4936,-1.4936,-1.4936,-1.5318,-1.5443,-1.5062,-1.5318,-1.5318,-1.5062,-1.4936,-1.4936,-1.5062,-1.5443,-1.5699,-1.5192,-1.5569,-1.5954,-1.5187,-1.4936,-1.4936,-1.4936,-1.4936,-1.4936,-1.4936,-1.4936,-1.4936,-1.481,-1.4286,-1.3892,-1.3625,-1.3235,-1.3099,-1.2836,-1.2836,-1.2836,-1.2836,-1.2836,-1.2836,-1.2836,-1.2836,-1.2836,-1.2836,-1.2836,-1.2836,-1.7636,-1.7877,-1.7986,-1.8275,-1.8686,-1.8782,-1.8915,-1.906,-1.9072,-1.9072,-1.9072,-1.9072,-1.9072,-1.9072,-1.9072,-1.9072,-1.9072,-1.9072,-1.9072,-1.9072,-1.9072,-1.9072,-1.9072,-1.9072,-1.9072,-1.9048,-1.8909,-1.8445,-1.7799,-1.7525,-1.732,-1.6948,-1.6691,-1.6444,-1.6292,-1.5966,-1.5423,-1.4935,-1.4804,-1.4683,-1.4444,-1.4501,-1.4539,-1.4544,-1.4544,-1.5296,-1.6669,-1.7531,-1.8309,-1.901,-1.849,-1.7913,-1.7866,-1.8173,-1.8617,-1.9006,-1.8866,-1.8445,-1.7568,-1.7418,-1.7136,-1.6359,-1.6104,-1.5839,-1.5583,-1.5323,-1.5192,-1.4931,-1.4936,-1.4936,-1.4936,-1.4936,-1.4959,-1.504,-1.4974,-1.4941,-1.4936,-1.4936,-1.4936,-1.4936,-1.4936,-1.4936,-1.5187,-1.5443,-1.5954,-1.5187,-1.5574,-1.6084,-1.5192,-1.4936,-1.4936,-1.4936,-1.4936,-1.4936,-1.4936,-1.4936,-1.4936,-1.4805,-1.4543,-1.4277,-1.4015,-1.3498,-1.3235,-1.2968,-1.2836,-1.2836,-1.2836,-1.2836,-1.2836,-1.2836,-1.2836,-1.2836,-1.2836,-1.2836,-1.2836,-1.7642,-1.7919,-1.8179,-1.845,-1.874,-1.8963,-1.9054,-1.9072,-1.9072,-1.9072,-1.9072,-1.9072,-1.9072,-1.9072,-1.9072,-1.9072,-1.9072,-1.9072,-1.9072,-1.9072,-1.9072,-1.9072,-1.9072,-1.9072,-1.9072,-1.9066,-1.9054,-1.8664,-1.7988,-1.7971,-1.8033,-1.7714,-1.706,-1.7243,-1.7156,-1.6897,-1.6043,-1.5538,-1.541,-1.5155,-1.4657,-1.4808,-1.4903,-1.4893,-1.4884,-1.5265,-1.6028,-1.6405,-1.7008,-1.789,-1.7766,-1.7865,-1.825,-1.8566,-1.8813,-1.9121,-1.906,-1.8536,-1.7512,-1.7378,-1.6877,-1.5839,-1.5969,-1.5714,-1.5323,-1.5487,-1.5507,-1.4988,-1.5007,-1.5011,-1.5016,-1.5021,-1.5092,-1.5191,-1.5134,-1.504,-1.4964,-1.4964,-1.4969,-1.4945,-1.4936,-1.4936,-1.4936,-1.5062,-1.4931,-1.4931,-1.5062,-1.5062,-1.5062,-1.4936,-1.4936,-1.4936,-1.4936,-1.4936,-1.4936,-1.4936,-1.4936,-1.4805,-1.467,-1.4539,-1.4146,-1.3757,-1.3371,-1.3104,-1.2836,-1.2836,-1.2836,-1.2836,-1.2836,-1.2836,-1.2836,-1.2836,-1.2836,-1.2836,-1.2968,-1.7756,-1.8179,-1.8263,-1.8553,-1.8945,-1.9054,-1.9072,-1.9072,-1.9072,-1.9072,-1.9072,-1.9072,-1.9072,-1.9072,-1.9072,-1.9072,-1.9072,-1.9072,-1.9072,-1.9072,-1.9072,-1.9072,-1.9072,-1.9072,-1.9072,-1.9072,-1.9072,-1.8688,-1.8033,-1.8033,-1.7781,-1.726,-1.6748,-1.6364,-1.6338,-1.5903,-1.5375,-1.5111,-1.5111,-1.4976,-1.4851,-1.4893,-1.4931,-1.4936,-1.4936,-1.5323,-1.5974,-1.6488,-1.7098,-1.7995,-1.8481,-1.8631,-1.8806,-1.8951,-1.9115,-1.8914,-1.9072,-1.895,-1.8693,-1.8565,-1.805,-1.7265,-1.692,-1.6359,-1.5719,-1.5463,-1.5262,-1.5039,-1.5142,-1.538,-1.5385,-1.5385,-1.5427,-1.5451,-1.5422,-1.5333,-1.5196,-1.5148,-1.5106,-1.4969,-1.4955,-1.4969,-1.4974,-1.4974,-1.4964,-1.4955,-1.4955,-1.4936,-1.4941,-1.4936,-1.4936,-1.4936,-1.4936,-1.4936,-1.4936,-1.4936,-1.4936,-1.4936,-1.48,-1.467,-1.4277,-1.3757,-1.3498,-1.3235,-1.2836,-1.2836,-1.2836,-1.2836,-1.2836,-1.2836,-1.2836,-1.2968,-1.2972,-1.2972,-1.3235,-1.7799,-1.8294,-1.83,-1.8595,-1.9048,-1.9072,-1.9072,-1.9072,-1.9072,-1.9072,-1.9072,-1.9072,-1.9072,-1.9072,-1.9072,-1.9072,-1.9072,-1.9072,-1.9072,-1.9072,-1.9072,-1.9072,-1.9072,-1.9072,-1.9072,-1.9072,-1.9072,-1.8816,-1.8559,-1.8425,-1.8296,-1.7781,-1.6877,-1.6618,-1.6877,-1.5578,-1.5062,-1.5323,-1.5062,-1.4936,-1.4936,-1.4936,-1.4936,-1.4936,-1.4936,-1.5192,-1.5974,-1.6872,-1.7776,-1.8419,-1.8926,-1.9188,-1.92,-1.9717,-1.945,-1.8524,-1.906,-1.9499,-1.9205,-1.9487,-1.9536,-1.922,-1.8461,-1.7549,-1.6918,-1.623,-1.563,-1.538,-1.5493,-1.5686,-1.5861,-1.5772,-1.5682,-1.5697,-1.5763,-1.5692,-1.5408,-1.5371,-1.5323,-1.5233,-1.5196,-1.5196,-1.5191,-1.5186,-1.5139,-1.5096,-1.5078,-1.5021,-1.4959,-1.495,-1.4936,-1.4936,-1.4936,-1.4936,-1.4936,-1.4936,-1.4936,-1.4936,-1.4936,-1.48,-1.4408,-1.4015,-1.3625,-1.3363,-1.3099,-1.2836,-1.2836,-1.2836,-1.2968,-1.2972,-1.2972,-1.3099,-1.3231,-1.3363,-1.3494,-1.7781,-1.8251,-1.8275,-1.8583,-1.8988,-1.906,-1.9072,-1.9072,-1.9072,-1.9072,-1.9072,-1.9072,-1.9072,-1.9072,-1.9072,-1.9072,-1.9072,-1.9072,-1.9072,-1.9072,-1.9072,-1.9072,-1.9072,-1.9072,-1.9072,-1.9072,-1.9072,-1.9072,-1.8944,-1.9072,-1.9072,-1.8688,-1.7653,-1.7518,-1.7389,-1.6099,-1.5578,-1.5574,-1.5578,-1.5323,-1.5328,-1.5328,-1.5323,-1.5197,-1.4993,-1.5391,-1.6175,-1.7223,-1.8289,-1.9169,-1.9487,-1.9621,-1.9646,-2.0674,-2.0183,-1.8606,-1.9432,-1.9905,-1.9683,-2.0278,-2.0746,-2.063,-1.9772,-1.8892,-1.8429,-1.7809,-1.6902,-1.5634,-1.5851,-1.6494,-1.6539,-1.6368,-1.6159,-1.6053,-1.606,-1.5971,-1.5734,-1.5607,-1.5583,-1.5564,-1.555,-1.556,-1.5564,-1.555,-1.5479,-1.5295,-1.5257,-1.5191,-1.5101,-1.5044,-1.4997,-1.4936,-1.4936,-1.4936,-1.4936,-1.4936,-1.4936,-1.4936,-1.4936,-1.48,-1.467,-1.4277,-1.3884,-1.349,-1.3231,-1.2968,-1.2836,-1.2836,-1.3104,-1.3235,-1.3367,-1.3494,-1.3752,-1.3884,-1.3879,-1.7672,-1.7986,-1.8203,-1.8481,-1.8776,-1.8982,-1.9072,-1.9072,-1.9072,-1.9072,-1.9072,-1.9072,-1.9072,-1.9072,-1.9072,-1.9072,-1.92,-1.92,-1.9072,-1.9072,-1.9072,-1.9072,-1.9072,-1.9072,-1.9072,-1.9072,-1.9072,-1.9072,-1.9072,-1.9072,-1.9072,-1.8944,-1.8296,-1.7905,-1.7776,-1.7001,-1.5944,-1.5534,-1.5949,-1.6234,-1.6114,-1.6249,-1.6124,-1.5758,-1.5492,-1.5565,-1.6282,-1.7209,-1.8489,-1.9765,-2.0532,-2.1064,-2.1301,-2.1679,-2.1514,-2.1124,-2.0266,-2.0459,-2.1175,-2.1628,-2.1516,-2.133,-2.123,-2.0743,-2.0086,-1.9885,-1.8372,-1.6969,-1.7844,-1.8722,-1.8079,-1.787,-1.7337,-1.6656,-1.6277,-1.615,-1.6041,-1.589,-1.5749,-1.5635,-1.5593,-1.5569,-1.5578,-1.5607,-1.5564,-1.5498,-1.5446,-1.538,-1.5285,-1.5182,-1.5101,-1.503,-1.4997,-1.4997,-1.4936,-1.4936,-1.4936,-1.4936,-1.4936,-1.4936,-1.467,-1.4534,-1.4141,-1.3884,-1.3494,-1.3231,-1.2968,-1.3104,-1.3239,-1.3498,-1.363,-1.3884,-1.401,-1.4137,-1.4268,-1.7636,-1.7895,-1.8173,-1.8444,-1.8704,-1.8957,-1.9072,-1.9072,-1.9072,-1.9072,-1.9072,-1.9072,-1.9072,-1.9072,-1.9072,-1.9328,-1.9705,-1.9826,-1.9826,-1.9699,-1.945,-1.9072,-1.9072,-1.9072,-1.9072,-1.9072,-1.9072,-1.9072,-1.9072,-1.9078,-1.9072,-1.9072,-1.8431,-1.8296,-1.8296,-1.7535,-1.6866,-1.6457,-1.6343,-1.6494,-1.6629,-1.6603,-1.6728,-1.6532,-1.6655,-1.7118,-1.739,-1.8812,-2.034,-2.1674,-2.2587,-2.2765,-2.2776,-2.3436,-2.3855,-2.3701,-2.3035,-2.2109,-2.2661,-2.3001,-2.3447,-2.356,-2.3027,-2.2472,-2.207,-2.181,-2.0291,-1.8993,-1.9559,-2.0461,-1.9501,-1.8675,-1.7991,-1.7434,-1.6603,-1.6183,-1.6164,-1.6075,-1.598,-1.5876,-1.5876,-1.5871,-1.5857,-1.58,-1.5744,-1.573,-1.5692,-1.5626,-1.5479,-1.5371,-1.5262,-1.5186,-1.512,-1.5059,-1.4964,-1.4936,-1.4936,-1.4936,-1.4936,-1.4936,-1.48,-1.467,-1.4403,-1.4146,-1.3757,-1.3498,-1.3235,-1.3371,-1.363,-1.3888,-1.4146,-1.4141,-1.4272,-1.4534,-1.4665,-1.7618,-1.7835,-1.8112,-1.8384,-1.8644,-1.8891,-1.903,-1.9072,-1.9072,-1.9072,-1.9072,-1.9072,-1.9072,-1.9072,-1.9072,-1.9705,-2.0329,-2.0576,-2.0456,-2.0329,-1.945,-1.92,-1.9072,-1.9072,-1.9072,-1.9072,-1.9072,-1.9072,-1.9078,-1.9114,-1.9187,-1.9034,-1.8688,-1.8759,-1.8847,-1.8165,-1.769,-1.7837,-1.732,-1.7053,-1.732,-1.7203,-1.7374,-1.7615,-1.8396,-1.8816,-1.9224,-2.0482,-2.2237,-2.3651,-2.4584,-2.4569,-2.459,-2.5113,-2.6182,-2.6021,-2.5031,-2.4363,-2.3918,-2.4242,-2.5152,-2.6517,-2.5128,-2.4296,-2.426,-2.3555,-2.2726,-2.2056,-2.2114,-2.1846,-2.1014,-2.0196,-1.9234,-1.8266,-1.7157,-1.6603,-1.6183,-1.6188,-1.615,-1.6145,-1.6079,-1.6056,-1.6089,-1.6075,-1.6013,-1.5956,-1.5919,-1.5843,-1.5692,-1.5574,-1.5474,-1.5319,-1.5233,-1.5082,-1.4974,-1.4936,-1.4936,-1.4936,-1.4936,-1.4936,-1.4936,-1.48,-1.4534,-1.4141,-1.3884,-1.3625,-1.3625,-1.3757,-1.4019,-1.4272,-1.4534,-1.4534,-1.467,-1.48,-1.4931,-1.7509,-1.7569,-1.7835,-1.81,-1.8372,-1.8638,-1.8879,-1.9054,-1.9066,-1.9072,-1.9072,-1.9072,-1.9072,-1.9072,-1.9072,-1.9705,-2.0709,-2.0829,-2.0703,-2.0583,-1.9699,-1.9072,-1.9072,-1.9072,-1.9072,-1.9072,-1.9096,-1.9108,-1.9157,-1.9277,-1.9368,-1.944,-1.9466,-1.9567,-1.9555,-1.9471,-1.887,-1.8703,-1.8587,-1.8593,-1.8483,-1.8957,-1.9177,-1.9405,-2.0215,-2.0546,-2.0736,-2.1849,-2.3073,-2.4139,-2.4771,-2.5576,-2.6034,-2.6612,-2.6534,-2.5985,-2.5531,-2.5093,-2.5032,-2.5219,-2.5667,-2.6122,-2.5981,-2.5973,-2.61,-2.5965,-2.53,-2.5209,-2.451,-2.3802,-2.2545,-2.1715,-2.0617,-1.9234,-1.7991,-1.7298,-1.6461,-1.6188,-1.6188,-1.6188,-1.6188,-1.6188,-1.6188,-1.6188,-1.6127,-1.6075,-1.606,-1.5989,-1.5862,-1.5782,-1.5711,-1.5531,-1.5337,-1.5153,-1.4969,-1.4945,-1.4936,-1.4936,-1.4936,-1.4936,-1.4936,-1.4936,-1.467,-1.4403,-1.4141,-1.4015,-1.4015,-1.4015,-1.4146,-1.4403,-1.4665,-1.48,-1.48,-1.4936,-1.4936,-1.7485,-1.7509,-1.7762,-1.795,-1.8137,-1.8517,-1.8752,-1.8885,-1.9012,-1.9072,-1.9072,-1.9072,-1.9072,-1.92,-1.9699,-2.0709,-2.172,-2.1594,-2.1468,-2.1089,-1.996,-1.9072,-1.9072,-1.9072,-1.9072,-1.9114,-1.9199,-1.9271,-1.9283,-1.9392,-1.9555,-1.9688,-1.9833,-1.9881,-1.9881,-1.9857,-1.9765,-1.9492,-1.9358,-1.9492,-1.951,-2.0398,-2.0919,-2.1346,-2.2242,-2.2734,-2.2761,-2.4075,-2.5135,-2.5801,-2.61,-2.6226,-2.6501,-2.6674,-2.6429,-2.5823,-2.554,-2.542,-2.5592,-2.5742,-2.6003,-2.6398,-2.6666,-2.68,-2.6934,-2.6934,-2.6831,-2.6452,-2.5922,-2.4781,-2.4074,-2.2676,-2.102,-1.9785,-1.8406,-1.7157,-1.6461,-1.6183,-1.6188,-1.6188,-1.6188,-1.6188,-1.6188,-1.6188,-1.6188,-1.6188,-1.6188,-1.6112,-1.6008,-1.5966,-1.5904,-1.5697,-1.5484,-1.5156,-1.4964,-1.5016,-1.4857,-1.4843,-1.4936,-1.4936,-1.4936,-1.4936,-1.48,-1.467,-1.4534,-1.4403,-1.4277,-1.4277,-1.4403,-1.4534,-1.467,-1.48,-1.4931,-1.4936,-1.4936,-1.7485,-1.7503,-1.7702,-1.7823,-1.7937,-1.8324,-1.8589,-1.8716,-1.8897,-1.9024,-1.9072,-1.9072,-1.9072,-1.945,-2.0456,-2.1839,-2.3487,-2.2731,-2.2355,-2.1601,-2.0335,-1.945,-1.9072,-1.9084,-1.9114,-1.9229,-1.9332,-1.947,-1.9476,-1.9627,-1.9778,-1.9935,-1.9996,-2.0038,-2.008,-2.0128,-2.005,-1.9909,-1.9897,-1.9891,-2.0759,-2.1854,-2.2599,-2.2936,-2.4488,-2.5008,-2.4701,-2.5682,-2.6525,-2.6926,-2.6926,-2.6761,-2.618,-2.6257,-2.5996,-2.551,-2.5674,-2.5712,-2.5861,-2.6003,-2.6406,-2.68,-2.68,-2.6934,-2.7075,-2.7075,-2.6949,-2.6138,-2.4559,-2.4181,-2.3781,-2.2127,-2.0743,-1.964,-1.7986,-1.6603,-1.6325,-1.6188,-1.6188,-1.6188,-1.6188,-1.6188,-1.6188,-1.6188,-1.6188,-1.6188,-1.6188,-1.6188,-1.6103,-1.6122,-1.6041,-1.5834,-1.563,-1.5306,-1.5133,-1.4988,-1.4955,-1.4932,-1.4857,-1.4936,-1.4936,-1.4936,-1.48,-1.48,-1.467,-1.4539,-1.4539,-1.4539,-1.467,-1.48,-1.48,-1.4936,-1.4936,-1.4936,-1.4936,-1.7485,-1.7485,-1.7515,-1.766,-1.7859,-1.7962,-1.8263,-1.8662,-1.8728,-1.8867,-1.9072,-1.9072,-1.9072,-1.9705,-2.1096,-2.248,-2.3238,-2.3362,-2.2863,-2.1978,-2.0836,-1.9826,-1.92,-1.9072,-1.9211,-1.935,-1.9452,-1.9464,-1.9615,-1.9953,-2.0158,-2.0255,-2.0543,-2.0689,-2.0735,-2.086,-2.0575,-2.0833,-2.1502,-2.2303,-2.3256,-2.4103,-2.4438,-2.488,-2.5712,-2.6257,-2.6107,-2.6792,-2.7067,-2.7067,-2.6934,-2.6651,-2.6368,-2.5988,-2.5854,-2.5704,-2.5854,-2.5884,-2.6003,-2.6398,-2.6666,-2.7067,-2.7067,-2.7208,-2.7208,-2.7099,-2.6839,-2.5988,-2.3506,-2.24,-2.2929,-2.1571,-2.019,-1.9089,-1.8126,-1.7017,-1.6603,-1.6188,-1.6188,-1.6188,-1.6188,-1.6188,-1.6188,-1.6188,-1.6188,-1.6188,-1.6188,-1.6188,-1.6188,-1.6188,-1.6164,-1.5966,-1.5796,-1.548,-1.5348,-1.5194,-1.5063,-1.4897,-1.4936,-1.4969,-1.4936,-1.4936,-1.4936,-1.48,-1.48,-1.48,-1.467,-1.48,-1.48,-1.4931,-1.4936,-1.4936,-1.4936,-1.4936,-1.4936,-1.7485,-1.7485,-1.7485,-1.7545,-1.7666,-1.7805,-1.8094,-1.8438,-1.8619,-1.8837,-1.9042,-1.9072,-1.9705,-2.0722,-2.1859,-2.2988,-2.3984,-2.386,-2.3113,-2.2104,-2.1089,-2.0081,-1.9322,-1.909,-1.9217,-1.9464,-1.9639,-1.9839,-1.9959,-2.0128,-2.0327,-2.0634,-2.1139,-2.1596,-2.1622,-2.2173,-2.2441,-2.2702,-2.2976,-2.3802,-2.4617,-2.5165,-2.5577,-2.5988,-2.6658,-2.6792,-2.6792,-2.7067,-2.7067,-2.6926,-2.6792,-2.6532,-2.6257,-2.5996,-2.5861,-2.5988,-2.6272,-2.6406,-2.6525,-2.68,-2.7067,-2.72,-2.72,-2.72,-2.7208,-2.7107,-2.6981,-2.6398,-2.3777,-2.2549,-2.2506,-2.1152,-1.9779,-1.8681,-1.7991,-1.7157,-1.6461,-1.6325,-1.6188,-1.6188,-1.6188,-1.6188,-1.6188,-1.6188,-1.6188,-1.6188,-1.6188,-1.6188,-1.6188,-1.6188,-1.616,-1.6093,-1.5942,-1.5796,-1.5687,-1.556,-1.5213,-1.5142,-1.5063,-1.5087,-1.4964,-1.4936,-1.4936,-1.4936,-1.48,-1.48,-1.4936,-1.4936,-1.4931,-1.4936,-1.4936,-1.4936,-1.4936,-1.4936,-1.4936,-1.7602,-1.783,-1.7596,-1.7485,-1.7497,-1.7927,-1.8286,-1.8569,-1.8828,-1.9099,-1.92,-1.9291,-2.0214,-2.1734,-2.2237,-2.3113,-2.4988,-2.4363,-2.3362,-2.2473,-2.1468,-2.0462,-1.9705,-1.9346,-1.9253,-1.9561,-1.9754,-2.0026,-2.0409,-2.0674,-2.104,-2.1075,-2.1747,-2.2441,-2.2853,-2.3263,-2.3672,-2.421,-2.421,-2.4895,-2.5839,-2.5973,-2.6383,-2.6658,-2.7067,-2.7067,-2.6934,-2.7067,-2.7067,-2.6792,-2.6792,-2.6666,-2.6272,-2.6272,-2.6272,-2.6264,-2.6532,-2.6666,-2.6792,-2.7067,-2.72,-2.72,-2.72,-2.72,-2.72,-2.724,-2.7115,-2.6666,-2.5442,-2.4174,-2.3086,-2.1433,-1.9918,-1.8675,-1.7705,-1.6875,-1.6325,-1.6183,-1.6188,-1.6188,-1.6188,-1.6188,-1.6188,-1.6188,-1.6188,-1.6188,-1.6188,-1.6188,-1.6188,-1.6188,-1.6169,-1.6136,-1.6084,-1.5966,-1.5904,-1.5767,-1.5428,-1.5269,-1.5323,-1.5205,-1.5082,-1.4978,-1.4936,-1.4936,-1.4936,-1.4936,-1.4936,-1.4936,-1.4936,-1.4936,-1.4936,-1.4936,-1.4936,-1.4936,-1.4936,-1.8064,-1.8765,-1.7837,-1.7596,-1.7602,-1.8428,-1.8959,-1.927,-1.9523,-1.9808,-2.0007,-1.9586,-2.0214,-2.1727,-2.2355,-2.3238,-2.5111,-2.4988,-2.4232,-2.3355,-2.248,-2.1342,-2.0335,-1.9646,-1.9314,-1.9724,-2.0129,-2.0417,-2.0915,-2.1782,-2.1984,-2.231,-2.2853,-2.3126,-2.3672,-2.4217,-2.4887,-2.5292,-2.5427,-2.5973,-2.6658,-2.6926,-2.7059,-2.7067,-2.72,-2.72,-2.7208,-2.72,-2.7067,-2.6792,-2.6926,-2.68,-2.6406,-2.6406,-2.6532,-2.6666,-2.6666,-2.6926,-2.7067,-2.7067,-2.72,-2.72,-2.72,-2.72,-2.72,-2.72,-2.7067,-2.6808,-2.6026,-2.5238,-2.3816,-2.2252,-2.0328,-1.8809,-1.771,-1.7157,-1.6461,-1.6183,-1.6188,-1.6188,-1.6188,-1.6188,-1.6188,-1.6188,-1.6188,-1.6188,-1.6188,-1.6188,-1.6188,-1.6188,-1.6188,-1.6174,-1.6174,-1.6136,-1.6122,-1.5975,-1.5796,-1.5635,-1.5522,-1.5366,-1.52,-1.5101,-1.5002,-1.4936,-1.4936,-1.4936,-1.4936,-1.4936,-1.4936,-1.4936,-1.4936,-1.4936,-1.4936,-1.4936,-1.4936,-1.9461,-1.9686,-1.9339,-1.9223,-1.9229,-1.957,-1.9856,-2.0108,-2.0251,-2.0584,-2.0929,-1.9821,-2.0589,-2.223,-2.2362,-2.3238,-2.4857,-2.5103,-2.4479,-2.3604,-2.2606,-2.1594,-2.0583,-1.9755,-1.9271,-1.9741,-2.0315,-2.1092,-2.159,-2.2623,-2.3659,-2.4074,-2.421,-2.4474,-2.5022,-2.5435,-2.6115,-2.6249,-2.6517,-2.6792,-2.6926,-2.72,-2.72,-2.72,-2.72,-2.72,-2.72,-2.72,-2.6934,-2.68,-2.6926,-2.6666,-2.654,-2.6666,-2.68,-2.6934,-2.6934,-2.7067,-2.72,-2.72,-2.72,-2.72,-2.72,-2.72,-2.72,-2.72,-2.72,-2.6823,-2.6295,-2.5194,-2.3536,-2.199,-2.0479,-1.8681,-1.771,-1.7293,-1.6744,-1.6325,-1.6188,-1.6188,-1.6188,-1.6188,-1.6188,-1.6188,-1.6188,-1.6188,-1.6188,-1.6188,-1.6188,-1.6188,-1.6188,-1.6188,-1.6188,-1.6188,-1.6169,-1.6093,-1.6148,-1.6005,-1.5853,-1.5541,-1.5366,-1.5224,-1.5125,-1.503,-1.4936,-1.4936,-1.4936,-1.4936,-1.4936,-1.4936,-1.4936,-1.4936,-1.4936,-1.4936,-1.4936,-2.0952,-2.0723,-2.0723,-2.0493,-2.0392,-2.0608,-2.0722,-2.0914,-2.1035,-2.1181,-2.1533,-2.0452,-2.1215,-2.2856,-2.2988,-2.3487,-2.4734,-2.498,-2.461,-2.386,-2.2731,-2.1853,-2.0843,-1.9876,-1.9223,-1.9732,-2.078,-2.1606,-2.1919,-2.3527,-2.4588,-2.5292,-2.5973,-2.5973,-2.6241,-2.6658,-2.72,-2.72,-2.72,-2.72,-2.72,-2.72,-2.72,-2.72,-2.72,-2.72,-2.72,-2.72,-2.7067,-2.6926,-2.6792,-2.6792,-2.6792,-2.68,-2.6934,-2.7067,-2.72,-2.72,-2.72,-2.72,-2.72,-2.72,-2.72,-2.72,-2.72,-2.72,-2.72,-2.7067,-2.5935,-2.4552,-2.3365,-2.2689,-2.1176,-1.9512,-1.8681,-1.8126,-1.688,-1.6188,-1.6188,-1.6188,-1.6188,-1.6188,-1.6188,-1.6188,-1.6188,-1.6188,-1.6188,-1.6188,-1.6188,-1.6188,-1.6188,-1.6188,-1.6188,-1.6188,-1.6178,-1.6131,-1.6079,-1.6163,-1.601,-1.572,-1.5555,-1.5394,-1.5233,-1.5125,-1.5035,-1.4964,-1.4936,-1.4936,-1.4936,-1.4936,-1.4936,-1.4936,-1.4936,-1.4936,-1.4936,-2.2394,-2.1623,-2.1616,-2.106,-2.0615,-2.1281,-2.1638,-2.1613,-2.178,-2.1882,-2.1845,-2.1797,-2.2466,-2.3472,-2.3362,-2.386,-2.4734,-2.498,-2.4865,-2.4487,-2.2988,-2.223,-2.1348,-2.0253,-1.9181,-1.9719,-2.0854,-2.1905,-2.2116,-2.4379,-2.5472,-2.5965,-2.6517,-2.6926,-2.7067,-2.72,-2.72,-2.72,-2.72,-2.72,-2.72,-2.72,-2.72,-2.72,-2.72,-2.72,-2.72,-2.72,-2.7067,-2.6926,-2.7059,-2.6926,-2.68,-2.7067,-2.72,-2.72,-2.72,-2.72,-2.72,-2.72,-2.72,-2.72,-2.72,-2.72,-2.72,-2.72,-2.72,-2.7067,-2.5935,-2.5248,-2.473,-2.3938,-2.1865,-2.0069,-1.9234,-1.8261,-1.7021,-1.6188,-1.6188,-1.6188,-1.6188,-1.6188,-1.6188,-1.6188,-1.6188,-1.6188,-1.6188,-1.6188,-1.6188,-1.6188,-1.6188,-1.6188,-1.6188,-1.6188,-1.6188,-1.6188,-1.6155,-1.6112,-1.6027,-1.5876,-1.5687,-1.5493,-1.5347,-1.5224,-1.5078,-1.495,-1.4936,-1.4936,-1.4936,-1.4936,-1.4936,-1.4936,-1.4936,-1.4936,-1.4936,-2.268,-2.2227,-2.2453,-2.2328,-2.2101,-2.2441,-2.2554,-2.2503,-2.2236,-2.2503,-2.2909,-2.24,-2.293,-2.3792,-2.3479,-2.3611,-2.4734,-2.4232,-2.4239,-2.4734,-2.2981,-2.2355,-2.1475,-2.0227,-1.9255,-1.9757,-2.1019,-2.236,-2.2772,-2.5114,-2.6198,-2.6722,-2.6926,-2.72,-2.72,-2.72,-2.72,-2.72,-2.72,-2.72,-2.72,-2.72,-2.72,-2.72,-2.72,-2.72,-2.72,-2.72,-2.7067,-2.6934,-2.72,-2.7067,-2.7067,-2.72,-2.72,-2.72,-2.72,-2.72,-2.72,-2.72,-2.72,-2.72,-2.72,-2.72,-2.72,-2.72,-2.72,-2.6926,-2.5958,-2.527,-2.4324,-2.3249,-2.1465,-1.9518,-1.8406,-1.7715,-1.6744,-1.6466,-1.6188,-1.6188,-1.6188,-1.6188,-1.6188,-1.6188,-1.6188,-1.6188,-1.6188,-1.6188,-1.6188,-1.6188,-1.6188,-1.6188,-1.6188,-1.6188,-1.6188,-1.6188,-1.6188,-1.615,-1.6108,-1.6023,-1.5824,-1.5626,-1.546,-1.5337,-1.5125,-1.4936,-1.4936,-1.4936,-1.4936,-1.4936,-1.4936,-1.4936,-1.4936,-1.4936,-1.4936,-2.2392,-2.2506,-2.2736,-2.2911,-2.3006,-2.3014,-2.3014,-2.2964,-2.2682,-2.3092,-2.3583,-2.3022,-2.3467,-2.4163,-2.3931,-2.323,-2.4479,-2.3984,-2.3362,-2.3852,-2.2348,-2.172,-2.0963,-2.0087,-1.9212,-1.978,-2.1235,-2.2685,-2.3004,-2.5397,-2.6719,-2.6996,-2.7193,-2.72,-2.72,-2.72,-2.72,-2.72,-2.72,-2.72,-2.72,-2.72,-2.72,-2.72,-2.72,-2.72,-2.72,-2.72,-2.72,-2.72,-2.72,-2.72,-2.72,-2.72,-2.72,-2.72,-2.72,-2.72,-2.72,-2.72,-2.72,-2.72,-2.72,-2.72,-2.72,-2.72,-2.72,-2.6792,-2.5839,-2.488,-2.3924,-2.2846,-2.1051,-1.8966,-1.8272,-1.7575,-1.6744,-1.6325,-1.6188,-1.6188,-1.6188,-1.6188,-1.6188,-1.6188,-1.6188,-1.6188,-1.6188,-1.6188,-1.6188,-1.6188,-1.6188,-1.6188,-1.6188,-1.6188,-1.6188,-1.6188,-1.6188,-1.6188,-1.615,-1.6103,-1.6013,-1.5819,-1.563,-1.5441,-1.5248,-1.5082,-1.4969,-1.4936,-1.4936,-1.4936,-1.4936,-1.4936,-1.4936,-1.4936,-1.4936,-2.147,-2.2418,-2.2474,-2.2688,-2.2958,-2.299,-2.3014,-2.3046,-2.3249,-2.3415,-2.3486,-2.4118,-2.4403,-2.453,-2.4806,-2.4324,-2.3728,-2.3479,-2.2981,-2.2223,-2.1335,-2.0956,-2.0583,-1.9833,-1.9577,-2.0042,-2.1323,-2.2624,-2.3,-2.5329,-2.6756,-2.7065,-2.7089,-2.7137,-2.7169,-2.72,-2.72,-2.72,-2.72,-2.72,-2.72,-2.72,-2.72,-2.72,-2.72,-2.72,-2.72,-2.72,-2.72,-2.72,-2.72,-2.72,-2.72,-2.72,-2.72,-2.72,-2.72,-2.72,-2.72,-2.72,-2.72,-2.72,-2.72,-2.72,-2.72,-2.72,-2.72,-2.6658,-2.5704,-2.4745,-2.3659,-2.2016,-2.0509,-1.939,-1.8552,-1.758,-1.6603,-1.6188,-1.6188,-1.6188,-1.6188,-1.6188,-1.6188,-1.6188,-1.6188,-1.6188,-1.6188,-1.6188,-1.6188,-1.6188,-1.6188,-1.6188,-1.6188,-1.6188,-1.6188,-1.6188,-1.6188,-1.6188,-1.6188,-1.6145,-1.607,-1.5985,-1.58,-1.5597,-1.5399,-1.5233,-1.5092,-1.4993,-1.4936,-1.4936,-1.4936,-1.4936,-1.4936,-1.4936,-1.4936,-2.1204,-2.1798,-2.2275,-2.2553,-2.2672,-2.2911,-2.3014,-2.3038,-2.3141,-2.3284,-2.3562,-2.3745,-2.4134,-2.4571,-2.3947,-2.3764,-2.3412,-2.2981,-2.2487,-2.1727,-2.0829,-2.0709,-2.0456,-2.0202,-2.0075,-2.0609,-2.1457,-2.2617,-2.3873,-2.5615,-2.6478,-2.6771,-2.6867,-2.6978,-2.7105,-2.72,-2.72,-2.72,-2.72,-2.72,-2.72,-2.72,-2.72,-2.72,-2.72,-2.72,-2.72,-2.72,-2.72,-2.72,-2.72,-2.72,-2.72,-2.72,-2.72,-2.72,-2.72,-2.72,-2.72,-2.72,-2.72,-2.72,-2.72,-2.72,-2.72,-2.72,-2.72,-2.6658,-2.5839,-2.488,-2.4067,-2.2565,-2.0918,-1.9663,-1.8826,-1.8131,-1.7021,-1.6466,-1.6325,-1.6188,-1.6188,-1.6188,-1.6188,-1.6188,-1.6188,-1.6188,-1.6188,-1.6188,-1.6188,-1.6188,-1.6188,-1.6188,-1.6188,-1.6188,-1.6188,-1.6188,-1.6188,-1.6188,-1.6188,-1.6178,-1.6127,-1.6032,-1.5914,-1.5749,-1.5536,-1.5352,-1.5191,-1.5096,-1.4871,-1.4945,-1.4941,-1.4936,-1.4936,-1.4936,-1.4964,-2.1081,-2.1399,-2.1894,-2.2227,-2.2521,-2.2863,-2.3014,-2.3014,-2.3014,-2.3149,-2.334,-2.3499,-2.3848,-2.4317,-2.3913,-2.3542,-2.2849,-2.2487,-2.1734,-2.0589,-2.0329,-2.0081,-1.9947,-2.0075,-2.0202,-2.0709,-2.1355,-2.2209,-2.3844,-2.5138,-2.612,-2.6454,-2.6565,-2.6779,-2.6962,-2.7105,-2.72,-2.72,-2.72,-2.72,-2.72,-2.72,-2.72,-2.72,-2.72,-2.72,-2.72,-2.72,-2.72,-2.72,-2.72,-2.72,-2.72,-2.72,-2.72,-2.72,-2.72,-2.72,-2.72,-2.72,-2.72,-2.72,-2.72,-2.72,-2.72,-2.72,-2.72,-2.6926,-2.6107,-2.5292,-2.4481,-2.3393,-2.1596,-1.9796,-1.9239,-1.8686,-1.7715,-1.6885,-1.6466,-1.6325,-1.6188,-1.6188,-1.6188,-1.6188,-1.6188,-1.6188,-1.6188,-1.6188,-1.6188,-1.6188,-1.6188,-1.6188,-1.6188,-1.6188,-1.6188,-1.6188,-1.6188,-1.6188,-1.6188,-1.6174,-1.615,-1.6108,-1.6008,-1.5852,-1.5673,-1.5503,-1.5347,-1.5049,-1.4946,-1.4889,-1.4959,-1.4936,-1.4936,-1.4936,-1.4978,-2.1107,-2.1401,-2.1449,-2.1886,-2.249,-2.2823,-2.2974,-2.3014,-2.3014,-2.3022,-2.3101,-2.3348,-2.3665,-2.4023,-2.4062,-2.3315,-2.2704,-2.2062,-2.1096,-1.92,-1.945,-1.9322,-1.9322,-1.9328,-2.0081,-2.0449,-2.1089,-2.2139,-2.3569,-2.482,-2.5763,-2.6104,-2.635,-2.6565,-2.6764,-2.697,-2.7097,-2.72,-2.72,-2.72,-2.72,-2.72,-2.72,-2.72,-2.72,-2.72,-2.72,-2.72,-2.72,-2.72,-2.72,-2.72,-2.72,-2.72,-2.72,-2.72,-2.72,-2.72,-2.72,-2.72,-2.72,-2.72,-2.72,-2.72,-2.72,-2.72,-2.72,-2.72,-2.6383,-2.631,-2.5652,-2.4638,-2.3099,-2.1446,-2.0485,-1.9512,-1.8261,-1.7293,-1.6466,-1.6325,-1.6188,-1.6188,-1.6188,-1.6188,-1.6188,-1.6188,-1.6188,-1.6188,-1.6188,-1.6188,-1.6188,-1.6188,-1.6188,-1.6188,-1.6188,-1.6188,-1.6188,-1.6188,-1.6188,-1.6183,-1.6169,-1.6141,-1.6112,-1.5947,-1.5777,-1.5668,-1.5526,-1.5295,-1.5101,-1.4936,-1.5007,-1.495,-1.4936,-1.4936,-1.5011,-2.0964,-2.1076,-2.1338,-2.1854,-2.245,-2.2577,-2.2768,-2.3006,-2.3014,-2.3014,-2.3038,-2.3133,-2.3363,-2.3729,-2.4039,-2.3293,-2.2255,-2.1846,-2.0823,-1.9705,-1.92,-1.9072,-1.9194,-1.9571,-2.0202,-2.0709,-2.1468,-2.2348,-2.3517,-2.4634,-2.5413,-2.5723,-2.5953,-2.6152,-2.6557,-2.6764,-2.6891,-2.7105,-2.7137,-2.7161,-2.72,-2.72,-2.72,-2.72,-2.72,-2.72,-2.72,-2.72,-2.72,-2.72,-2.72,-2.72,-2.72,-2.72,-2.72,-2.72,-2.72,-2.72,-2.72,-2.72,-2.72,-2.72,-2.72,-2.72,-2.72,-2.72,-2.72,-2.7067,-2.7091,-2.7036,-2.6791,-2.5614,-2.4609,-2.3099,-2.1728,-2.0196,-1.867,-1.757,-1.6603,-1.6325,-1.6188,-1.6188,-1.6188,-1.6188,-1.6188,-1.6188,-1.6188,-1.6188,-1.6188,-1.6188,-1.6188,-1.6188,-1.6188,-1.6188,-1.6188,-1.6188,-1.6188,-1.6188,-1.6188,-1.6188,-1.6188,-1.6164,-1.6136,-1.6027,-1.589,-1.5763,-1.5686,-1.55,-1.5356,-1.5219,-1.5021,-1.495,-1.4936,-1.4936,-1.504,-2.0925,-2.0964,-2.1306,-2.1671,-2.2037,-2.2347,-2.2609,-2.2784,-2.2942,-2.3014,-2.3014,-2.3038,-2.3213,-2.3506,-2.3753,-2.3415,-2.2191,-2.1934,-2.1094,-2.0043,-1.9322,-1.9072,-1.945,-1.9699,-2.0202,-2.0709,-2.2097,-2.3238,-2.3736,-2.4502,-2.5262,-2.5429,-2.554,-2.5818,-2.6263,-2.6366,-2.6621,-2.6946,-2.6962,-2.7042,-2.7145,-2.72,-2.72,-2.72,-2.72,-2.72,-2.72,-2.72,-2.72,-2.72,-2.72,-2.72,-2.72,-2.72,-2.72,-2.72,-2.72,-2.72,-2.72,-2.72,-2.72,-2.72,-2.72,-2.72,-2.72,-2.72,-2.72,-2.7067,-2.7067,-2.713,-2.713,-2.6257,-2.5562,-2.4467,-2.3099,-2.1584,-1.9367,-1.7293,-1.6603,-1.6325,-1.6188,-1.6188,-1.6188,-1.6188,-1.6188,-1.6188,-1.6188,-1.6188,-1.6188,-1.6188,-1.6188,-1.6188,-1.6188,-1.6188,-1.6188,-1.6188,-1.6188,-1.6188,-1.6188,-1.6188,-1.6188,-1.6188,-1.6155,-1.6065,-1.5956,-1.581,-1.5705,-1.5662,-1.5418,-1.5158,-1.5054,-1.4936,-1.4936,-1.4931,-1.4997,-2.0869,-2.0964,-2.125,-2.1312,-2.1528,-2.2069,-2.2402,-2.2537,-2.2807,-2.2966,-2.3014,-2.3014,-2.322,-2.3379,-2.3447,-2.3268,-2.2879,-2.2371,-2.1445,-2.0465,-1.968,-1.9316,-1.92,-1.92,-1.9954,-2.1089,-2.2355,-2.3362,-2.3991,-2.4741,-2.5135,-2.5175,-2.5357,-2.5604,-2.5715,-2.5921,-2.6255,-2.6525,-2.6799,-2.6827,-2.7002,-2.7193,-2.72,-2.72,-2.72,-2.72,-2.72,-2.72,-2.72,-2.72,-2.72,-2.72,-2.72,-2.72,-2.72,-2.72,-2.72,-2.72,-2.72,-2.72,-2.72,-2.72,-2.72,-2.72,-2.72,-2.72,-2.72,-2.72,-2.72,-2.72,-2.7208,-2.7067,-2.6383,-2.5555,-2.406,-2.2421,-1.9785,-1.7293,-1.6603,-1.6188,-1.6183,-1.6183,-1.6183,-1.6183,-1.6325,-1.6325,-1.6325,-1.6325,-1.633,-1.6188,-1.6188,-1.6188,-1.6188,-1.6188,-1.6188,-1.6188,-1.6188,-1.6188,-1.6188,-1.6188,-1.6188,-1.6188,-1.6174,-1.6136,-1.6013,-1.5782,-1.5597,-1.5472,-1.5405,-1.5158,-1.5059,-1.4936,-1.4931,-1.5062,-1.5062,-2.0545,-2.0925,-2.1004,-2.1179,-2.1449,-2.1616,-2.1957,-2.245,-2.2545,-2.2736,-2.295,-2.3006,-2.3077,-2.3141,-2.3443,-2.3263,-2.2712,-2.2436,-2.1463,-2.025,-2.0194,-1.9661,-1.9328,-1.92,-2.0214,-2.1348,-2.248,-2.323,-2.4239,-2.4857,-2.5111,-2.5127,-2.5127,-2.5357,-2.5628,-2.5786,-2.5898,-2.628,-2.644,-2.6567,-2.6943,-2.7142,-2.7185,-2.72,-2.72,-2.72,-2.72,-2.72,-2.72,-2.72,-2.72,-2.72,-2.72,-2.72,-2.72,-2.72,-2.72,-2.72,-2.72,-2.72,-2.72,-2.72,-2.72,-2.72,-2.72,-2.72,-2.72,-2.72,-2.72,-2.72,-2.72,-2.72,-2.6651,-2.5555,-2.4324,-2.2265,-1.9918,-1.7705,-1.6325,-1.6325,-1.632,-1.6325,-1.6183,-1.6461,-1.7021,-1.688,-1.6603,-1.6744,-1.7026,-1.6603,-1.6183,-1.6325,-1.6325,-1.6188,-1.6188,-1.6188,-1.6188,-1.6188,-1.6188,-1.6188,-1.6188,-1.6188,-1.6164,-1.6089,-1.5886,-1.5635,-1.56,-1.5438,-1.5148,-1.5026,-1.4993,-1.4936,-1.5062,-1.5192,-1.5323]},{"header":{"parameterUnit":"m.s-1","parameterCategory":1,"la1":31.0,"la2":29.5877,"lo1":-88.7671,"lo2":-86.6584,"dy":0.0162,"dx":0.0185,"nx":115,"ny":88,"refTime":"2025-11-07T12:00:00:Z","depth":0,"parameterNumber":3,"parameterNumberName":"V-component_of_WINDS"},"data":[0.0,0.0,0.0,0.0,0.0,0.0,0.0,0.0,0.0,0.0,0.0,0.0,0.0,0.0,0.0,0.0,0.0,0.0,0.0,0.0,0.0,0.0,0.0,0.0,0.0,0.0,0.0,0.0,0.0,0.0,0.0,0.0,0.0,0.0,0.0,0.0,0.0,0.0,0.0,0.0,0.0,0.0,0.0,0.0,0.0,0.0,0.0,0.0,0.0,0.0,0.0,0.0,0.0,0.0,0.0,0.0,0.0,0.0,0.0,0.0,0.0,0.0,0.0,0.0,0.0,0.0,0.0,0.0,0.0,0.0,0.0,0.0,0.0,0.0,0.0,0.0,0.0,0.0,0.0,0.0,0.0,0.0,0.0,0.0,0.0,0.0,0.0,0.0,0.0,0.0,0.0,0.0,0.0,0.0,0.0,0.0,0.0,0.0,0.0,0.0,0.0,0.0,0.0,0.0,0.0,0.0,0.0,0.0,0.0,0.0,0.0,0.0,0.0,0.0,0.0,0.0,0.0,0.0,0.0,0.0,0.0,0.0,0.0,0.0,0.0,0.0,0.0,0.0,0.0,0.0,0.0,0.0,0.0,0.0,0.0,0.0,0.0,0.0,0.0,0.0,0.0,0.0,0.0,0.0,0.0,0.0,0.0,0.0,0.0,0.0,0.0,0.0,0.0,0.0,0.0,0.0,0.0,0.0,0.0,0.0,0.0,0.0,0.0,0.0,0.0,0.0,0.0,0.0,0.0,0.0,0.0,0.0,0.0,0.0,0.0,0.0,0.0,0.0,0.0,0.0,0.0,0.0,0.0,0.0,0.0,0.0,0.0,0.0,0.0,0.0,0.0,0.0,0.0,0.0,0.0,0.0,0.0,0.0,0.0,0.0,0.0,0.0,0.0,0.0,0.0,0.0,0.0,0.0,0.0,0.0,0.0,0.0,0.0,0.0,0.0,0.0,0.0,0.0,0.0,0.0,0.0,0.0,0.0,0.0,0.0,0.0,0.0,0.0,0.0,0.0,0.0,0.0,0.0,0.0,0.0,0.0,0.0,0.0,0.0,0.0,0.0,0.0,0.0,0.0,0.0,0.0,0.0,0.0,0.0,0.0,0.0,0.0,0.0,0.0,0.0,0.0,0.0,0.0,0.0,0.0,0.0,0.0,0.0,0.0,0.0,0.0,0.0,0.0,0.0,0.0,0.0,0.0,0.0,0.0,0.0,0.0,0.0,0.0,0.0,0.0,0.0,0.0,0.0,0.0,0.0,0.0,0.0,0.0,0.0,0.0,0.0,0.0,0.0,0.0,0.0,0.0,0.0,0.0,0.0,0.0,0.0,0.0,0.0,0.0,0.0,0.0,0.0,0.0,0.0,0.0,0.0,0.0,0.0,0.0,0.0,0.0,0.0,0.0,0.0,0.0,0.0,0.0,0.0,0.0,0.0,0.0,0.0,0.0,0.0,0.0,0.0,0.0,0.0,0.0,0.0,0.0,0.0,0.0,0.0,0.0,0.0,0.0,0.0,0.0,0.0,0.0,0.0,0.0,0.0,0.0,0.0,0.0,0.0,0.0,0.0,0.0,0.0,0.0,0.0,0.0,0.0,0.0,0.0,0.0,0.0,0.0,0.0,0.0,0.0,0.0,0.0,0.0,0.0,0.0,0.0,0.0,0.0,0.0,0.0,0.0,0.0,0.0,0.0,0.0,0.0,0.0,0.0,0.0,0.0,0.0,0.0,0.0,0.0,0.0,0.0,0.0,0.0,0.0,0.0,0.0,0.0,0.0,0.0,0.0,0.0,0.0,0.0,0.0,0.0,0.0,0.0,0.0,0.0,0.0,0.0,0.0,0.0,0.0,0.0,0.0,0.0,0.0,0.0,0.0,0.0,0.0,0.0,0.0,0.0,0.0,0.0,0.0,0.0,0.0,0.0,0.0,0.0,0.0,0.0,0.0,0.0,0.0,0.0,0.0,0.0,0.0,0.0,0.0,0.0,0.0,0.0,0.0,0.0,0.0,0.0,0.0,0.0,0.0,0.0,0.0,0.0,0.0,0.0,0.0,0.0,0.0,0.0,0.0,0.0,0.0,0.0,0.0,0.0,0.0,0.0,0.0,0.0,0.0,0.0,0.0,0.0,0.0,0.0,0.0,0.0,0.0,0.0,0.0,0.0,0.0,0.0,0.0,0.0,0.0,0.0,0.0,0.0,0.0,0.0,0.0,0.0,0.0,0.0,0.0,0.0,0.0,0.0,0.0,0.0,0.0,0.0,0.0,0.0,0.0,0.0,0.0,0.0,0.0,0.0,0.0,0.0,0.0,0.0,0.0,0.0,0.0,0.0,0.0,0.0,0.0,0.0,0.0,0.0,0.0,0.0,0.0,0.0,0.0,0.0,0.0,0.0,0.0,0.0,0.0,0.0,0.0,0.0,0.0,0.0,0.0,0.0,0.0,0.0,0.0,0.0,0.0,0.0,0.0,0.0,0.0,0.0,0.0,0.0,0.0,0.0,0.0,0.0,0.0,0.0,0.0,0.0,0.0,0.0,0.0,0.0,0.0,0.0,0.0,0.0,0.0,0.0,0.0,0.0,0.0,0.0,0.0,0.0,0.0,0.0,0.0,0.0,0.0,0.0,0.0,0.0,0.0,0.0,0.0,0.0,0.0,0.0,0.0,0.0,0.0,0.0,0.0,0.0,0.0,0.0,0.0,0.0,0.0,0.0,0.0,0.0,0.0,0.0,0.0,0.0,0.0,0.0,0.0,0.0,0.0,0.0,0.0,0.0,0.0,0.0,0.0,0.0,0.0,0.0,0.0,0.0,0.0,0.0,0.0,0.0,0.0,0.0,0.0,0.0,0.0,0.0,0.0,0.0,0.0,0.0,0.0,0.0,0.0,0.0,0.0,0.0,0.0,0.0,0.0,0.0,0.0,0.0,0.0,0.0,0.0,0.0,0.0,0.0,0.0,0.0,0.0,0.0,0.0,0.0,0.0,0.0,0.0,0.0,0.0,0.0,0.0,0.0,0.0,0.0,0.0,0.0,0.0,0.0,0.0,0.0,0.0,0.0,0.0,0.0,0.0,0.0,0.0,0.0,0.0,0.0,0.0,0.0,0.0,0.0,0.0,0.0,0.0,0.0,0.0,0.0,0.0,0.0,0.0,0.0,0.0,0.0,0.0,0.0,0.0,0.0,0.0,0.0,0.0,0.0,0.0,0.0,0.0,0.0,0.0,0.0,0.0,0.0,0.0,0.0,0.0,0.0,0.0,0.0,0.0,0.0,0.0,0.0,0.0,0.0,0.0,0.0,0.0,0.0,0.0,0.0,0.0,0.0,0.0,0.0,0.0,0.0,0.0,0.0,0.0,0.0,0.0,0.0,0.0,0.0,0.0,0.0,0.0,0.0,0.0,0.0,0.0,0.0,0.0,0.0,0.0,0.0,0.0,0.0,0.0,0.0,0.0,0.0,0.0,0.0,0.0,0.0,0.0,0.0,0.0,0.0,0.0,0.0,0.0,0.0,0.0,0.0,0.0,0.0,0.0,0.0,0.0,0.0,0.0,0.0,0.0,0.0,0.0,0.0,0.0,0.0,0.0,0.0,0.0,0.0,0.0,0.0,0.0,0.0,0.0,0.0,0.0,0.0,0.0,0.0,0.0,0.0,0.0,0.0,0.0,0.0,0.0,0.0,0.0,0.0,0.0,0.0,0.0,0.0,0.0,0.0,0.0,0.0,0.0,0.0,0.0,0.0,0.0,0.0,0.0,0.0,0.0,0.0,0.0,0.0,0.0,0.0,0.0,0.0,0.0,0.0,0.0,0.0,0.0,0.0,0.0,0.0,0.0,0.0,0.0,0.0,0.0,0.0,0.0,0.0,0.0,0.0,0.0,0.0,0.0,0.0,0.0,0.0,0.0,0.0,0.0,0.0,0.0,0.0,0.0,0.0,0.0,0.0,0.0,0.0,0.0,0.0,0.0,0.0,0.0,0.0,0.0,0.0,0.0,0.0,0.0,0.0,0.0,0.0,0.0,0.0,0.0,0.0,0.0,0.0,0.0,0.0,0.0,0.0,0.0,0.0,0.0,0.0,0.0,0.0,0.0,0.0,0.0,0.0,0.0,0.0,0.0,0.0,0.0,0.0,0.0,0.0,0.0,0.0,0.0,0.0,0.0,0.0,0.0,0.0,0.0,0.0,0.0,0.0,0.0,0.0,0.0,0.0,0.0,0.0,0.0,0.0,0.0,0.0,0.0,0.0,0.0,0.0,0.0,-2.2712,0.0,0.0,0.0,-2.0353,0.0,0.0,0.0,0.0,0.0,0.0,0.0,0.0,0.0,0.0,0.0,0.0,0.0,0.0,0.0,0.0,0.0,0.0,0.0,0.0,0.0,0.0,0.0,0.0,0.0,0.0,0.0,0.0,0.0,0.0,0.0,0.0,0.0,0.0,0.0,0.0,0.0,0.0,0.0,0.0,0.0,0.0,0.0,0.0,0.0,0.0,0.0,0.0,0.0,0.0,0.0,0.0,0.0,0.0,0.0,0.0,0.0,0.0,0.0,0.0,0.0,0.0,0.0,0.0,0.0,0.0,0.0,0.0,0.0,0.0,0.0,0.0,0.0,0.0,0.0,0.0,0.0,0.0,0.0,0.0,0.0,0.0,0.0,0.0,0.0,0.0,0.0,0.0,0.0,0.0,0.0,0.0,0.0,0.0,0.0,0.0,0.0,0.0,0.0,0.0,0.0,0.0,0.0,0.0,0.0,0.0,0.0,0.0,0.0,0.0,-2.2108,-2.2091,-2.0997,-2.0205,-1.9809,0.0,0.0,0.0,0.0,0.0,0.0,0.0,0.0,0.0,0.0,0.0,0.0,0.0,0.0,0.0,0.0,0.0,0.0,0.0,0.0,0.0,0.0,0.0,0.0,0.0,0.0,0.0,0.0,0.0,0.0,0.0,0.0,0.0,0.0,0.0,0.0,0.0,0.0,0.0,0.0,0.0,0.0,0.0,0.0,0.0,0.0,0.0,0.0,0.0,0.0,0.0,0.0,0.0,0.0,0.0,0.0,0.0,0.0,0.0,0.0,0.0,0.0,0.0,0.0,0.0,0.0,0.0,0.0,0.0,0.0,0.0,0.0,0.0,0.0,0.0,0.0,0.0,0.0,0.0,0.0,0.0,0.0,0.0,0.0,0.0,0.0,0.0,0.0,0.0,0.0,0.0,0.0,0.0,0.0,0.0,0.0,0.0,0.0,0.0,0.0,0.0,0.0,0.0,0.0,0.0,0.0,0.0,0.0,0.0,0.0,0.0,0.0,-2.117,-2.0308,-1.9619,0.0,0.0,0.0,0.0,0.0,0.0,0.0,0.0,0.0,0.0,0.0,0.0,0.0,0.0,0.0,0.0,0.0,0.0,0.0,0.0,0.0,0.0,0.0,0.0,0.0,0.0,0.0,0.0,0.0,0.0,0.0,0.0,0.0,0.0,0.0,0.0,0.0,0.0,0.0,0.0,0.0,0.0,0.0,0.0,0.0,0.0,0.0,0.0,0.0,0.0,0.0,0.0,0.0,0.0,0.0,0.0,0.0,0.0,0.0,0.0,0.0,0.0,0.0,0.0,0.0,0.0,0.0,0.0,0.0,0.0,0.0,0.0,0.0,0.0,0.0,0.0,0.0,0.0,0.0,0.0,0.0,0.0,0.0,0.0,0.0,0.0,0.0,0.0,0.0,0.0,0.0,0.0,0.0,0.0,0.0,0.0,0.0,0.0,0.0,0.0,0.0,0.0,0.0,0.0,0.0,0.0,0.0,0.0,0.0,0.0,-2.148,-2.3478,-2.2203,0.0,-2.0412,0.0,0.0,0.0,0.0,0.0,0.0,0.0,0.0,0.0,0.0,0.0,0.0,0.0,0.0,0.0,0.0,0.0,0.0,0.0,0.0,0.0,0.0,0.0,0.0,0.0,0.0,0.0,0.0,0.0,0.0,0.0,0.0,0.0,0.0,0.0,0.0,0.0,0.0,0.0,0.0,0.0,0.0,0.0,0.0,0.0,0.0,0.0,0.0,0.0,0.0,0.0,0.0,0.0,0.0,0.0,0.0,0.0,0.0,0.0,0.0,0.0,0.0,0.0,0.0,0.0,0.0,0.0,0.0,0.0,0.0,0.0,0.0,0.0,0.0,0.0,0.0,0.0,0.0,0.0,0.0,0.0,0.0,0.0,0.0,0.0,0.0,0.0,0.0,0.0,0.0,0.0,0.0,0.0,0.0,0.0,0.0,0.0,0.0,0.0,0.0,0.0,0.0,0.0,0.0,0.0,0.0,0.0,0.0,0.0,0.0,-2.1531,-2.2488,-2.147,-2.0739,0.0,0.0,0.0,0.0,0.0,0.0,0.0,0.0,0.0,0.0,0.0,0.0,0.0,0.0,0.0,0.0,0.0,0.0,0.0,0.0,0.0,0.0,0.0,0.0,0.0,0.0,0.0,0.0,0.0,0.0,0.0,0.0,0.0,0.0,0.0,0.0,0.0,0.0,0.0,0.0,0.0,0.0,0.0,0.0,0.0,0.0,0.0,0.0,0.0,0.0,0.0,0.0,0.0,0.0,0.0,0.0,0.0,0.0,0.0,0.0,0.0,0.0,0.0,0.0,0.0,0.0,0.0,0.0,0.0,0.0,0.0,0.0,0.0,0.0,0.0,0.0,0.0,0.0,0.0,0.0,0.0,0.0,0.0,0.0,0.0,0.0,0.0,0.0,0.0,0.0,0.0,0.0,0.0,0.0,0.0,0.0,0.0,0.0,0.0,0.0,0.0,0.0,0.0,0.0,0.0,0.0,0.0,0.0,0.0,0.0,-2.1305,-2.1445,-2.1773,-2.1257,-2.0673,-2.0037,0.0,0.0,0.0,0.0,0.0,0.0,0.0,0.0,0.0,0.0,0.0,0.0,0.0,0.0,0.0,0.0,0.0,0.0,0.0,0.0,0.0,0.0,0.0,0.0,0.0,0.0,0.0,0.0,0.0,0.0,0.0,0.0,0.0,0.0,0.0,0.0,0.0,0.0,0.0,0.0,0.0,0.0,0.0,0.0,0.0,0.0,0.0,0.0,0.0,0.0,0.0,0.0,0.0,0.0,0.0,0.0,0.0,0.0,0.0,0.0,0.0,0.0,0.0,0.0,0.0,0.0,0.0,0.0,0.0,0.0,0.0,0.0,0.0,0.0,0.0,0.0,0.0,0.0,0.0,0.0,0.0,0.0,0.0,0.0,0.0,0.0,0.0,0.0,0.0,0.0,0.0,0.0,0.0,0.0,0.0,0.0,0.0,0.0,0.0,0.0,0.0,0.0,0.0,0.0,0.0,0.0,0.0,0.0,-2.3367,-2.1531,-2.1061,-2.2334,-2.2317,-2.1293,0.0,0.0,0.0,0.0,0.0,0.0,0.0,0.0,0.0,0.0,0.0,0.0,0.0,0.0,0.0,0.0,0.0,0.0,0.0,0.0,0.0,0.0,0.0,0.0,0.0,0.0,0.0,0.0,0.0,0.0,0.0,0.0,0.0,0.0,0.0,0.0,0.0,0.0,0.0,0.0,0.0,0.0,0.0,0.0,0.0,0.0,0.0,0.0,0.0,0.0,0.0,0.0,0.0,0.0,0.0,0.0,0.0,0.0,0.0,0.0,0.0,0.0,0.0,0.0,0.0,0.0,0.0,0.0,0.0,0.0,0.0,0.0,0.0,0.0,0.0,0.0,0.0,0.0,0.0,0.0,0.0,0.0,0.0,0.0,0.0,0.0,0.0,0.0,0.0,0.0,0.0,0.0,0.0,0.0,0.0,0.0,0.0,0.0,0.0,0.0,0.0,0.0,0.0,0.0,0.0,0.0,0.0,0.0,0.0,-2.0159,-2.0254,-2.1326,-2.3431,-2.1336,-2.0137,0.0,0.0,0.0,0.0,0.0,0.0,0.0,0.0,0.0,0.0,0.0,0.0,0.0,0.0,0.0,0.0,0.0,0.0,0.0,0.0,0.0,0.0,0.0,0.0,0.0,0.0,0.0,0.0,0.0,0.0,0.0,0.0,0.0,0.0,0.0,0.0,0.0,0.0,0.0,0.0,0.0,0.0,0.0,0.0,0.0,0.0,0.0,0.0,0.0,0.0,0.0,0.0,0.0,0.0,0.0,0.0,0.0,0.0,0.0,0.0,0.0,0.0,0.0,0.0,0.0,0.0,0.0,0.0,0.0,0.0,0.0,0.0,0.0,0.0,0.0,0.0,0.0,0.0,0.0,0.0,0.0,0.0,0.0,0.0,0.0,0.0,0.0,0.0,0.0,0.0,0.0,0.0,0.0,0.0,0.0,0.0,0.0,0.0,0.0,0.0,0.0,0.0,0.0,0.0,0.0,0.0,0.0,0.0,0.0,-1.9544,0.0,-2.2084,-2.3257,-2.0849,-1.9328,0.0,0.0,0.0,0.0,0.0,0.0,0.0,0.0,0.0,0.0,0.0,0.0,0.0,0.0,0.0,0.0,0.0,0.0,0.0,0.0,0.0,0.0,0.0,0.0,0.0,0.0,0.0,0.0,0.0,0.0,0.0,0.0,0.0,0.0,0.0,0.0,0.0,0.0,0.0,0.0,0.0,0.0,0.0,0.0,0.0,0.0,0.0,0.0,0.0,0.0,0.0,0.0,0.0,0.0,0.0,0.0,0.0,0.0,0.0,0.0,0.0,0.0,0.0,0.0,0.0,0.0,0.0,0.0,0.0,0.0,0.0,0.0,0.0,0.0,0.0,0.0,0.0,0.0,0.0,0.0,0.0,0.0,0.0,0.0,0.0,0.0,0.0,0.0,0.0,0.0,0.0,0.0,0.0,0.0,0.0,0.0,0.0,0.0,0.0,0.0,0.0,0.0,0.0,0.0,0.0,0.0,0.0,0.0,-1.9732,-2.2112,-2.3164,-2.3043,-2.1804,-2.099,-1.8956,0.0,0.0,0.0,0.0,0.0,0.0,0.0,0.0,0.0,0.0,0.0,0.0,0.0,0.0,0.0,0.0,0.0,0.0,0.0,0.0,0.0,0.0,0.0,0.0,0.0,0.0,0.0,0.0,0.0,0.0,0.0,0.0,0.0,0.0,0.0,0.0,0.0,0.0,0.0,0.0,0.0,0.0,0.0,0.0,0.0,0.0,0.0,0.0,0.0,0.0,0.0,0.0,0.0,0.0,0.0,0.0,0.0,0.0,0.0,0.0,0.0,0.0,0.0,0.0,0.0,0.0,0.0,0.0,0.0,0.0,0.0,0.0,0.0,0.0,0.0,0.0,0.0,0.0,0.0,0.0,0.0,0.0,0.0,0.0,0.0,0.0,0.0,0.0,0.0,0.0,0.0,0.0,0.0,0.0,0.0,0.0,0.0,0.0,0.0,0.0,0.0,0.0,0.0,0.0,0.0,0.0,0.0,0.0,0.0,-1.984,-2.0953,-2.2013,-2.2785,-1.9866,-1.862,0.0,0.0,0.0,0.0,0.0,0.0,0.0,0.0,0.0,0.0,0.0,0.0,0.0,0.0,0.0,0.0,0.0,0.0,0.0,0.0,0.0,0.0,0.0,0.0,0.0,0.0,0.0,0.0,0.0,0.0,0.0,0.0,0.0,0.0,0.0,0.0,0.0,0.0,0.0,0.0,0.0,0.0,0.0,0.0,0.0,0.0,0.0,0.0,0.0,0.0,0.0,0.0,0.0,0.0,0.0,0.0,0.0,0.0,0.0,0.0,0.0,0.0,0.0,0.0,0.0,0.0,0.0,0.0,0.0,0.0,0.0,0.0,0.0,0.0,0.0,0.0,0.0,0.0,0.0,0.0,0.0,0.0,0.0,0.0,0.0,0.0,0.0,0.0,0.0,0.0,0.0,0.0,0.0,0.0,0.0,0.0,0.0,0.0,0.0,0.0,0.0,0.0,0.0,0.0,0.0,0.0,0.0,0.0,0.0,-2.0811,-2.2092,-2.3013,-2.3497,-2.0613,-1.9281,-1.9711,0.0,0.0,0.0,0.0,0.0,0.0,0.0,0.0,0.0,0.0,0.0,0.0,0.0,0.0,0.0,0.0,0.0,0.0,0.0,0.0,0.0,0.0,0.0,0.0,0.0,0.0,0.0,0.0,0.0,0.0,0.0,0.0,0.0,0.0,0.0,0.0,0.0,0.0,0.0,0.0,0.0,0.0,0.0,0.0,0.0,0.0,0.0,0.0,0.0,0.0,0.0,0.0,0.0,0.0,0.0,0.0,0.0,0.0,0.0,0.0,0.0,0.0,0.0,0.0,0.0,0.0,0.0,0.0,0.0,0.0,0.0,0.0,0.0,0.0,0.0,0.0,0.0,0.0,0.0,0.0,0.0,0.0,0.0,0.0,0.0,0.0,0.0,0.0,0.0,0.0,0.0,0.0,0.0,0.0,0.0,0.0,0.0,0.0,0.0,0.0,0.0,0.0,0.0,0.0,0.0,0.0,0.0,0.0,-2.4314,-2.602,-2.5891,-2.3854,-2.2896,-2.0886,0.0,0.0,0.0,0.0,0.0,0.0,0.0,0.0,0.0,0.0,0.0,0.0,0.0,0.0,0.0,0.0,0.0,0.0,0.0,0.0,0.0,0.0,0.0,0.0,0.0,0.0,0.0,0.0,0.0,0.0,0.0,0.0,0.0,0.0,0.0,0.0,0.0,0.0,0.0,0.0,0.0,0.0,0.0,0.0,0.0,0.0,0.0,0.0,0.0,0.0,0.0,0.0,0.0,0.0,0.0,0.0,0.0,0.0,0.0,0.0,0.0,0.0,0.0,0.0,0.0,0.0,0.0,0.0,0.0,0.0,0.0,0.0,0.0,0.0,0.0,0.0,0.0,0.0,0.0,0.0,0.0,0.0,0.0,0.0,0.0,0.0,0.0,0.0,0.0,0.0,0.0,0.0,0.0,0.0,0.0,0.0,0.0,0.0,0.0,0.0,0.0,0.0,0.0,0.0,0.0,0.0,0.0,0.0,0.0,-2.7031,-2.8876,-2.879,-2.6652,-2.4401,-2.2573,0.0,0.0,0.0,0.0,0.0,0.0,0.0,0.0,0.0,0.0,0.0,0.0,0.0,0.0,0.0,0.0,0.0,0.0,0.0,0.0,0.0,0.0,0.0,0.0,0.0,0.0,0.0,0.0,0.0,0.0,0.0,0.0,0.0,0.0,0.0,0.0,0.0,0.0,0.0,0.0,0.0,0.0,0.0,0.0,0.0,0.0,0.0,0.0,0.0,0.0,0.0,0.0,0.0,0.0,0.0,0.0,0.0,0.0,0.0,0.0,0.0,0.0,0.0,0.0,0.0,0.0,0.0,0.0,0.0,0.0,0.0,0.0,0.0,0.0,0.0,0.0,0.0,0.0,0.0,0.0,0.0,0.0,0.0,0.0,0.0,0.0,0.0,0.0,0.0,0.0,0.0,0.0,0.0,0.0,0.0,0.0,0.0,0.0,0.0,0.0,0.0,0.0,0.0,0.0,0.0,0.0,0.0,0.0,-2.6737,-2.8936,-3.0851,-3.1089,-2.9551,-2.7348,-2.5041,0.0,0.0,0.0,0.0,0.0,0.0,0.0,0.0,0.0,0.0,0.0,0.0,0.0,0.0,0.0,0.0,0.0,0.0,0.0,0.0,0.0,0.0,0.0,0.0,0.0,0.0,0.0,0.0,0.0,0.0,0.0,0.0,0.0,0.0,0.0,0.0,0.0,0.0,0.0,0.0,0.0,0.0,0.0,0.0,0.0,0.0,0.0,0.0,0.0,0.0,0.0,0.0,0.0,0.0,0.0,0.0,0.0,0.0,0.0,0.0,0.0,0.0,0.0,0.0,0.0,0.0,0.0,0.0,0.0,0.0,0.0,0.0,0.0,0.0,0.0,0.0,0.0,0.0,0.0,0.0,0.0,0.0,0.0,0.0,0.0,0.0,0.0,0.0,0.0,0.0,0.0,0.0,0.0,0.0,0.0,0.0,0.0,0.0,0.0,0.0,0.0,0.0,0.0,0.0,0.0,0.0,0.0,0.0,-2.7906,-3.034,-3.2217,-3.2854,-3.2109,-3.0587,-2.7591,0.0,0.0,0.0,0.0,0.0,0.0,0.0,0.0,0.0,0.0,0.0,0.0,0.0,0.0,0.0,0.0,0.0,0.0,0.0,0.0,0.0,0.0,0.0,0.0,0.0,0.0,0.0,0.0,0.0,0.0,0.0,0.0,0.0,0.0,0.0,0.0,0.0,0.0,0.0,0.0,0.0,0.0,0.0,0.0,0.0,0.0,0.0,0.0,0.0,0.0,0.0,0.0,0.0,0.0,0.0,0.0,0.0,0.0,0.0,0.0,0.0,0.0,0.0,0.0,0.0,0.0,0.0,0.0,0.0,0.0,0.0,0.0,0.0,0.0,0.0,0.0,0.0,0.0,0.0,0.0,0.0,0.0,0.0,0.0,0.0,0.0,0.0,0.0,0.0,0.0,0.0,0.0,0.0,0.0,0.0,0.0,0.0,0.0,0.0,0.0,0.0,0.0,0.0,0.0,0.0,0.0,0.0,0.0,-2.9828,-3.1347,-3.2996,-3.3566,-3.287,-3.036,-2.7526,0.0,0.0,0.0,0.0,0.0,0.0,0.0,0.0,0.0,0.0,0.0,0.0,0.0,0.0,0.0,0.0,0.0,0.0,0.0,0.0,0.0,0.0,0.0,0.0,0.0,0.0,0.0,0.0,0.0,0.0,0.0,0.0,0.0,0.0,0.0,0.0,0.0,0.0,0.0,0.0,0.0,0.0,0.0,0.0,0.0,0.0,0.0,0.0,-1.7011,0.0,0.0,0.0,0.0,0.0,0.0,0.0,0.0,0.0,0.0,0.0,0.0,0.0,0.0,0.0,0.0,0.0,0.0,0.0,0.0,0.0,0.0,0.0,0.0,0.0,0.0,0.0,0.0,0.0,0.0,0.0,0.0,0.0,0.0,0.0,0.0,0.0,0.0,0.0,0.0,0.0,0.0,0.0,0.0,0.0,0.0,0.0,0.0,0.0,0.0,0.0,0.0,0.0,0.0,0.0,0.0,0.0,0.0,0.0,-3.1308,-3.2794,-3.3694,-3.4022,-3.36,-3.1151,-2.8491,0.0,0.0,0.0,0.0,0.0,0.0,0.0,0.0,0.0,0.0,0.0,0.0,0.0,0.0,0.0,0.0,0.0,0.0,0.0,0.0,0.0,0.0,0.0,0.0,0.0,0.0,0.0,0.0,0.0,0.0,0.0,0.0,0.0,0.0,0.0,0.0,0.0,0.0,0.0,0.0,0.0,0.0,0.0,0.0,0.0,0.0,0.0,0.0,0.0,0.0,0.0,0.0,0.0,0.0,0.0,0.0,0.0,0.0,0.0,0.0,0.0,0.0,0.0,0.0,0.0,0.0,0.0,0.0,0.0,0.0,0.0,0.0,0.0,0.0,0.0,0.0,0.0,0.0,0.0,0.0,0.0,0.0,0.0,0.0,0.0,0.0,0.0,0.0,0.0,0.0,0.0,0.0,0.0,0.0,0.0,0.0,0.0,0.0,0.0,0.0,0.0,0.0,0.0,0.0,0.0,0.0,0.0,-3.0125,-3.2207,-3.4101,-3.4279,-3.43,-3.4218,-3.2189,-2.9832,-2.7163,0.0,0.0,0.0,0.0,0.0,0.0,0.0,0.0,0.0,0.0,0.0,0.0,0.0,0.0,0.0,0.0,0.0,0.0,0.0,0.0,0.0,0.0,0.0,0.0,0.0,0.0,0.0,0.0,0.0,0.0,0.0,0.0,0.0,0.0,0.0,0.0,0.0,0.0,-1.6055,-1.877,0.0,0.0,0.0,0.0,0.0,0.0,0.0,0.0,-1.8699,0.0,0.0,0.0,0.0,0.0,0.0,0.0,0.0,0.0,0.0,0.0,0.0,0.0,0.0,0.0,0.0,0.0,0.0,0.0,0.0,0.0,0.0,0.0,0.0,0.0,0.0,0.0,0.0,0.0,0.0,0.0,0.0,0.0,0.0,0.0,0.0,0.0,0.0,0.0,0.0,0.0,0.0,0.0,0.0,0.0,0.0,0.0,0.0,0.0,0.0,0.0,0.0,0.0,0.0,0.0,0.0,-3.0871,-3.0612,-3.1759,-3.4525,-3.4405,-3.425,-3.4118,-3.2707,-3.0668,-2.7865,0.0,0.0,0.0,0.0,0.0,0.0,0.0,0.0,0.0,0.0,0.0,0.0,0.0,0.0,0.0,0.0,0.0,0.0,0.0,0.0,0.0,0.0,0.0,0.0,0.0,0.0,0.0,0.0,0.0,0.0,0.0,0.0,0.0,0.0,0.0,0.0,0.0,0.0,0.0,-2.2485,-2.3894,0.0,0.0,0.0,0.0,0.0,0.0,0.0,0.0,-1.8679,0.0,0.0,0.0,0.0,0.0,0.0,0.0,0.0,0.0,0.0,0.0,0.0,0.0,0.0,0.0,0.0,0.0,0.0,0.0,0.0,0.0,0.0,0.0,0.0,0.0,0.0,0.0,0.0,0.0,0.0,0.0,0.0,0.0,0.0,0.0,0.0,0.0,0.0,0.0,0.0,0.0,0.0,0.0,0.0,0.0,0.0,0.0,0.0,0.0,0.0,0.0,0.0,0.0,0.0,0.0,-3.082,-3.1741,-3.3203,-3.5343,-3.4838,-3.4317,-3.3811,-3.2079,-3.0015,0.0,0.0,0.0,0.0,0.0,0.0,0.0,0.0,0.0,0.0,0.0,0.0,0.0,0.0,0.0,0.0,0.0,0.0,0.0,0.0,0.0,0.0,0.0,0.0,0.0,0.0,0.0,0.0,0.0,0.0,0.0,0.0,0.0,0.0,0.0,0.0,0.0,0.0,0.0,0.0,-2.3642,-2.464,-2.3851,0.0,0.0,0.0,0.0,0.0,0.0,-2.1003,-1.9971,0.0,0.0,0.0,0.0,0.0,0.0,0.0,0.0,0.0,0.0,0.0,0.0,0.0,0.0,0.0,0.0,0.0,0.0,0.0,0.0,0.0,0.0,0.0,0.0,0.0,0.0,0.0,0.0,0.0,0.0,0.0,0.0,0.0,0.0,0.0,0.0,0.0,0.0,0.0,0.0,0.0,0.0,0.0,0.0,0.0,0.0,0.0,0.0,0.0,0.0,0.0,0.0,0.0,0.0,0.0,-3.0428,-3.2511,-3.4404,-3.6044,-3.5299,-3.4424,-3.3541,-3.1511,-2.9403,0.0,0.0,0.0,0.0,0.0,0.0,0.0,0.0,0.0,0.0,0.0,0.0,0.0,0.0,0.0,0.0,0.0,0.0,0.0,0.0,0.0,0.0,0.0,0.0,0.0,0.0,0.0,0.0,0.0,0.0,0.0,0.0,0.0,0.0,0.0,0.0,0.0,0.0,0.0,0.0,0.0,-2.5474,-2.4436,-2.4838,0.0,0.0,0.0,0.0,-2.4049,-2.3585,0.0,0.0,0.0,0.0,0.0,0.0,0.0,0.0,0.0,0.0,0.0,0.0,0.0,0.0,0.0,0.0,0.0,0.0,0.0,0.0,0.0,0.0,0.0,0.0,0.0,0.0,0.0,0.0,0.0,0.0,0.0,0.0,0.0,0.0,0.0,0.0,0.0,0.0,0.0,0.0,0.0,0.0,0.0,0.0,0.0,0.0,0.0,0.0,0.0,0.0,0.0,0.0,0.0,0.0,0.0,0.0,-3.0339,-3.1735,-3.3581,-3.5967,-3.5599,-3.4735,-3.3447,-3.2032,-2.9955,0.0,0.0,0.0,0.0,0.0,0.0,0.0,0.0,0.0,0.0,0.0,0.0,0.0,0.0,0.0,0.0,0.0,0.0,0.0,0.0,0.0,0.0,0.0,0.0,0.0,0.0,0.0,0.0,0.0,0.0,0.0,0.0,0.0,0.0,0.0,0.0,0.0,0.0,0.0,0.0,0.0,-2.8431,-2.624,-2.6,-2.6199,0.0,0.0,-2.6535,-2.8646,-2.8905,0.0,0.0,0.0,0.0,0.0,0.0,0.0,0.0,0.0,0.0,0.0,0.0,0.0,0.0,0.0,0.0,0.0,0.0,0.0,0.0,0.0,0.0,0.0,0.0,0.0,0.0,0.0,0.0,0.0,0.0,0.0,0.0,0.0,0.0,0.0,0.0,0.0,0.0,0.0,0.0,0.0,0.0,0.0,0.0,0.0,0.0,0.0,0.0,0.0,0.0,0.0,0.0,0.0,0.0,0.0,-2.671,-3.041,-3.2525,-3.4425,-3.6061,-3.5732,-3.47,-3.3057,-3.1209,-2.8923,0.0,0.0,0.0,0.0,0.0,0.0,0.0,0.0,0.0,0.0,0.0,0.0,0.0,0.0,0.0,0.0,0.0,0.0,0.0,0.0,0.0,0.0,0.0,0.0,0.0,0.0,0.0,0.0,0.0,0.0,0.0,0.0,0.0,0.0,0.0,0.0,0.0,0.0,0.0,0.0,0.0,0.0,-2.8377,-2.863,0.0,0.0,0.0,-2.8768,-3.0243,0.0,0.0,0.0,0.0,0.0,0.0,0.0,0.0,0.0,0.0,0.0,0.0,0.0,0.0,0.0,0.0,0.0,0.0,0.0,0.0,0.0,0.0,0.0,0.0,0.0,0.0,0.0,0.0,0.0,0.0,0.0,0.0,0.0,0.0,0.0,0.0,0.0,0.0,0.0,0.0,0.0,0.0,0.0,0.0,0.0,0.0,0.0,0.0,0.0,0.0,0.0,0.0,0.0,0.0,0.0,0.0,0.0,-3.0493,-3.3315,-3.5297,-3.6329,-3.5977,-3.4817,-3.2917,-3.0809,0.0,0.0,0.0,0.0,0.0,0.0,0.0,0.0,0.0,0.0,0.0,0.0,0.0,0.0,0.0,0.0,0.0,0.0,0.0,0.0,0.0,0.0,0.0,0.0,0.0,0.0,0.0,-1.1682,0.0,0.0,0.0,0.0,0.0,0.0,0.0,0.0,0.0,0.0,0.0,0.0,0.0,0.0,-3.0132,-3.0192,-3.1065,-3.1637,0.0,0.0,-3.1581,-3.2581,-3.2384,-3.0932,0.0,0.0,0.0,0.0,0.0,0.0,0.0,0.0,0.0,0.0,0.0,0.0,0.0,0.0,0.0,0.0,0.0,0.0,0.0,0.0,0.0,0.0,0.0,0.0,0.0,0.0,0.0,0.0,0.0,0.0,0.0,0.0,0.0,0.0,0.0,0.0,0.0,0.0,0.0,0.0,0.0,0.0,0.0,0.0,0.0,0.0,0.0,0.0,0.0,0.0,0.0,0.0,0.0,0.0,-2.7424,-3.0475,-3.3583,-3.5704,-3.679,-3.6381,-3.5274,-3.3389,-3.1433,-2.8771,0.0,0.0,0.0,0.0,0.0,0.0,0.0,0.0,0.0,0.0,0.0,0.0,0.0,0.0,0.0,0.0,0.0,0.0,0.0,0.0,0.0,0.0,0.0,0.0,0.0,0.0,0.0,0.0,0.0,0.0,0.0,0.0,0.0,0.0,0.0,0.0,0.0,0.0,0.0,0.0,0.0,-3.101,-3.1274,-3.2603,-3.4234,0.0,-3.5622,-3.5678,-3.7195,-3.7922,-3.6289,-3.0092,0.0,0.0,0.0,0.0,0.0,0.0,0.0,0.0,0.0,0.0,0.0,0.0,0.0,0.0,0.0,0.0,0.0,0.0,0.0,0.0,0.0,0.0,0.0,0.0,0.0,0.0,0.0,0.0,0.0,0.0,0.0,0.0,0.0,0.0,0.0,0.0,0.0,0.0,0.0,0.0,0.0,0.0,0.0,0.0,0.0,0.0,0.0,0.0,0.0,0.0,0.0,0.0,0.0,-2.787,-3.0493,-3.4097,-3.6273,-3.6847,-3.6741,-3.5937,-3.4545,-3.2878,-3.0245,0.0,0.0,0.0,0.0,0.0,0.0,0.0,0.0,0.0,0.0,0.0,0.0,0.0,0.0,0.0,0.0,0.0,0.0,0.0,0.0,0.0,0.0,0.0,0.0,0.0,0.0,0.0,0.0,-1.7669,-1.8445,-1.8768,0.0,0.0,0.0,0.0,0.0,0.0,0.0,0.0,0.0,0.0,-3.411,-3.568,-3.6592,0.0,0.0,-3.7508,-3.734,-3.8404,-3.6686,-3.421,-3.1266,-2.868,0.0,0.0,0.0,0.0,0.0,0.0,0.0,0.0,0.0,0.0,0.0,0.0,0.0,0.0,0.0,0.0,0.0,0.0,0.0,0.0,0.0,0.0,0.0,0.0,0.0,0.0,0.0,0.0,0.0,0.0,0.0,0.0,0.0,0.0,0.0,0.0,0.0,0.0,0.0,0.0,0.0,0.0,0.0,0.0,0.0,0.0,0.0,0.0,0.0,0.0,0.0,0.0,-2.8147,-3.0503,-3.438,-3.6612,-3.7094,-3.6978,-3.6431,-3.5387,-3.3779,-3.1251,0.0,0.0,0.0,0.0,0.0,0.0,0.0,0.0,0.0,0.0,0.0,0.0,0.0,0.0,0.0,0.0,0.0,0.0,0.0,0.0,0.0,0.0,0.0,0.0,0.0,0.0,0.0,0.0,-1.9849,-1.9975,-1.956,0.0,0.0,0.0,0.0,0.0,0.0,0.0,0.0,0.0,0.0,-3.6413,-3.8472,-3.9184,-3.9554,-3.9705,-3.884,-3.8384,-3.9182,-3.6857,-3.4394,-3.2598,0.0,0.0,0.0,0.0,0.0,0.0,0.0,0.0,0.0,0.0,0.0,0.0,0.0,0.0,0.0,0.0,0.0,0.0,0.0,0.0,0.0,0.0,0.0,0.0,0.0,0.0,0.0,-2.1039,0.0,0.0,-1.9707,0.0,0.0,0.0,0.0,0.0,0.0,0.0,0.0,0.0,0.0,0.0,0.0,0.0,0.0,0.0,0.0,0.0,0.0,0.0,0.0,0.0,0.0,-2.8192,-3.0513,-3.4443,-3.6809,-3.7577,-3.715,-3.657,-3.5797,-3.3932,-3.151,-2.8481,0.0,0.0,0.0,0.0,0.0,0.0,0.0,0.0,0.0,0.0,0.0,0.0,0.0,0.0,0.0,0.0,0.0,0.0,0.0,0.0,0.0,0.0,0.0,0.0,0.0,0.0,-1.9993,-2.0246,-1.9721,0.0,0.0,0.0,0.0,0.0,0.0,0.0,0.0,0.0,-3.1781,-3.4945,-3.7484,-3.884,-3.9704,-4.0504,-4.1085,-3.9794,-3.8999,-3.9791,-3.9735,-3.8374,0.0,0.0,0.0,0.0,0.0,0.0,0.0,0.0,0.0,0.0,0.0,0.0,0.0,0.0,0.0,0.0,0.0,0.0,0.0,0.0,0.0,0.0,0.0,0.0,0.0,0.0,0.0,-2.583,-2.5289,0.0,0.0,0.0,0.0,0.0,0.0,0.0,0.0,0.0,0.0,0.0,-3.26,-3.3436,0.0,0.0,0.0,0.0,0.0,0.0,0.0,0.0,0.0,0.0,0.0,0.0,-2.9743,-3.2141,-3.548,-3.7613,-3.8366,-3.7717,-3.7232,-3.7003,-3.5845,-3.3511,-2.992,0.0,0.0,0.0,0.0,0.0,0.0,0.0,0.0,0.0,0.0,0.0,0.0,0.0,0.0,0.0,0.0,0.0,0.0,0.0,0.0,0.0,0.0,0.0,0.0,0.0,-2.0264,0.0,0.0,0.0,0.0,0.0,0.0,0.0,0.0,0.0,0.0,-2.8757,-3.1781,-3.495,-3.784,-4.002,-4.0996,-4.2207,-4.2893,0.0,0.0,0.0,0.0,0.0,0.0,0.0,0.0,0.0,0.0,0.0,0.0,0.0,-4.0186,-4.0133,-3.2594,-3.1058,-3.0863,-3.054,0.0,0.0,0.0,0.0,0.0,0.0,0.0,0.0,0.0,0.0,0.0,0.0,0.0,0.0,-2.9605,-2.9302,-2.809,0.0,0.0,0.0,0.0,0.0,0.0,0.0,0.0,-3.4104,-3.6017,-3.6798,-3.7596,-3.6904,0.0,-3.3826,-3.101,0.0,0.0,0.0,0.0,0.0,0.0,0.0,0.0,-3.0939,-3.3345,-3.6665,-3.8649,-3.9115,-3.8417,-3.8005,-3.7987,-3.6684,-3.4526,-3.1439,-2.9084,-2.7264,0.0,0.0,0.0,0.0,0.0,0.0,0.0,0.0,0.0,0.0,0.0,0.0,0.0,0.0,0.0,0.0,0.0,0.0,0.0,0.0,0.0,0.0,0.0,-2.1855,0.0,0.0,0.0,0.0,0.0,0.0,0.0,0.0,0.0,-2.9916,-3.2451,-3.5349,-3.8246,-4.0391,-4.1852,-4.2322,0.0,0.0,0.0,0.0,0.0,0.0,0.0,-3.9024,-3.9537,-3.8359,-3.7447,-3.7886,-4.144,-4.3855,-4.2718,0.0,0.0,-3.7909,-3.6348,-3.6176,-3.619,-3.7281,-3.8327,-3.8631,-4.0024,-4.1017,0.0,0.0,0.0,0.0,0.0,0.0,0.0,0.0,-3.2915,-3.278,0.0,-3.1637,0.0,0.0,0.0,0.0,-2.6526,-3.2451,0.0,0.0,-4.0327,-4.2333,-4.1571,-4.0847,-3.9981,-3.9084,-3.9278,-3.774,-3.4335,-2.7456,0.0,0.0,0.0,0.0,0.0,0.0,-3.1818,-3.4314,-3.7987,-3.9911,-3.9921,-3.9233,-3.8843,-3.879,-3.6595,-3.465,-3.313,-3.2224,-3.0725,-2.8441,-2.6104,0.0,0.0,0.0,0.0,0.0,0.0,0.0,0.0,0.0,0.0,0.0,0.0,0.0,0.0,0.0,0.0,0.0,0.0,0.0,0.0,-2.3168,0.0,0.0,0.0,0.0,0.0,0.0,0.0,0.0,0.0,-3.4787,-3.4878,-3.6816,-3.9115,-4.1361,0.0,0.0,0.0,0.0,-4.2733,-4.2616,-4.1916,-4.1484,-4.1484,-4.2784,-4.3247,-4.1784,0.0,0.0,-4.2088,-4.49,-4.6635,-4.3545,-4.5837,-4.7571,-4.6652,-4.4268,-4.2707,-4.2618,-4.221,-4.2129,-4.2926,-4.4456,-4.5564,-3.9719,0.0,0.0,0.0,0.0,-3.7376,-3.8956,-4.1774,-4.0542,-3.9439,-3.849,-3.7217,0.0,0.0,0.0,0.0,0.0,0.0,-3.6742,-3.9008,-4.0438,-4.1869,-4.328,-4.3076,-4.2507,-4.1668,-4.0804,-3.9641,-3.8027,-3.4483,-3.0332,-2.5747,0.0,0.0,0.0,0.0,-3.5041,-3.7381,-3.9078,-4.0182,-4.0717,-3.9985,-3.9611,-3.9593,-3.8415,-3.7291,-3.6274,-3.4936,-3.3366,-3.1599,-2.9333,0.0,0.0,0.0,0.0,0.0,0.0,0.0,0.0,0.0,0.0,0.0,0.0,0.0,0.0,0.0,0.0,0.0,0.0,0.0,-2.2467,-2.2839,-2.3265,0.0,0.0,0.0,0.0,0.0,0.0,0.0,0.0,0.0,-4.0364,-4.0111,-4.0293,0.0,0.0,-4.2867,-4.285,-4.3756,-4.4662,-4.517,-4.5469,0.0,-4.5634,-4.509,-4.4887,-4.5599,-4.7105,-4.7813,-4.6934,-4.8767,-5.0043,-4.9039,-5.025,-5.1252,-5.0866,-4.8461,-4.6266,-4.566,-4.6644,-4.78,-4.8197,-4.948,-5.0608,-4.5797,-4.2874,-4.0854,-4.0777,-4.1953,-4.1607,-4.3002,-4.546,-4.458,-4.3586,-4.2548,-4.1864,-3.9454,-3.5887,-3.5219,0.0,0.0,0.0,-3.9807,-4.2333,-4.2667,-4.3596,-4.4915,-4.4674,-4.4079,-4.325,-4.2364,-4.1601,-4.099,-3.9301,-3.602,-3.1332,0.0,-3.1617,-3.1069,-3.4418,-3.7167,-3.9188,-4.0292,-4.1074,-4.1542,-4.077,-4.0235,-3.9914,-3.9486,-3.9022,-3.8522,-3.7577,-3.6345,-3.4793,-3.2813,-3.0136,0.0,0.0,0.0,0.0,0.0,0.0,0.0,0.0,0.0,0.0,0.0,-1.8663,-1.6185,0.0,0.0,0.0,-2.1635,-2.3652,-2.5303,-2.6049,0.0,0.0,0.0,0.0,0.0,0.0,0.0,-3.8554,-4.0943,-4.2759,-4.3735,-4.3027,-4.2701,-4.3516,-4.3751,-4.3919,-4.4034,0.0,-4.589,-4.6488,-4.7043,-4.7397,-4.7378,-4.691,-4.7131,-4.8808,-4.9542,-5.0081,-5.043,-5.1351,-5.1961,-5.2087,-5.2455,-5.2785,-5.2785,-5.1123,-4.9652,-4.9143,-5.0206,-5.1228,-5.1291,-5.2098,-5.2785,-5.0683,-5.0298,-4.5643,-4.4143,-4.4837,-4.538,-4.5871,-4.6316,-4.6129,-4.5825,-4.5555,-4.5536,-4.3813,-4.081,-3.9268,0.0,-3.9881,-4.2092,-4.3931,-4.5491,-4.6197,-4.6513,-4.6475,-4.5732,-4.4971,-4.4209,-4.3826,-4.3518,-4.3233,-4.2157,-4.0416,-3.7988,-3.5828,-3.4972,-3.5471,-3.7041,-3.8611,-4.0092,-4.1538,-4.2287,-4.2269,-4.1573,-4.0842,-4.0128,-3.9968,-3.9896,-3.9896,-3.9789,-3.9075,-3.763,-3.6131,-3.3624,-2.996,0.0,0.0,0.0,0.0,0.0,0.0,0.0,0.0,0.0,0.0,0.0,0.0,0.0,0.0,-2.2982,-2.5773,0.0,-2.9746,-3.1343,0.0,0.0,0.0,-3.4208,-3.5331,-3.8627,-4.1107,-4.1904,0.0,0.0,-4.549,-4.5599,-4.5961,-4.6685,-4.5943,-4.5428,-4.5791,-4.6205,-4.6592,-4.7061,-4.7391,-4.7643,-4.7965,-4.8605,-4.9676,-5.1141,-5.1604,-5.1789,-5.24,-5.2743,-5.2806,-5.29,-5.2938,-5.3053,-5.3015,-5.2977,-5.2996,-5.2886,-5.2862,-5.2895,-5.2875,-5.3009,-5.3168,-5.0683,-5.0606,-4.9394,-4.9009,-4.9144,-4.9056,-4.9071,-4.9172,-4.892,-4.8306,-4.7417,-4.7435,-4.6545,-4.5026,-4.4618,-4.4896,-4.5658,-4.5621,-4.616,-4.707,-4.6698,-4.6513,-4.6494,-4.629,-4.6104,-4.583,-4.4761,-4.4163,-4.4071,-4.2778,-4.1797,-4.1163,-4.061,-3.9236,-3.7184,-3.9182,-4.0735,-4.1734,-4.2091,-4.2287,-4.2287,-4.2109,-4.193,-4.1734,-4.0538,-3.9896,-3.9878,-3.8754,-3.7969,-3.7577,-3.6649,-3.5172,-3.3055,-2.9438,0.0,0.0,0.0,0.0,0.0,0.0,0.0,0.0,0.0,-2.5229,-2.0109,0.0,-2.723,0.0,-2.9784,-3.1649,-3.1549,-3.3027,0.0,0.0,-3.7305,-3.8572,-4.2321,-4.3045,-4.3552,-4.4349,-4.6535,-4.7802,-4.721,-4.8218,-4.905,-4.9166,-4.6957,-4.5548,-4.623,-4.6893,-4.7568,-4.8278,-4.8897,-4.9538,-5.0163,-5.1087,-5.1846,-5.2398,-5.2474,-5.2551,-5.2742,-5.3334,-5.3773,-5.3817,-5.4352,-5.4715,-5.4734,-5.4791,-5.4753,-5.4734,-5.4276,-5.3773,-5.3805,-5.4308,-5.4772,-5.1471,-5.1798,-5.1818,-5.1798,-5.1741,-5.083,-5.0336,-5.0183,-4.9917,-4.9145,-4.8101,-4.7985,-4.7807,-4.7553,-4.7181,-4.7274,-4.7646,-4.7237,-4.7274,-4.7683,-4.7608,-4.7367,-4.7051,-4.7033,-4.6847,-4.6475,-4.569,-4.5258,-4.5059,-4.4189,-4.353,-4.3068,-4.2887,-4.177,-3.9825,-4.0985,-4.1841,-4.2287,-4.2287,-4.2287,-4.2287,-4.2287,-4.2109,-4.1752,-4.0913,-4.011,-3.9432,-3.8576,-3.7809,-3.7095,-3.6649,-3.5687,-3.4164,-3.1671,-2.944,0.0,0.0,0.0,0.0,0.0,0.0,0.0,0.0,0.0,0.0,0.0,-3.0712,-3.1464,-3.3844,-3.5595,-3.632,-3.7851,-3.9695,-4.1814,-4.2266,-4.348,-4.6106,-4.6613,-4.6939,-4.7391,-4.8623,-4.9293,-4.8858,-4.9539,-5.0118,-5.009,-4.8743,-4.7882,-4.8324,-4.8845,-4.9443,-5.0079,-5.064,-5.1187,-5.1774,-5.2254,-5.2806,-5.327,-5.3378,-5.3473,-5.3874,-5.4333,-5.4677,-5.4715,-5.5078,-5.5403,-5.5403,-5.5403,-5.5403,-5.5345,-5.5021,-5.469,-5.4709,-5.5071,-5.5403,-5.2528,-5.3183,-5.3203,-5.3203,-5.3087,-5.1645,-5.0851,-5.0554,-5.024,-4.9542,-4.8558,-4.8296,-4.8556,-4.9169,-4.837,-4.8017,-4.7999,-4.7906,-4.785,-4.7906,-4.8574,-4.8537,-4.7868,-4.785,-4.7478,-4.6828,-4.6665,-4.6437,-4.6173,-4.5791,-4.5085,-4.4159,-4.3835,-4.3328,-4.2626,-4.2501,-4.2394,-4.2287,-4.2287,-4.2287,-4.2287,-4.2287,-4.1912,-4.1145,-4.0913,-4.0128,-3.8736,-3.8665,-3.8023,-3.6649,-3.6738,-3.6203,-3.4775,-3.374,-3.2224,0.0,-2.9815,0.0,0.0,0.0,0.0,0.0,0.0,0.0,0.0,-3.388,-3.4889,-3.6161,-3.7969,-3.9839,-4.183,-4.3552,-4.4838,-4.5562,-4.7047,-4.8025,-4.8061,-4.9257,-5.009,-5.009,-5.018,-5.0234,-5.0234,-5.0307,-5.0397,-5.0602,-5.0775,-5.0897,-5.113,-5.1176,-5.1295,-5.1874,-5.227,-5.2532,-5.2731,-5.2853,-5.3274,-5.4039,-5.4225,-5.4499,-5.5129,-5.5345,-5.5384,-5.5365,-5.5365,-5.5403,-5.5403,-5.5403,-5.5403,-5.5403,-5.5365,-5.5326,-5.5345,-5.5345,-5.5403,-5.3065,-5.3203,-5.3203,-5.3203,-5.3183,-5.2856,-5.2701,-5.2619,-5.2075,-5.1563,-5.1078,-5.0796,-5.0766,-5.0878,-5.0079,-4.9707,-4.9615,-4.8964,-4.8686,-4.8686,-4.8834,-4.8834,-4.8686,-4.8667,-4.8612,-4.8407,-4.7568,-4.7129,-4.7021,-4.6066,-4.536,-4.4899,-4.4818,-4.4599,-4.4143,0.0,0.0,0.0,-4.2287,-4.2287,-4.2287,-4.2287,-4.1912,-4.1109,-3.9896,0.0,-3.788,-3.7826,-3.7666,-3.7434,-3.8558,0.0,0.0,0.0,0.0,0.0,0.0,0.0,0.0,0.0,0.0,0.0,-3.6696,-3.5522,-3.5235,-3.8567,-4.0415,-3.9626,-4.2117,-4.375,-4.3595,-4.5667,-4.7083,-4.7283,-4.8677,-4.9637,-4.9637,-4.9927,-5.009,-5.0108,-5.0651,-5.1067,-5.1104,-5.1611,-5.2154,-5.2352,-5.2595,-5.2905,-5.3493,-5.2514,-5.1846,-5.1944,-5.2829,-5.3442,-5.3556,-5.4107,-5.4467,-5.4893,-5.4947,-5.5057,-5.521,-5.5358,-5.5403,-5.5403,-5.5403,-5.5403,-5.5403,-5.5403,-5.5403,-5.5403,-5.5403,-5.5403,-5.5403,-5.5403,-5.5403,-5.4086,-5.4434,-5.4434,-5.4453,0.0,-5.4434,-5.435,-5.4158,-5.284,-5.2039,-5.1591,-5.1452,-5.1398,-5.1379,-5.0989,-5.0766,-5.0729,-5.032,-5.0135,-5.0135,-5.0135,-4.9912,-4.9503,-4.9503,-4.928,-4.889,-4.8324,-4.8085,-4.8049,-4.7334,-4.6725,-4.6189,-4.6033,-4.5675,-4.5093,-4.4551,-4.3632,-4.2287,-4.2287,-4.2287,-4.2287,-4.2287,-4.1912,-4.1127,-4.0342,0.0,0.0,0.0,0.0,0.0,0.0,0.0,0.0,0.0,0.0,-3.8113,-3.7755,-3.7577,-3.7703,-3.8814,-4.0233,-4.1854,-4.2096,-4.1323,-3.9319,-4.2067,-4.3733,-4.3454,-4.5245,-4.6434,-4.6494,-4.791,-4.8876,-4.8931,-4.9963,-5.0669,-5.0705,-5.1049,-5.1267,-5.1303,-5.1629,-5.1882,-5.1882,-5.2399,-5.2857,-5.3096,-5.3487,-5.3814,-5.4137,-5.362,-5.316,-5.334,-5.3834,-5.4314,-5.44,-5.4686,-5.5038,-5.5104,-5.5159,-5.5203,-5.5203,-5.5294,-5.5403,-5.5403,-5.5403,-5.5403,-5.5403,-5.5403,-5.5403,-5.5403,-5.5403,-5.5403,-5.5403,-5.5403,-5.5403,-5.5105,-5.5684,-5.5684,-5.5684,-5.5684,-5.5684,-5.5527,-5.5096,-5.3386,0.0,0.0,-5.1806,-5.1825,-5.1806,-5.1676,-5.1621,-5.1602,-5.1472,-5.1398,-5.1398,-5.1398,-5.1026,-5.0339,-5.0339,-5.0005,-4.9355,-4.9187,-4.9113,-4.9094,-4.8697,-4.8145,-4.75,-4.7221,-4.6627,-4.5783,-4.5454,-4.4466,-4.2792,-4.2573,-4.2519,-4.2501,-4.2358,-4.1912,-4.1127,-4.0967,-4.0235,-3.8861,-3.895,-3.8701,-3.8058,-3.8255,-3.9004,-4.0235,-4.0342,-4.0985,-4.2394,-4.3126,-4.3424,-4.313,-4.4337,-4.4994,-4.4841,-4.6345,-4.6313,-4.4035,-4.5088,-4.623,-4.7083,-4.7735,-4.8421,-4.9075,-4.9836,-5.0307,-5.0307,-5.1013,-5.152,-5.1538,-5.2063,-5.2408,-5.2498,-5.2518,-5.2599,-5.2608,-5.295,-5.3244,-5.3407,-5.3851,-5.4349,-5.4401,-5.4373,-5.4382,-5.464,-5.4769,-5.4882,-5.4939,-5.496,-5.5009,-5.5066,-5.5142,-5.5176,-5.5229,-5.5294,-5.5403,-5.5403,-5.5403,-5.5403,-5.5403,-5.5403,-5.5403,-5.5403,-5.5403,-5.5403,-5.5403,-5.5403,-5.5403,-5.5588,-5.5684,-5.5684,-5.5684,-5.5684,-5.5684,-5.5375,-5.4817,-5.4282,-5.3805,-5.346,-5.346,-5.3478,-5.3423,-5.2754,-5.2419,-5.2382,-5.1714,-5.1398,-5.1398,-5.1398,-5.1342,-5.1231,-5.1231,-5.1156,-5.0989,-5.0283,-4.993,-4.9856,-4.9227,-4.864,-4.8311,-4.818,-4.7529,-4.63,-4.6163,-4.5504,-4.4285,-4.3661,-4.334,-4.3322,-4.2644,-4.1912,-4.1109,-4.0485,-3.97,-3.8861,-3.945,-3.97,-3.9629,-4.0895,-4.1716,-4.193,-4.1984,-4.2376,-4.3251,-4.3477,-4.4133,-4.5387,-4.5863,-4.6717,-4.8091,-4.9419,-4.9515,-4.8188,-4.8272,-4.8743,-4.9492,-4.9621,-4.982,-4.9981,-5.0651,-5.1122,-5.1176,-5.1828,-5.2299,-5.2309,-5.2435,-5.2526,-5.2572,-5.2806,-5.303,-5.3054,-5.3385,-5.3795,-5.4071,-5.4399,-5.4491,-5.485,-5.4841,-5.4841,-5.4901,-5.4901,-5.4901,-5.492,-5.492,-5.4941,-5.4981,-5.5075,-5.5149,-5.5183,-5.5294,-5.5403,-5.5403,-5.5403,-5.5403,-5.5403,-5.5403,-5.5403,-5.5403,-5.5403,-5.5403,-5.5403,-5.5422,-5.5441,-5.5618,-5.5485,-5.5485,-5.5485,-5.5461,-5.5295,-5.5064,-5.4746,-5.4246,-5.3944,-5.3794,-5.3813,-5.3813,-5.3775,-5.3423,-5.3255,-5.3237,-5.2865,-5.2698,-5.2698,-5.2698,-5.2475,-5.2085,-5.2067,-5.1825,-5.1398,-5.1008,-5.0803,-5.0766,-5.0432,-4.9933,-4.9325,-4.8881,-4.8274,-4.7505,-4.7288,-4.6879,-4.618,-4.48,-4.4107,-4.4089,-4.375,-4.3393,-4.3019,-4.2644,-4.2323,-4.1984,-4.2287,-4.2465,-4.2465,-4.3161,-4.375,-4.4161,-4.4203,-4.4578,-4.532,-4.54,-4.5988,-4.716,-4.7885,-4.8638,-4.9474,-5.0245,-5.0688,-5.0574,-5.013,-4.995,-5.0115,-5.0461,-5.0733,-5.076,-5.1466,-5.1937,-5.1937,-5.2299,-5.2599,-5.2806,-5.2831,-5.29,-5.312,-5.3308,-5.3428,-5.341,-5.4149,-5.4705,-5.4956,-5.5291,-5.5729,-5.6109,-5.5637,-5.5139,-5.4966,-5.4901,-5.4901,-5.4901,-5.4912,-5.4981,-5.4998,-5.5083,-5.5157,-5.5203,-5.5313,-5.5422,-5.5403,-5.5403,-5.5403,-5.5422,-5.5403,-5.5403,-5.5403,-5.5403,-5.5403,-5.5422,-5.5708,-5.5899,-5.5495,-5.5288,-5.5217,-5.5191,-5.5183,-5.4836,-5.4666,-5.4623,-5.4054,-5.3813,-5.3813,-5.3813,-5.3813,-5.3813,-5.3813,-5.3813,-5.3813,-5.3813,-5.3794,-5.3813,-5.3813,-5.346,-5.2921,-5.2865,-5.2549,-5.1974,-5.1769,-5.1676,-5.1658,-5.1491,-5.1063,-5.0395,-4.9782,-4.9305,-4.8973,-4.8498,-4.8084,-4.7674,-4.6032,-4.5071,-4.4892,-4.4714,-4.4607,-4.4607,-4.4589,-4.4607,-4.4607,-4.4607,-4.4607,-4.4607,-4.4607,-4.4981,-4.5731,-4.5998,-4.6427,-4.7186,-4.7472,-4.7857,-4.8586,-4.9577,-5.0227,-5.0317,-5.0968,-5.1562,-5.193,-5.1673,-5.1206,-5.0939,-5.1284,-5.1574,-5.1629,-5.2082,-5.2498,-5.2498,-5.2679,-5.2926,-5.3193,-5.3476,-5.3737,-5.4044,-5.4278,-5.4429,-5.4578,-5.528,-5.5898,-5.603,-5.6415,-5.6895,-5.7162,-5.6451,-5.5743,-5.5479,-5.5166,-5.492,-5.492,-5.5158,-5.5284,-5.5303,-5.5625,-5.5862,-5.5954,-5.5969,-5.5995,-5.6071,-5.5823,-5.5899,-5.5919,-5.5804,-5.5842,-5.604,-5.6174,-5.6091,-5.6148,-5.6511,-5.6721,-5.5331,-5.5236,-5.4971,-5.4836,-5.4806,-5.4495,-5.4364,-5.4315,-5.3963,-5.3813,-5.3813,-5.3813,-5.3813,-5.3813,-5.3813,-5.3813,-5.3813,-5.3813,-5.3813,-5.3813,-5.3813,-5.3757,-5.3664,-5.3664,-5.3645,-5.3441,-5.2828,-5.2494,-5.2457,-5.1769,-5.1379,-5.1286,-5.1193,-5.0935,-5.0577,-4.96,-4.8925,-4.8601,-4.7375,-4.6427,-4.5695,-4.4981,-4.4607,-4.4607,-4.4624,-4.4607,-4.4749,-4.4607,-4.4642,-4.4607,-4.4714,-4.5035,-4.5784,-4.6534,-4.7268,-4.8043,-4.8822,-4.9392,-4.9639,-5.0433,-5.104,-5.114,-5.2504,-5.3071,-5.2597,-5.3023,-5.3269,-5.2872,-5.2568,-5.2363,-5.2371,-5.2544,-5.2681,-5.2854,-5.3298,-5.3585,-5.3808,-5.4637,-5.5287,-5.5331,-5.5901,-5.6514,-5.638,-5.6823,-5.7156,-5.7205,-5.7137,-5.7181,-5.747,-5.7092,-5.682,-5.6778,-5.5981,-5.5091,-5.511,-5.5602,-5.6053,-5.6293,-5.6873,-5.7177,-5.7298,-5.7401,-5.7638,-5.7122,-5.6931,-5.6759,-5.7084,-5.7103,-5.6785,-5.7155,-5.7378,-5.76,-5.7657,-5.7695,-5.7676,-5.5179,-5.4971,-5.4635,-5.4495,-5.4463,-5.433,-5.4296,-5.4281,-5.3926,-5.3813,-5.3813,-5.3813,-5.3813,-5.3813,-5.3813,-5.3813,-5.3813,-5.3813,-5.3813,-5.3813,-5.3813,-5.3813,-5.3813,-5.3813,-5.3813,-5.3794,-5.346,-5.3311,-5.3181,-5.2494,-5.2104,-5.2048,-5.1639,-5.1306,-5.1157,-5.0556,-5.0098,-4.9976,-4.944,-4.8986,-4.8356,-4.6864,-4.6016,-4.6034,-4.6016,-4.6248,-4.6676,-4.673,-4.6926,-4.7354,-4.7617,-4.7895,-4.8219,-4.8731,-4.9145,-4.9539,-5.0307,-5.0856,-5.1061,-5.1871,-5.2413,-5.2606,-5.3497,-5.3888,-5.3624,-5.3888,-5.413,-5.4329,-5.3529,-5.3076,-5.3774,-5.3705,-5.384,-5.4479,-5.4734,-5.4846,-5.5135,-5.5791,-5.6234,-5.6273,-5.6774,-5.7173,-5.7248,-5.7724,-5.8197,-5.8389,-5.8274,-5.8253,-5.8415,-5.7952,-5.774,-5.7894,-5.7118,-5.6474,-5.6372,-5.6649,-5.6975,-5.711,-5.7387,-5.772,-5.7843,-5.7859,-5.7886,-5.7944,-5.76,-5.7466,-5.7714,-5.7695,-5.755,-5.7951,-5.7963,-5.8023,-5.849,-5.8612,-5.8784,-5.4879,-5.4642,-5.4296,-5.4161,-5.4142,-5.4142,-5.4161,-5.4161,-5.3907,-5.3924,-5.4128,-5.4128,-5.4258,-5.4407,-5.4035,-5.3813,-5.3813,-5.3813,-5.3813,-5.3813,-5.3813,-5.3813,-5.3813,-5.3813,-5.3813,-5.3813,-5.3794,-5.3794,-5.3738,-5.3255,-5.2958,-5.2902,-5.24,-5.2158,-5.2175,-5.1695,-5.1415,-5.134,-5.1021,-5.0717,-5.0332,-4.8926,-4.7993,-4.785,-4.7805,-4.8046,-4.8443,-4.8496,-4.8793,-4.9406,-4.9739,-4.9965,-5.0053,-5.047,-5.0842,-5.1136,-5.1655,-5.2095,-5.2327,-5.292,-5.3484,-5.3923,-5.4351,-5.4712,-5.4811,-5.4903,-5.5242,-5.566,-5.4793,-5.4566,-5.502,-5.5003,-5.5277,-5.6057,-5.5932,-5.5994,-5.641,-5.693,-5.7342,-5.7431,-5.7918,-5.8085,-5.818,-5.8653,-5.9086,-5.9279,-5.9359,-5.938,-5.9342,-5.8907,-5.8672,-5.8943,-5.8445,-5.7927,-5.7559,-5.7666,-5.7791,-5.7973,-5.8206,-5.8559,-5.8434,-5.8547,-5.8593,-5.9033,-5.8536,-5.8421,-5.8765,-5.867,-5.8383,-5.8536,-5.8604,-5.8729,-5.9357,-5.9434,-5.9701,-5.4327,-5.4262,-5.3944,-5.3869,-5.3851,-5.3888,-5.3869,-5.4056,-5.3887,-5.4277,-5.4909,-5.4964,-5.5391,-5.5986,-5.4593,-5.385,-5.3868,-5.3943,-5.3961,-5.3961,-5.3924,-5.385,-5.3813,-5.3813,-5.385,-5.4035,-5.4054,-5.3961,-5.3868,-5.3757,-5.387,-5.3961,-5.3831,-5.3994,-5.3949,-5.3065,-5.2621,-5.2529,-5.1732,-5.1082,-5.1082,-5.0933,-5.0486,-4.9908,-4.9731,-4.9495,-4.9311,-4.9264,-4.946,-4.9866,-4.9965,-5.0108,-5.0411,-5.1182,-5.1959,-5.2714,-5.2892,-5.3033,-5.3278,-5.3545,-5.3956,-5.4648,-5.5246,-5.5655,-5.6033,-5.6311,-5.657,-5.6762,-5.6648,-5.6453,-5.6323,-5.6201,-5.6193,-5.6418,-5.6583,-5.6916,-5.7305,-5.8024,-5.8625,-5.8953,-5.9254,-5.9468,-5.9658,-5.9809,-5.972,-5.9748,-5.982,-5.9801,-5.9734,-5.9725,-5.9701,-5.9734,-5.9563,-5.9203,-5.7908,-5.8167,-5.8684,-5.887,-5.9253,-5.9951,-6.0189,-6.0274,-6.0198,-6.0007,-5.9453,-5.9376,-5.9854,-5.9911,-5.9625,-5.9644,-5.9835,-6.0083,-5.9969,-6.0217,-6.0351,-5.4164,-5.3963,-5.3851,-5.4091,-5.4556,-5.4574,-5.4871,-5.5391,-5.5391,-5.5559,-5.58,-5.5819,-5.6004,-5.6265,-5.5689,-5.541,-5.541,-5.5391,-5.5391,-5.5391,-5.5391,-5.541,-5.5391,-5.541,-5.541,-5.541,-5.541,-5.5113,-5.4537,-5.4054,-5.3851,-5.387,-5.3907,-5.4018,-5.4106,-5.3809,-5.366,-5.3746,-5.3444,-5.3259,-5.3174,-5.3259,-5.3011,-5.237,-5.0824,-5.0198,-5.057,-5.0223,-5.0347,-5.1011,-5.1501,-5.1799,-5.1992,-5.2614,-5.3139,-5.3516,-5.3995,-5.4422,-5.4764,-5.5286,-5.5844,-5.6353,-5.6564,-5.6781,-5.6945,-5.7106,-5.7399,-5.7838,-5.8008,-5.8121,-5.8353,-5.7877,-5.7715,-5.8368,-5.8371,-5.8287,-5.8615,-5.9046,-5.9399,-5.9307,-5.9594,-5.9885,-5.9853,-5.9628,-5.9451,-5.9451,-5.947,-5.9505,-5.9524,-5.97,-5.9904,-5.9904,-5.9885,-5.9696,-5.9235,-5.9216,-5.9545,-5.965,-5.9911,-6.0074,-6.0285,-6.0361,-6.0274,-6.0255,-5.9911,-5.9892,-6.0217,-6.0217,-6.0083,-6.0141,-6.0389,-6.0389,-6.037,-6.0389,-6.0389,-5.3998,-5.3868,-5.4091,-5.45,-5.5001,-5.5317,-5.5763,-5.6302,-5.632,-5.645,-5.6655,-5.6692,-5.6822,-5.7045,-5.7082,-5.7082,-5.6989,-5.6562,-5.6302,-5.632,-5.632,-5.632,-5.632,-5.632,-5.632,-5.6302,-5.632,-5.6007,-5.5545,-5.4987,-5.4764,-5.4783,-5.4764,-5.4839,-5.4911,-5.4741,-5.4662,-5.4852,-5.4966,-5.4999,-5.5023,-5.5328,-5.5357,-5.4757,-5.3139,-5.1985,-5.1788,-5.1373,-5.1407,-5.2072,-5.2581,-5.2985,-5.3506,-5.3931,-5.4351,-5.4667,-5.5152,-5.566,-5.6077,-5.6616,-5.7133,-5.775,-5.782,-5.7895,-5.8142,-5.8199,-5.8515,-5.8932,-5.9083,-5.9355,-5.9587,-5.9084,-5.8974,-5.9706,-5.947,-5.9289,-5.9416,-5.954,-5.9559,-5.9505,-5.9715,-5.9885,-5.9885,-5.9628,-5.9486,-5.9416,-5.9416,-5.9416,-5.947,-5.9681,-5.9904,-5.9904,-5.9904,-5.9885,-5.9639,-5.969,-5.9785,-5.9861,-5.9996,-6.0178,-6.0264,-6.0352,-6.0389,-6.0389,-6.0389,-6.0389,-6.0389,-6.0389,-6.0389,-6.0389,-6.0389,-6.0389,-6.0389,-6.0389,-6.0389,-5.3813,-5.398,-5.4667,-5.5039,-5.5336,-5.5986,-5.632,-5.6487,-5.6469,-5.6933,-5.749,-5.7509,-5.7862,-5.8456,-5.8419,-5.8568,-5.8252,-5.7138,-5.658,-5.6562,-5.6525,-5.6525,-5.6525,-5.658,-5.658,-5.6543,-5.6395,-5.6457,-5.6556,-5.6407,-5.6407,-5.6628,-5.6551,-5.6476,-5.6701,-5.5948,-5.5698,-5.5885,-5.5932,-5.6015,-5.6235,-5.6803,-5.7106,-5.71,-5.6469,-5.5116,-5.2955,-5.268,-5.2789,-5.304,-5.304,-5.3561,-5.4737,-5.5022,-5.541,-5.6097,-5.6422,-5.6668,-5.7005,-5.7171,-5.7729,-5.8405,-5.8659,-5.8924,-5.9398,-5.962,-5.9677,-5.9715,-5.9772,-5.9866,-5.9866,-5.9777,-5.9739,-5.9853,-5.9505,-5.9451,-5.9681,-5.9505,-5.938,-5.9767,-5.9885,-5.9904,-5.9904,-5.9767,-5.9715,-5.9767,-5.9748,-5.9748,-5.9767,-5.9853,-5.9904,-5.9904,-5.9904,-5.9904,-5.9904,-5.9904,-5.9923,-5.9988,-6.0106,-6.0235,-6.0264,-6.0352,-6.0361,-6.0389,-6.0389,-6.0389,-6.0389,-6.0389,-6.0389,-6.0389,-6.0389,-6.0389,-6.0389,-6.0389,-6.0389,-5.4128,-5.4648,-5.489,-5.5707,-5.6692,-5.7026,-5.7416,-5.7955,-5.7955,-5.8103,-5.8308,-5.8326,-5.8475,-5.8642,-5.8698,-5.8698,-5.8661,-5.8159,-5.7955,-5.7918,-5.7918,-5.7899,-5.7918,-5.7936,-5.7955,-5.7862,-5.7379,-5.7239,-5.7322,-5.6912,-5.6668,-5.6849,-5.6868,-5.692,-5.7027,-5.676,-5.6729,-5.691,-5.6942,-5.6974,-5.7024,-5.727,-5.7422,-5.7403,-5.7219,-5.649,-5.541,-5.4954,-5.4761,-5.4693,-5.4901,-5.5284,-5.5749,-5.5916,-5.6057,-5.6366,-5.6915,-5.7281,-5.7623,-5.8128,-5.8558,-5.9039,-5.9219,-5.9401,-5.9662,-5.982,-5.9885,-5.9885,-5.9904,-5.9904,-5.9904,-5.9904,-5.9904,-5.9904,-5.9767,-5.9715,-5.9853,-5.9767,-5.9767,-5.9853,-5.9904,-5.9904,-5.9853,-5.9715,-5.9628,-5.982,-5.9662,-5.954,-5.9801,-5.9904,-5.9904,-5.9904,-5.9904,-5.9904,-5.9904,-5.9904,-5.9904,-5.9956,-6.0083,-6.0175,-6.0216,-6.0323,-6.0332,-6.0389,-6.0389,-6.0389,-6.0389,-6.0389,-6.0389,-6.0389,-6.0389,-6.0389,-6.0389,-6.0389,-6.0389,-5.4277,-5.502,-5.5354,-5.6246,-5.7509,-5.7806,-5.8215,-5.8661,-5.8698,-5.8698,-5.8698,-5.8698,-5.8698,-5.8698,-5.8698,-5.8698,-5.8698,-5.8698,-5.8698,-5.8698,-5.8698,-5.8698,-5.8698,-5.8698,-5.8698,-5.8624,-5.8196,-5.8058,-5.8219,-5.7771,-5.7548,-5.7679,-5.7733,-5.7824,-5.7766,-5.7573,-5.7559,-5.7748,-5.7762,-5.7813,-5.7933,-5.8161,-5.8312,-5.8331,-5.8331,-5.8098,-5.7658,-5.7341,-5.6769,-5.6002,-5.6073,-5.6383,-5.6664,-5.6772,-5.6874,-5.7219,-5.7635,-5.8058,-5.8371,-5.8802,-5.9272,-5.9491,-5.9581,-5.9631,-5.9719,-5.9786,-5.982,-5.9885,-5.9904,-5.9904,-5.9904,-5.9904,-5.9999,-6.0321,-6.0056,-5.9923,-5.9904,-5.9904,-5.9904,-5.9904,-5.9904,-5.9904,-5.9801,-5.9715,-5.954,-5.9801,-5.9681,-5.9505,-5.982,-5.9904,-5.9904,-5.9904,-5.9904,-5.9904,-5.9904,-5.9904,-5.9904,-5.9937,-6.0001,-6.0045,-6.0106,-6.0264,-6.0323,-6.0361,-6.0389,-6.0389,-6.0389,-6.0389,-6.0389,-6.0389,-6.0389,-6.0389,-6.0389,-6.0389,-6.0389,-5.4296,-5.515,-5.5949,-5.6785,-5.7676,-5.8364,-5.8642,-5.8698,-5.8698,-5.8698,-5.8698,-5.8698,-5.8698,-5.8698,-5.8698,-5.8698,-5.8698,-5.8698,-5.8698,-5.8698,-5.8698,-5.8698,-5.8698,-5.8698,-5.8698,-5.8679,-5.8642,-5.8747,-5.8835,-5.8779,-5.8984,-5.8857,-5.9009,-5.9159,-5.8859,-5.8446,-5.8342,-5.8499,-5.8533,-5.8599,-5.8786,-5.9393,-5.9772,-5.9734,-5.9696,-5.9559,-5.9298,-5.9154,-5.8353,-5.6739,-5.6777,-5.7094,-5.7444,-5.7568,-5.7899,-5.8415,-5.8661,-5.8788,-5.9121,-5.914,-5.9346,-5.9631,-5.9597,-5.9685,-5.9786,-5.9885,-5.9961,-6.0113,-6.0189,-6.0207,-6.0226,-6.0245,-6.053,-6.0928,-6.07,-6.0321,-6.0018,-6.0018,-6.0037,-5.9942,-5.9904,-5.9904,-5.9904,-5.9853,-5.9885,-5.9885,-5.9853,-5.9853,-5.9853,-5.9904,-5.9904,-5.9904,-5.9904,-5.9904,-5.9904,-5.9904,-5.9904,-5.9937,-5.995,-5.9982,-6.0076,-6.0186,-6.0313,-6.0352,-6.0389,-6.0389,-6.0389,-6.0389,-6.0389,-6.0389,-6.0389,-6.0389,-6.0389,-6.0389,-6.0361,-5.4648,-5.5949,-5.6209,-5.71,-5.8308,-5.8642,-5.8698,-5.8698,-5.8698,-5.8698,-5.8698,-5.8698,-5.8698,-5.8698,-5.8698,-5.8698,-5.8698,-5.8698,-5.8698,-5.8698,-5.8698,-5.8698,-5.8698,-5.8698,-5.8698,-5.8698,-5.8698,-5.8821,-5.8984,-5.8984,-5.9081,-5.9215,-5.9383,-5.951,-5.9416,-5.9351,-5.945,-5.9498,-5.9498,-5.9512,-5.9563,-5.9734,-5.9885,-5.9904,-5.9904,-5.9786,-5.9616,-5.9455,-5.914,-5.8404,-5.817,-5.8204,-5.8312,-5.8326,-5.8396,-5.8646,-5.8698,-5.8758,-5.884,-5.8881,-5.904,-5.9234,-5.9496,-5.9491,-5.9704,-6.0335,-6.0648,-6.0885,-6.1302,-6.1686,-6.1705,-6.1705,-6.1875,-6.197,-6.1856,-6.1496,-6.0947,-6.0757,-6.0586,-6.0037,-5.998,-6.0037,-6.0056,-6.0056,-6.0018,-5.998,-5.998,-5.9904,-5.9923,-5.9904,-5.9904,-5.9904,-5.9904,-5.9904,-5.9904,-5.9904,-5.9904,-5.9904,-5.9918,-5.995,-6.0045,-6.0186,-6.0264,-6.0323,-6.0389,-6.0389,-6.0389,-6.0389,-6.0389,-6.0389,-6.0389,-6.0361,-6.038,-6.038,-6.0323,-5.4779,-5.6302,-5.632,-5.723,-5.8624,-5.8698,-5.8698,-5.8698,-5.8698,-5.8698,-5.8698,-5.8698,-5.8698,-5.8698,-5.8698,-5.8698,-5.8698,-5.8698,-5.8698,-5.8698,-5.8698,-5.8698,-5.8698,-5.8698,-5.8698,-5.8698,-5.8698,-5.8781,-5.8862,-5.8884,-5.8924,-5.9081,-5.9346,-5.9419,-5.9346,-5.97,-5.9853,-5.9786,-5.9853,-5.9904,-5.9904,-5.9904,-5.9904,-5.9904,-5.9904,-5.982,-5.9616,-5.9327,-5.9063,-5.8865,-5.8684,-5.8619,-5.8656,-5.8505,-5.8553,-5.875,-5.8661,-5.8702,-5.9107,-5.9096,-5.9245,-5.9594,-5.9916,-6.0209,-6.0491,-6.1104,-6.1542,-6.1686,-6.214,-6.2334,-6.2451,-6.2675,-6.2899,-6.2955,-6.3221,-6.2936,-6.1799,-6.1648,-6.1458,-6.1098,-6.0947,-6.0947,-6.0928,-6.0909,-6.0719,-6.0549,-6.0473,-6.0245,-5.9999,-5.9961,-5.9904,-5.9904,-5.9904,-5.9904,-5.9904,-5.9904,-5.9904,-5.9904,-5.9904,-5.9918,-6.0013,-6.0106,-6.0216,-6.0275,-6.0332,-6.0389,-6.0389,-6.0389,-6.0361,-6.038,-6.038,-6.0332,-6.0304,-6.0275,-6.0245,-5.4723,-5.6172,-5.6246,-5.7193,-5.8438,-5.8661,-5.8698,-5.8698,-5.8698,-5.8698,-5.8698,-5.8698,-5.8698,-5.8698,-5.8698,-5.8698,-5.8698,-5.8698,-5.8698,-5.8698,-5.8698,-5.8698,-5.8698,-5.8698,-5.8698,-5.8698,-5.8698,-5.8698,-5.8739,-5.8698,-5.8698,-5.8821,-5.912,-5.914,-5.9178,-5.9562,-5.97,-5.9681,-5.97,-5.9786,-5.9805,-5.9805,-5.9786,-5.9839,-6.0132,-6.0051,-5.9845,-5.9572,-5.9356,-5.8995,-5.8664,-5.864,-5.8714,-5.8381,-5.8615,-5.9011,-5.8929,-5.906,-5.969,-5.9738,-5.9825,-6.034,-6.0853,-6.1315,-6.1232,-6.1598,-6.1995,-6.2125,-6.2413,-6.265,-6.282,-6.3289,-6.3625,-6.3792,-6.4415,-6.4055,-6.3107,-6.2595,-6.2501,-6.2425,-6.2368,-6.2406,-6.2425,-6.2368,-6.2084,-6.1345,-6.1193,-6.0928,-6.0568,-6.034,-6.0151,-5.9904,-5.9904,-5.9904,-5.9904,-5.9904,-5.9904,-5.9904,-5.9904,-5.9918,-5.995,-6.0045,-6.0137,-6.0226,-6.0304,-6.0361,-6.0389,-6.0389,-6.0352,-6.0323,-6.0294,-6.0245,-6.0167,-6.0137,-6.0118,-5.4388,-5.5354,-5.6023,-5.6878,-5.7788,-5.8419,-5.8698,-5.8698,-5.8698,-5.8698,-5.8698,-5.8698,-5.8698,-5.8698,-5.8698,-5.8698,-5.8656,-5.8656,-5.8698,-5.8698,-5.8698,-5.8698,-5.8698,-5.8698,-5.8698,-5.8698,-5.8698,-5.8698,-5.8698,-5.8698,-5.8698,-5.8739,-5.8924,-5.9024,-5.9063,-5.929,-5.9502,-5.953,-5.9521,-5.9545,-5.9618,-5.9602,-5.9656,-5.9855,-6.0448,-6.0732,-6.0766,-6.1018,-6.0949,-6.0382,-5.963,-5.9072,-5.8924,-5.9161,-5.9512,-5.9651,-5.9701,-5.9841,-6.0213,-6.0239,-6.0341,-6.0655,-6.0794,-6.0673,-6.0914,-6.1658,-6.2024,-6.224,-6.2746,-6.3203,-6.3573,-6.3896,-6.4143,-6.4404,-6.4682,-6.4775,-6.4339,-6.3732,-6.3164,-6.2709,-6.2538,-6.2444,-6.2482,-6.2595,-6.2425,-6.2159,-6.1951,-6.1686,-6.1307,-6.089,-6.0568,-6.0283,-6.0151,-6.0151,-5.9904,-5.9904,-5.9904,-5.9904,-5.9904,-5.9904,-5.995,-5.9963,-6.0057,-6.0137,-6.0245,-6.0304,-6.0361,-6.0352,-6.0342,-6.0264,-6.0235,-6.0137,-6.0087,-6.0038,-6.0007,-5.4277,-5.5076,-5.593,-5.6766,-5.7565,-5.8345,-5.8698,-5.8698,-5.8698,-5.8698,-5.8698,-5.8698,-5.8698,-5.8698,-5.8698,-5.8614,-5.8468,-5.8406,-5.8406,-5.8449,-5.8553,-5.8698,-5.8698,-5.8698,-5.8698,-5.8698,-5.8698,-5.8698,-5.8698,-5.8716,-5.8698,-5.8698,-5.8902,-5.8924,-5.8924,-5.9196,-5.9308,-5.9342,-5.9434,-5.9474,-5.9457,-5.9869,-6.0321,-6.0638,-6.109,-6.1206,-6.1149,-6.1054,-6.0789,-6.0367,-6.0011,-5.9693,-5.9333,-5.9496,-5.9792,-6.0168,-6.0008,-6.0334,-6.0609,-6.0711,-6.0686,-6.0978,-6.1181,-6.1325,-6.147,-6.2019,-6.245,-6.2612,-6.299,-6.3442,-6.3785,-6.4072,-6.4328,-6.4502,-6.4781,-6.4907,-6.4832,-6.4471,-6.4092,-6.3676,-6.3676,-6.3657,-6.36,-6.3372,-6.3145,-6.3088,-6.2936,-6.2671,-6.2084,-6.1648,-6.1212,-6.0909,-6.0643,-6.0397,-6.0018,-5.9904,-5.9904,-5.9904,-5.9904,-5.9904,-5.9918,-5.995,-5.9994,-6.0076,-6.0186,-6.0264,-6.0323,-6.0313,-6.0235,-6.0156,-6.0076,-6.0057,-6.0026,-5.9963,-5.9931,-5.4221,-5.489,-5.5744,-5.658,-5.7379,-5.8141,-5.8568,-5.8698,-5.8698,-5.8698,-5.8698,-5.8698,-5.8698,-5.8698,-5.8698,-5.8468,-5.8213,-5.8105,-5.8168,-5.8213,-5.8553,-5.8656,-5.8698,-5.8698,-5.8698,-5.8698,-5.8698,-5.8698,-5.8716,-5.8828,-5.9051,-5.9018,-5.9272,-5.9495,-5.9324,-5.9414,-5.972,-5.9738,-5.991,-5.9966,-5.991,-6.0492,-6.1093,-6.143,-6.1609,-6.1543,-6.1437,-6.1215,-6.0683,-6.0041,-6.0467,-6.0431,-6.0106,-5.9889,-5.9856,-6.0565,-6.0431,-6.0682,-6.1111,-6.1151,-6.1099,-6.135,-6.1806,-6.2075,-6.1984,-6.2172,-6.2438,-6.2719,-6.2885,-6.2999,-6.3261,-6.3568,-6.3907,-6.423,-6.4596,-6.4781,-6.4907,-6.4926,-6.4775,-6.4756,-6.449,-6.4396,-6.4528,-6.4471,-6.4225,-6.3998,-6.3846,-6.3543,-6.2936,-6.2463,-6.2065,-6.1439,-6.1098,-6.0492,-6.0056,-5.9904,-5.9904,-5.9904,-5.9904,-5.9904,-5.9904,-5.9918,-5.9963,-6.0057,-6.0137,-6.0216,-6.0216,-6.0186,-6.0125,-6.0026,-5.9963,-5.9963,-5.995,-5.9918,-5.9885,-5.3887,-5.4073,-5.489,-5.5707,-5.6543,-5.736,-5.8103,-5.8642,-5.8679,-5.8698,-5.8698,-5.8698,-5.8698,-5.8698,-5.8698,-5.8468,-5.8078,-5.8015,-5.806,-5.8123,-5.8449,-5.8698,-5.8698,-5.8698,-5.8698,-5.8698,-5.8772,-5.8809,-5.8958,-5.9329,-5.9608,-5.9831,-6.0357,-6.0673,-6.0635,-6.0827,-6.077,-6.0699,-6.0796,-6.0815,-6.093,-6.105,-6.1288,-6.1544,-6.1756,-6.1853,-6.1974,-6.2129,-6.2123,-6.1675,-6.1697,-6.1368,-6.0963,-6.084,-6.1024,-6.1217,-6.126,-6.1335,-6.1571,-6.1642,-6.1584,-6.1541,-6.1579,-6.1561,-6.1487,-6.1544,-6.1841,-6.2005,-6.2222,-6.2412,-6.2794,-6.3065,-6.3453,-6.3907,-6.4328,-6.4558,-6.4817,-6.4926,-6.4926,-6.4926,-6.4926,-6.4926,-6.4926,-6.4926,-6.468,-6.4471,-6.4415,-6.413,-6.3619,-6.3296,-6.3012,-6.2292,-6.1515,-6.0776,-6.0037,-5.9942,-5.9904,-5.9904,-5.9904,-5.9904,-5.9904,-5.9904,-5.995,-5.9994,-6.0057,-6.0106,-6.0106,-6.0106,-6.0076,-5.9994,-5.9931,-5.9918,-5.9918,-5.9904,-5.9904,-5.3813,-5.3887,-5.4667,-5.5243,-5.5819,-5.6989,-5.7713,-5.8122,-5.8512,-5.8698,-5.8698,-5.8698,-5.8698,-5.8656,-5.8449,-5.8078,-5.7708,-5.7755,-5.7802,-5.7941,-5.8381,-5.8698,-5.8698,-5.8698,-5.8698,-5.8828,-5.9088,-5.9311,-5.9348,-5.9682,-6.0184,-6.0593,-6.1038,-6.1187,-6.1187,-6.1113,-6.1286,-6.1353,-6.1395,-6.1353,-6.1409,-6.1408,-6.1624,-6.1994,-6.1948,-6.204,-6.2113,-6.1909,-6.1824,-6.1528,-6.1487,-6.1412,-6.1315,-6.1346,-6.1516,-6.1582,-6.1658,-6.175,-6.1784,-6.1764,-6.1633,-6.1444,-6.1328,-6.127,-6.1211,-6.1211,-6.1342,-6.157,-6.1816,-6.2114,-6.2308,-6.2726,-6.328,-6.3718,-6.419,-6.4596,-6.4817,-6.4907,-6.4926,-6.4926,-6.4926,-6.4926,-6.4926,-6.4926,-6.4926,-6.4926,-6.4926,-6.4623,-6.4206,-6.4036,-6.3789,-6.2955,-6.2103,-6.1359,-6.0581,-6.0226,-6.0145,-6.0088,-5.9904,-5.9904,-5.9904,-5.9904,-5.9918,-5.995,-5.9963,-5.9994,-6.0045,-6.0045,-5.9994,-5.9963,-5.995,-5.9918,-5.9885,-5.9904,-5.9904,-5.3813,-5.3868,-5.4481,-5.4853,-5.5206,-5.6395,-5.7212,-5.7602,-5.8159,-5.8549,-5.8698,-5.8698,-5.8698,-5.8553,-5.8168,-5.7642,-5.7054,-5.7338,-5.7486,-5.7774,-5.8231,-5.8553,-5.8698,-5.8735,-5.8828,-5.9181,-5.9497,-5.9924,-5.9942,-6.0407,-6.0871,-6.1354,-6.154,-6.167,-6.18,-6.1949,-6.1707,-6.1732,-6.1695,-6.1676,-6.1596,-6.1713,-6.2089,-6.259,-6.2167,-6.1897,-6.1914,-6.162,-6.1368,-6.1193,-6.1193,-6.118,-6.1304,-6.1484,-6.1615,-6.1586,-6.1602,-6.1692,-6.1672,-6.1633,-6.1462,-6.127,-6.127,-6.1211,-6.117,-6.117,-6.1247,-6.1577,-6.195,-6.2182,-6.2357,-6.2922,-6.3371,-6.3742,-6.4309,-6.4781,-6.4872,-6.4926,-6.4926,-6.4926,-6.4926,-6.4926,-6.4926,-6.4926,-6.4926,-6.4926,-6.4926,-6.4926,-6.4585,-6.4661,-6.4339,-6.3505,-6.269,-6.1966,-6.1264,-6.0676,-6.0543,-6.0449,-6.0145,-5.9904,-5.9904,-5.9904,-5.9918,-5.9918,-5.995,-5.9982,-5.9982,-5.9982,-5.995,-5.9918,-5.9918,-5.9904,-5.9904,-5.9904,-5.9904,-5.3813,-5.3813,-5.3905,-5.4351,-5.4964,-5.528,-5.6209,-5.7435,-5.7639,-5.8066,-5.8698,-5.8698,-5.8698,-5.8468,-5.796,-5.7437,-5.7156,-5.7105,-5.7307,-5.7631,-5.8033,-5.8406,-5.8656,-5.8698,-5.9125,-5.9552,-5.9868,-5.9905,-6.037,-6.141,-6.2041,-6.2339,-6.2758,-6.3204,-6.288,-6.2798,-6.3323,-6.3177,-6.2891,-6.2549,-6.2201,-6.1982,-6.204,-6.1969,-6.1692,-6.1484,-6.1505,-6.1252,-6.1152,-6.1152,-6.1211,-6.1292,-6.1372,-6.1597,-6.1654,-6.1674,-6.1654,-6.1726,-6.1633,-6.1444,-6.1328,-6.1152,-6.1152,-6.1111,-6.1111,-6.1224,-6.1359,-6.1597,-6.2044,-6.239,-6.2572,-6.3094,-6.355,-6.393,-6.427,-6.4633,-6.4781,-6.4926,-6.4926,-6.4926,-6.4926,-6.4926,-6.4926,-6.4926,-6.4926,-6.4926,-6.4926,-6.4926,-6.4926,-6.4926,-6.4832,-6.4036,-6.3353,-6.2667,-6.2136,-6.151,-6.098,-6.0879,-6.0468,-6.0037,-5.9904,-5.9904,-5.9904,-5.9918,-5.9918,-5.9918,-5.995,-5.9918,-5.9918,-5.9885,-5.9904,-5.9904,-5.9904,-5.9904,-5.9904,-5.3813,-5.3813,-5.3813,-5.3998,-5.437,-5.4797,-5.5689,-5.6747,-5.7305,-5.7973,-5.8605,-5.8698,-5.8468,-5.8115,-5.7697,-5.7257,-5.6847,-5.6899,-5.7206,-5.7583,-5.7941,-5.8319,-5.8596,-5.8754,-5.9144,-5.9905,-6.0444,-6.1057,-6.1428,-6.1949,-6.2562,-6.3037,-6.3178,-6.3168,-6.3242,-6.3051,-6.2935,-6.28,-6.27,-6.2412,-6.2095,-6.1896,-6.1748,-6.1597,-6.131,-6.1252,-6.1252,-6.1152,-6.1152,-6.1193,-6.1252,-6.1386,-6.1484,-6.1615,-6.1672,-6.1597,-6.1519,-6.1462,-6.1368,-6.127,-6.1152,-6.1093,-6.1093,-6.1093,-6.1111,-6.1242,-6.1319,-6.1444,-6.1941,-6.2377,-6.2684,-6.3215,-6.3699,-6.4091,-6.4328,-6.4596,-6.4817,-6.4872,-6.4926,-6.4926,-6.4926,-6.4926,-6.4926,-6.4926,-6.4926,-6.4926,-6.4926,-6.4926,-6.4926,-6.4926,-6.4813,-6.4547,-6.3941,-6.3353,-6.2917,-6.2406,-6.1586,-6.1302,-6.098,-6.0511,-6.0018,-5.9904,-5.9904,-5.9904,-5.9918,-5.9918,-5.9904,-5.9904,-5.9885,-5.9904,-5.9904,-5.9904,-5.9904,-5.9904,-5.9904,-5.3774,-5.3678,-5.3756,-5.3813,-5.385,-5.4366,-5.505,-5.5903,-5.6681,-5.7497,-5.8225,-5.8503,-5.8294,-5.7745,-5.7553,-5.7206,-5.6455,-5.6707,-5.7105,-5.7419,-5.7802,-5.8186,-5.8468,-5.867,-5.9255,-6.0202,-6.0797,-6.1633,-6.235,-6.2695,-6.2882,-6.3447,-6.3158,-6.2935,-6.2787,-6.2636,-6.2482,-6.2255,-6.2255,-6.2005,-6.1618,-6.1561,-6.1408,-6.131,-6.1152,-6.1152,-6.1211,-6.1152,-6.1152,-6.1252,-6.1252,-6.1328,-6.1519,-6.1519,-6.1519,-6.1501,-6.1386,-6.1328,-6.1252,-6.1152,-6.1093,-6.1093,-6.1093,-6.1093,-6.1093,-6.1182,-6.126,-6.1328,-6.1804,-6.2164,-6.2576,-6.3141,-6.3656,-6.4072,-6.4387,-6.467,-6.4872,-6.4907,-6.4926,-6.4926,-6.4926,-6.4926,-6.4926,-6.4926,-6.4926,-6.4926,-6.4926,-6.4926,-6.4926,-6.4926,-6.485,-6.4718,-6.4509,-6.4036,-6.3789,-6.324,-6.2459,-6.1814,-6.1458,-6.0984,-6.0492,-6.0075,-5.9904,-5.9904,-5.9904,-5.9904,-5.9904,-5.9904,-5.9904,-5.9904,-5.9904,-5.9904,-5.9904,-5.9904,-5.9904,-5.36,-5.3359,-5.3697,-5.3756,-5.3774,-5.3518,-5.3912,-5.4796,-5.5515,-5.6326,-5.7291,-5.8116,-5.8294,-5.7726,-5.7486,-5.7156,-5.6401,-5.6455,-5.6742,-5.7087,-5.7437,-5.7849,-5.8231,-5.8714,-5.9441,-6.0704,-6.1044,-6.1916,-6.2965,-6.2815,-6.2951,-6.3002,-6.2787,-6.2686,-6.2482,-6.2273,-6.1987,-6.1823,-6.1768,-6.1561,-6.131,-6.1193,-6.1135,-6.1152,-6.1093,-6.1093,-6.1111,-6.1093,-6.1152,-6.1252,-6.1193,-6.127,-6.1462,-6.1462,-6.1386,-6.1328,-6.1328,-6.1193,-6.1152,-6.1152,-6.1093,-6.1093,-6.1093,-6.1093,-6.1093,-6.1093,-6.1152,-6.1288,-6.1687,-6.2077,-6.2449,-6.2836,-6.3505,-6.4012,-6.4406,-6.4596,-6.4817,-6.4907,-6.4926,-6.4926,-6.4926,-6.4926,-6.4926,-6.4926,-6.4926,-6.4926,-6.4926,-6.4926,-6.4926,-6.4926,-6.4926,-6.4869,-6.4869,-6.4718,-6.4661,-6.4073,-6.3353,-6.2709,-6.2254,-6.1629,-6.0966,-6.0568,-6.017,-5.9904,-5.9904,-5.9904,-5.9904,-5.9904,-5.9904,-5.9904,-5.9904,-5.9904,-5.9904,-5.9904,-5.9904,-5.3109,-5.3005,-5.3133,-5.3175,-5.3193,-5.3048,-5.3463,-5.414,-5.4525,-5.5422,-5.6731,-5.7975,-5.8142,-5.7534,-5.7504,-5.7156,-5.6492,-5.6383,-5.6635,-5.6984,-5.7388,-5.7755,-5.8123,-5.8616,-5.9311,-6.0308,-6.0715,-6.1255,-6.2261,-6.2579,-6.2446,-6.2308,-6.2255,-6.2131,-6.1933,-6.1786,-6.1523,-6.1466,-6.135,-6.1252,-6.1193,-6.1093,-6.1093,-6.1093,-6.1093,-6.1093,-6.1093,-6.1093,-6.1211,-6.127,-6.1193,-6.1328,-6.1404,-6.1328,-6.127,-6.1211,-6.1211,-6.1152,-6.1093,-6.1093,-6.1093,-6.1093,-6.1093,-6.1093,-6.1093,-6.1093,-6.1093,-6.1324,-6.1573,-6.1969,-6.2534,-6.297,-6.3498,-6.4091,-6.4406,-6.454,-6.4745,-6.4872,-6.4926,-6.4926,-6.4926,-6.4926,-6.4926,-6.4926,-6.4926,-6.4926,-6.4926,-6.4926,-6.4926,-6.4926,-6.4926,-6.4926,-6.4926,-6.4926,-6.485,-6.4547,-6.4171,-6.3603,-6.2997,-6.233,-6.1629,-6.106,-6.0662,-6.0283,-5.9904,-5.9904,-5.9904,-5.9904,-5.9904,-5.9904,-5.9904,-5.9904,-5.9904,-5.9904,-5.9904,-5.2518,-5.2608,-5.2608,-5.2698,-5.2779,-5.2654,-5.2945,-5.3436,-5.3745,-5.482,-5.6463,-5.7755,-5.7895,-5.7289,-5.7257,-5.7054,-5.6546,-5.6437,-5.66,-5.6899,-5.7338,-5.7679,-5.8051,-5.8554,-5.9162,-5.9838,-6.0351,-6.1014,-6.1898,-6.2099,-6.2023,-6.1823,-6.1561,-6.1561,-6.1448,-6.131,-6.1093,-6.1093,-6.1093,-6.1093,-6.1093,-6.1093,-6.1093,-6.1093,-6.1093,-6.1093,-6.1093,-6.1093,-6.1152,-6.1193,-6.1252,-6.1252,-6.1252,-6.127,-6.1211,-6.1152,-6.1093,-6.1093,-6.1093,-6.1093,-6.1093,-6.1093,-6.1093,-6.1093,-6.1093,-6.1093,-6.1093,-6.1152,-6.1472,-6.1932,-6.2493,-6.2763,-6.3289,-6.3822,-6.4091,-6.427,-6.4689,-6.4926,-6.4926,-6.4926,-6.4926,-6.4926,-6.4926,-6.4926,-6.4926,-6.4926,-6.4926,-6.4926,-6.4926,-6.4926,-6.4926,-6.4926,-6.4926,-6.4926,-6.4888,-6.4699,-6.449,-6.4228,-6.3622,-6.305,-6.2387,-6.1743,-6.1098,-6.0662,-6.0302,-6.0018,-5.9904,-5.9904,-5.9904,-5.9904,-5.9904,-5.9904,-5.9904,-5.9904,-5.9904,-5.1813,-5.2203,-5.2185,-5.2454,-5.2672,-5.2343,-5.2239,-5.2503,-5.3237,-5.4502,-5.6175,-5.7156,-5.7401,-5.7018,-5.7105,-5.6899,-5.6546,-5.6437,-5.651,-5.6653,-5.7257,-5.7534,-5.7867,-5.8404,-5.9032,-5.9801,-6.0139,-6.0596,-6.1599,-6.1496,-6.1496,-6.1544,-6.135,-6.1193,-6.1152,-6.1093,-6.1093,-6.1093,-6.1093,-6.1093,-6.1093,-6.1093,-6.1093,-6.1093,-6.1093,-6.1093,-6.1093,-6.1093,-6.1152,-6.1193,-6.1135,-6.1193,-6.127,-6.1152,-6.1093,-6.1093,-6.1093,-6.1093,-6.1093,-6.1093,-6.1093,-6.1093,-6.1093,-6.1093,-6.1093,-6.1093,-6.1093,-6.1152,-6.1472,-6.1715,-6.1987,-6.236,-6.3055,-6.3649,-6.3907,-6.4212,-6.4652,-6.4926,-6.4926,-6.4926,-6.4926,-6.4926,-6.4926,-6.4926,-6.4926,-6.4926,-6.4926,-6.4926,-6.4926,-6.4926,-6.4926,-6.4926,-6.4926,-6.4926,-6.4926,-6.4926,-6.4794,-6.4623,-6.4282,-6.3676,-6.2917,-6.214,-6.1553,-6.106,-6.0473,-5.9961,-5.9904,-5.9904,-5.9904,-5.9904,-5.9904,-5.9904,-5.9904,-5.9904,-5.9904,-5.0941,-5.1119,-5.1638,-5.1969,-5.2066,-5.192,-5.1871,-5.2064,-5.3026,-5.3994,-5.4968,-5.6146,-5.6754,-5.6737,-5.7036,-5.7003,-5.6546,-5.6742,-5.676,-5.6546,-5.7239,-5.7486,-5.7821,-5.8331,-5.8823,-5.9048,-5.9357,-5.9804,-6.0505,-6.0629,-6.0977,-6.1091,-6.1193,-6.1093,-6.1093,-6.1093,-6.1093,-6.1093,-6.1093,-6.1093,-6.1093,-6.1093,-6.1093,-6.1093,-6.1093,-6.1093,-6.1093,-6.1093,-6.1152,-6.1211,-6.1093,-6.1152,-6.1152,-6.1093,-6.1093,-6.1093,-6.1093,-6.1093,-6.1093,-6.1093,-6.1093,-6.1093,-6.1093,-6.1093,-6.1093,-6.1093,-6.1093,-6.1193,-6.1526,-6.1769,-6.2148,-6.2599,-6.3233,-6.3841,-6.419,-6.4425,-6.4745,-6.4836,-6.4926,-6.4926,-6.4926,-6.4926,-6.4926,-6.4926,-6.4926,-6.4926,-6.4926,-6.4926,-6.4926,-6.4926,-6.4926,-6.4926,-6.4926,-6.4926,-6.4926,-6.4926,-6.4926,-6.4775,-6.4604,-6.4263,-6.3467,-6.2671,-6.2008,-6.1515,-6.0662,-5.9904,-5.9904,-5.9904,-5.9904,-5.9904,-5.9904,-5.9904,-5.9904,-5.9904,-5.9904,-5.0,-5.0548,-5.1066,-5.1458,-5.1672,-5.169,-5.169,-5.1883,-5.2794,-5.3426,-5.3915,-5.5238,-5.5962,-5.624,-5.6721,-5.7138,-5.6635,-5.6847,-5.7105,-5.6881,-5.7468,-5.7708,-5.7987,-5.8338,-5.8693,-5.869,-5.874,-5.9096,-5.9539,-5.9833,-6.0367,-6.0992,-6.1075,-6.1093,-6.1093,-6.1093,-6.1093,-6.1093,-6.1093,-6.1093,-6.1093,-6.1093,-6.1093,-6.1093,-6.1093,-6.1093,-6.1093,-6.1093,-6.1093,-6.1093,-6.1093,-6.1093,-6.1093,-6.1093,-6.1093,-6.1093,-6.1093,-6.1093,-6.1093,-6.1093,-6.1093,-6.1093,-6.1093,-6.1093,-6.1093,-6.1093,-6.1093,-6.1252,-6.1618,-6.1969,-6.2324,-6.2768,-6.3372,-6.4027,-6.4249,-6.4463,-6.4745,-6.4872,-6.4926,-6.4926,-6.4926,-6.4926,-6.4926,-6.4926,-6.4926,-6.4926,-6.4926,-6.4926,-6.4926,-6.4926,-6.4926,-6.4926,-6.4926,-6.4926,-6.4926,-6.4926,-6.4926,-6.4926,-6.4775,-6.4585,-6.4225,-6.3448,-6.269,-6.1932,-6.1155,-6.0492,-6.0037,-5.9904,-5.9904,-5.9904,-5.9904,-5.9904,-5.9904,-5.9904,-5.9904,-4.9084,-5.0352,-5.0477,-5.0959,-5.1565,-5.1637,-5.169,-5.1762,-5.2526,-5.2901,-5.3062,-5.4491,-5.5134,-5.5419,-5.6044,-5.6617,-5.6933,-5.7036,-5.7239,-5.7516,-5.7831,-5.7969,-5.8123,-5.8425,-5.8511,-5.8622,-5.8584,-5.8555,-5.8765,-5.931,-6.0094,-6.079,-6.0843,-6.095,-6.1022,-6.1093,-6.1093,-6.1093,-6.1093,-6.1093,-6.1093,-6.1093,-6.1093,-6.1093,-6.1093,-6.1093,-6.1093,-6.1093,-6.1093,-6.1093,-6.1093,-6.1093,-6.1093,-6.1093,-6.1093,-6.1093,-6.1093,-6.1093,-6.1093,-6.1093,-6.1093,-6.1093,-6.1093,-6.1093,-6.1093,-6.1093,-6.1093,-6.131,-6.1674,-6.2023,-6.2446,-6.3044,-6.3591,-6.392,-6.4169,-6.4482,-6.4781,-6.4926,-6.4926,-6.4926,-6.4926,-6.4926,-6.4926,-6.4926,-6.4926,-6.4926,-6.4926,-6.4926,-6.4926,-6.4926,-6.4926,-6.4926,-6.4926,-6.4926,-6.4926,-6.4926,-6.4926,-6.4926,-6.4926,-6.4756,-6.4453,-6.4111,-6.3372,-6.2557,-6.1761,-6.1098,-6.053,-6.0132,-5.9904,-5.9904,-5.9904,-5.9904,-5.9904,-5.9904,-5.9904,-4.8476,-4.896,-5.0031,-5.0655,-5.0923,-5.1458,-5.169,-5.1744,-5.1976,-5.2297,-5.2921,-5.3332,-5.4206,-5.5187,-5.5737,-5.6325,-5.6873,-5.7239,-5.7455,-5.7726,-5.8015,-5.8078,-5.8168,-5.8257,-5.8301,-5.8197,-5.816,-5.8159,-5.8352,-5.891,-5.947,-6.013,-6.0344,-6.0594,-6.0879,-6.1093,-6.1093,-6.1093,-6.1093,-6.1093,-6.1093,-6.1093,-6.1093,-6.1093,-6.1093,-6.1093,-6.1093,-6.1093,-6.1093,-6.1093,-6.1093,-6.1093,-6.1093,-6.1093,-6.1093,-6.1093,-6.1093,-6.1093,-6.1093,-6.1093,-6.1093,-6.1093,-6.1093,-6.1093,-6.1093,-6.1093,-6.1093,-6.131,-6.1618,-6.1969,-6.229,-6.2849,-6.3437,-6.3817,-6.4069,-6.4289,-6.4652,-6.4836,-6.4872,-6.4926,-6.4926,-6.4926,-6.4926,-6.4926,-6.4926,-6.4926,-6.4926,-6.4926,-6.4926,-6.4926,-6.4926,-6.4926,-6.4926,-6.4926,-6.4926,-6.4926,-6.4926,-6.4926,-6.4926,-6.4888,-6.468,-6.4301,-6.3827,-6.3164,-6.2311,-6.1572,-6.0928,-6.0549,-6.0202,-5.9942,-5.9923,-5.9904,-5.9904,-5.9904,-6.0018,-4.7911,-4.8347,-4.9174,-4.9924,-5.0584,-5.1351,-5.169,-5.169,-5.169,-5.1993,-5.2422,-5.2779,-5.3564,-5.4616,-5.5327,-5.6142,-5.727,-5.7455,-5.7745,-5.8142,-5.8213,-5.8319,-5.8344,-5.8301,-5.8257,-5.8078,-5.7886,-5.7856,-5.7921,-5.8159,-5.8667,-5.9416,-5.9666,-6.0148,-6.0558,-6.0879,-6.1093,-6.1093,-6.1093,-6.1093,-6.1093,-6.1093,-6.1093,-6.1093,-6.1093,-6.1093,-6.1093,-6.1093,-6.1093,-6.1093,-6.1093,-6.1093,-6.1093,-6.1093,-6.1093,-6.1093,-6.1093,-6.1093,-6.1093,-6.1093,-6.1093,-6.1093,-6.1093,-6.1093,-6.1093,-6.1093,-6.1093,-6.1193,-6.1505,-6.1823,-6.2149,-6.2567,-6.3168,-6.3755,-6.3925,-6.4109,-6.4425,-6.4708,-6.4836,-6.4872,-6.4926,-6.4926,-6.4926,-6.4926,-6.4926,-6.4926,-6.4926,-6.4926,-6.4926,-6.4926,-6.4926,-6.4926,-6.4926,-6.4926,-6.4926,-6.4926,-6.4926,-6.4926,-6.4926,-6.4869,-6.4775,-6.4604,-6.4206,-6.3581,-6.2861,-6.2178,-6.1553,-6.0923,-6.0506,-6.0278,-5.9999,-5.9904,-5.9904,-5.9904,-6.0075,-4.7408,-4.8068,-4.8175,-4.9156,-5.0513,-5.1262,-5.1601,-5.169,-5.169,-5.1708,-5.1886,-5.244,-5.3153,-5.3956,-5.4686,-5.5941,-5.6908,-5.7473,-5.796,-5.8656,-5.8553,-5.8596,-5.8596,-5.8614,-5.8319,-5.815,-5.7941,-5.7674,-5.7253,-5.7424,-5.7864,-5.8631,-5.9184,-5.9666,-6.0112,-6.0576,-6.0861,-6.1093,-6.1093,-6.1093,-6.1093,-6.1093,-6.1093,-6.1093,-6.1093,-6.1093,-6.1093,-6.1093,-6.1093,-6.1093,-6.1093,-6.1093,-6.1093,-6.1093,-6.1093,-6.1093,-6.1093,-6.1093,-6.1093,-6.1093,-6.1093,-6.1093,-6.1093,-6.1093,-6.1093,-6.1093,-6.1093,-6.1093,-6.1408,-6.1609,-6.1929,-6.215,-6.2613,-6.3178,-6.3517,-6.3822,-6.4212,-6.454,-6.4836,-6.4872,-6.4926,-6.4926,-6.4926,-6.4926,-6.4926,-6.4926,-6.4926,-6.4926,-6.4926,-6.4926,-6.4926,-6.4926,-6.4926,-6.4926,-6.4926,-6.4926,-6.4926,-6.4926,-6.4926,-6.4907,-6.485,-6.4737,-6.4623,-6.396,-6.3278,-6.2842,-6.2273,-6.1345,-6.0568,-6.0468,-6.0189,-5.9961,-5.9904,-5.9904,-6.0207,-4.7087,-4.7337,-4.7925,-4.9085,-5.0423,-5.0709,-5.1137,-5.1672,-5.169,-5.169,-5.1744,-5.1958,-5.2475,-5.3296,-5.3992,-5.5209,-5.6497,-5.7284,-5.7996,-5.8468,-5.8656,-5.8698,-5.8638,-5.8492,-5.8257,-5.8078,-5.7802,-5.7468,-5.7126,-5.6994,-5.7079,-5.7774,-5.8292,-5.8738,-5.9648,-6.0112,-6.0397,-6.0879,-6.095,-6.1004,-6.1093,-6.1093,-6.1093,-6.1093,-6.1093,-6.1093,-6.1093,-6.1093,-6.1093,-6.1093,-6.1093,-6.1093,-6.1093,-6.1093,-6.1093,-6.1093,-6.1093,-6.1093,-6.1093,-6.1093,-6.1093,-6.1093,-6.1093,-6.1093,-6.1093,-6.1093,-6.1093,-6.1152,-6.1206,-6.1444,-6.1615,-6.1838,-6.2077,-6.2613,-6.3102,-6.3568,-6.4053,-6.4445,-6.4781,-6.4872,-6.4926,-6.4926,-6.4926,-6.4926,-6.4926,-6.4926,-6.4926,-6.4926,-6.4926,-6.4926,-6.4926,-6.4926,-6.4926,-6.4926,-6.4926,-6.4926,-6.4926,-6.4926,-6.4926,-6.4926,-6.4926,-6.4832,-6.4718,-6.4282,-6.3732,-6.3221,-6.2334,-6.1031,-6.0463,-6.0478,-6.0245,-5.9961,-5.9904,-5.9904,-6.0321,-4.6998,-4.7087,-4.7854,-4.8675,-4.9495,-5.0191,-5.078,-5.1173,-5.153,-5.169,-5.169,-5.1744,-5.2136,-5.2796,-5.335,-5.4499,-5.5977,-5.6769,-5.7565,-5.8208,-5.8596,-5.8698,-5.8553,-5.8449,-5.8257,-5.8078,-5.7565,-5.7156,-5.6951,-5.6689,-5.674,-5.7114,-5.7364,-5.7989,-5.8988,-5.922,-5.9791,-6.0522,-6.0558,-6.0736,-6.0968,-6.1093,-6.1093,-6.1093,-6.1093,-6.1093,-6.1093,-6.1093,-6.1093,-6.1093,-6.1093,-6.1093,-6.1093,-6.1093,-6.1093,-6.1093,-6.1093,-6.1093,-6.1093,-6.1093,-6.1093,-6.1093,-6.1093,-6.1093,-6.1093,-6.1093,-6.1093,-6.1152,-6.1152,-6.1295,-6.1295,-6.1484,-6.1712,-6.2112,-6.2613,-6.3131,-6.3846,-6.454,-6.4781,-6.4872,-6.4926,-6.4926,-6.4926,-6.4926,-6.4926,-6.4926,-6.4926,-6.4926,-6.4926,-6.4926,-6.4926,-6.4926,-6.4926,-6.4926,-6.4926,-6.4926,-6.4926,-6.4926,-6.4926,-6.4926,-6.4926,-6.4926,-6.4794,-6.4434,-6.3998,-6.341,-6.241,-6.1111,-6.0709,-6.0795,-6.0378,-5.9904,-5.9904,-5.9885,-6.0151,-4.6873,-4.7087,-4.7729,-4.815,-4.8354,-4.9567,-5.0316,-5.062,-5.1226,-5.1583,-5.169,-5.169,-5.2154,-5.2511,-5.2973,-5.4158,-5.5234,-5.6073,-5.6977,-5.7792,-5.8394,-5.8577,-5.8656,-5.8656,-5.8363,-5.7941,-5.7486,-5.7105,-5.6865,-5.6564,-5.6454,-5.6543,-5.6954,-5.7507,-5.7757,-5.8221,-5.897,-5.9577,-5.9839,-6.0255,-6.0647,-6.1075,-6.1093,-6.1093,-6.1093,-6.1093,-6.1093,-6.1093,-6.1093,-6.1093,-6.1093,-6.1093,-6.1093,-6.1093,-6.1093,-6.1093,-6.1093,-6.1093,-6.1093,-6.1093,-6.1093,-6.1093,-6.1093,-6.1093,-6.1093,-6.1093,-6.1093,-6.1093,-6.1093,-6.1093,-6.1111,-6.1152,-6.1408,-6.1694,-6.2271,-6.288,-6.3718,-6.454,-6.4781,-6.4926,-6.4907,-6.4907,-6.4907,-6.4907,-6.4872,-6.4872,-6.4872,-6.4872,-6.4891,-6.4926,-6.4926,-6.4926,-6.4926,-6.4926,-6.4926,-6.4926,-6.4926,-6.4926,-6.4926,-6.4926,-6.4926,-6.4926,-6.4869,-6.4718,-6.4225,-6.3296,-6.2557,-6.1481,-6.1216,-6.0795,-6.0397,-5.9904,-5.9885,-5.9853,-5.9853,-4.6418,-4.6998,-4.7176,-4.7568,-4.8175,-4.855,-4.9317,-5.0423,-5.0637,-5.1066,-5.1547,-5.1672,-5.1833,-5.1976,-5.2654,-5.3501,-5.4161,-5.5184,-5.628,-5.7184,-5.7825,-5.8338,-5.8614,-5.8656,-5.8294,-5.7867,-5.7437,-5.7138,-5.676,-5.6492,-5.6401,-5.6436,-5.6436,-5.6954,-5.756,-5.7917,-5.8167,-5.8681,-5.9037,-5.9322,-6.016,-6.0606,-6.1058,-6.1093,-6.1093,-6.1093,-6.1093,-6.1093,-6.1093,-6.1093,-6.1093,-6.1093,-6.1093,-6.1093,-6.1093,-6.1093,-6.1093,-6.1093,-6.1093,-6.1093,-6.1093,-6.1093,-6.1093,-6.1093,-6.1093,-6.1093,-6.1093,-6.1093,-6.1093,-6.1093,-6.1093,-6.1093,-6.1292,-6.1694,-6.2148,-6.2873,-6.3656,-6.4387,-6.4872,-6.4872,-6.4853,-6.4872,-6.4907,-6.4817,-6.4652,-6.4689,-6.4781,-6.4745,-6.4671,-6.4781,-6.4907,-6.4872,-6.4872,-6.4926,-6.4926,-6.4926,-6.4926,-6.4926,-6.4926,-6.4926,-6.4926,-6.4926,-6.4832,-6.4528,-6.3713,-6.2709,-6.1993,-6.1349,-6.0757,-6.0264,-6.0132,-5.9904,-5.9853,-5.982,-5.9786]}]]